GFSGL_prec_cloud_003.txt.gz
Cloud_Cover
15 5 5 3 5 5 10 46 63 37 22 10 46 88 58 12 10 4 1 0 0 0 3 5 5 5 5 5 5 5 86 100 100 12 32 88 100 91 68 100 100 100 100
93 49 44 40 34 51 94 99 92 76 49 10 5 5 5 5 0 0 0 0 0 1 16 0 0 0 0 1 4 5 32 93 100 100 99 99 99 100 100 100 100 100 100
51 82 100 100 98 64 42 38 15 5 5 5 5 4 1 0 0 0 1 0 0 12 38 16 0 0 0 0 0 0 1 5 60 100 93 100 100 100 100 100 100 100 100
32 11 29 76 64 93 46 4 5 4 1 0 0 0 0 0 0 0 0 0 0 0 0 0 1 5 0 0 3 20 25 39 52 40 66 98 100 92 100 100 86 100 100
96 51 10 5 2 1 0 0 0 0 0 0 0 3 5 5 5 5 5 6 3 1 2 4 2 4 2 5 5 1 31 28 79 84 76 35 96 100 78 100 100 100 100
5 5 5 4 0 0 0 0 2 4 5 6 6 50 7 34 95 68 5 8 91 99 6 2 1 6 1 6 4 8 85 100 100 99 82 86 58 74 100 100 100 100 100
5 5 5 5 4 4 4 3 4 5 5 5 5 4 5 5 5 19 100 100 96 86 65 41 22 42 54 50 63 9 7 9 95 100 100 100 100 97 100 100 100 100 100
5 5 5 5 2 0 0 1 1 4 5 8 21 82 79 40 5 95 100 100 97 84 77 64 23 5 5 5 93 100 100 97 53 94 100 100 97 100 100 100 100 100 100
5 5 5 5 0 0 0 0 2 0 0 0 5 5 5 5 5 87 96 21 5 5 5 5 6 5 5 4 99 100 100 100 100 93 97 64 92 100 100 100 100 100 100
5 5 5 5 5 0 0 0 0 0 0 0 0 0 0 0 4 5 0 0 0 0 5 5 5 48 5 16 100 100 100 100 100 100 100 100 100 100 100 100 100 100 100
5 5 5 5 3 0 0 0 0 0 0 0 0 0 0 0 0 0 0 0 0 6 5 14 5 16 74 100 100 100 100 100 100 100 100 100 100 100 100 100 100 100 100
5 5 5 1 0 0 0 0 0 0 0 0 0 0 0 0 0 0 2 5 6 85 66 22 5 10 96 100 71 100 100 100 100 100 100 100 100 100 100 100 100 100 100
5 5 5 0 0 0 0 0 0 0 0 0 0 0 3 0 0 0 5 12 83 97 82 5 11 100 100 100 100 100 100 100 100 100 100 100 100 100 100 100 100 100 100
5 2 0 0 0 0 0 0 0 0 0 1 5 5 5 5 5 12 17 29 46 5 5 6 98 100 100 100 100 100 100 100 100 100 100 100 100 100 100 100 100 100 100
0 0 0 0 0 0 0 0 0 0 5 67 34 83 90 49 41 73 91 99 78 100 81 90 100 100 100 100 100 100 100 100 100 100 100 100 100 100 100 100 100 100 100
0 0 0 0 0 0 0 0 0 4 5 7 61 98 97 100 100 100 100 70 100 97 100 100 100 100 100 100 100 100 100 100 100 100 100 100 100 100 100 100 100 100 100
5 2 0 0 0 0 0 5 5 3 5 5 70 98 100 100 100 100 100 100 48 99 100 100 100 100 100 100 100 100 100 100 100 100 100 100 100 100 100 100 100 100 100
3 0 0 0 0 4 5 25 65 94 90 5 5 63 97 100 100 100 100 81 5 60 100 100 100 100 100 100 100 100 100 100 100 100 100 100 100 100 100 100 100 100 100
0 0 0 2 5 14 33 25 82 89 67 44 6 5 31 5 66 100 79 5 35 99 100 100 100 100 99 100 100 100 100 100 100 100 100 100 100 100 100 100 100 100 100
0 0 5 5 7 5 11 81 81 82 84 90 96 96 95 56 96 85 100 5 12 100 100 100 97 99 100 100 100 100 100 100 100 100 100 100 100 100 100 100 100 100 100
0 0 4 5 8 79 100 96 68 100 100 100 98 100 100 100 100 100 100 96 69 100 100 99 100 82 99 100 100 100 100 100 100 100 100 100 100 100 100 100 100 100 100
3 5 5 44 90 86 100 100 93 98 99 94 100 99 97 100 100 100 100 100 98 85 56 94 94 58 100 100 100 100 100 100 100 100 100 100 100 100 100 100 100 100 100
5 5 85 98 100 96 92 51 97 95 94 97 100 85 54 58 100 100 100 97 74 6 7 99 83 95 100 100 100 100 100 100 100 100 100 100 100 100 100 100 100 100 100
68 100 100 100 100 100 100 88 74 99 100 100 82 62 18 100 100 100 100 18 55 10 80 85 63 100 100 100 100 100 100 100 100 100 100 100 100 100 100 100 100 91 6
100 100 100 100 100 100 100 100 100 100 99 53 7 75 59 99 100 100 100 82 58 98 69 6 90 100 100 100 100 100 100 100 100 100 100 100 100 100 100 100 100 5 5
96 100 100 100 100 99 100 100 88 65 27 10 58 30 78 77 100 91 32 5 38 74 5 82 100 100 100 100 100 100 100 100 100 100 100 100 100 100 100 88 6 21 5

GFSGL_prec_cloud_006.txt.gz
Cloud_Cover
26 19 7 45 75 96 90 69 60 18 1 1 3 17 52 55 30 4 0 0 0 0 0 0 2 5 5 5 5 5 5 13 79 0 9 2 35 99 100 100 100 100 100
23 33 56 57 21 14 22 22 51 96 99 54 24 21 2 0 0 0 1 0 0 1 5 5 5 5 4 2 0 1 11 6 56 100 30 61 5 1 7 46 100 100 100
61 28 26 6 16 44 16 24 25 5 4 0 0 0 0 0 3 5 7 5 5 10 58 5 5 5 5 10 5 19 18 14 53 100 100 100 100 31 5 8 33 97 100
5 5 12 85 100 94 41 17 0 0 0 0 0 0 0 0 0 3 4 3 5 5 10 69 64 99 100 100 91 100 100 100 100 100 100 100 100 100 100 97 100 89 78
70 97 79 17 4 4 3 0 0 0 0 0 0 0 0 0 4 5 5 5 57 91 100 100 100 100 100 95 70 6 89 100 100 100 100 100 100 100 100 100 88 79 44
5 5 5 5 5 5 2 0 0 0 0 0 0 0 0 0 4 5 5 5 5 5 39 66 100 100 100 98 96 100 100 69 100 100 100 100 100 100 82 96 100 100 100
5 5 5 5 5 5 0 0 0 0 0 0 0 0 0 0 0 0 0 5 5 5 83 86 60 78 100 100 100 100 100 97 100 100 100 100 100 100 100 99 100 92 100
5 5 5 5 4 1 0 0 0 0 0 0 0 0 0 0 0 0 0 4 5 5 11 5 14 7 5 99 18 5 8 84 100 100 100 100 100 100 100 100 100 100 100
5 5 5 5 4 1 0 0 0 0 0 0 0 0 0 0 0 0 0 0 0 0 0 0 5 5 7 55 73 8 18 100 79 100 100 100 100 100 100 100 100 100 100
5 5 5 5 0 0 0 0 0 0 0 0 0 0 0 0 0 0 2 5 5 5 6 5 10 62 54 19 49 52 100 100 100 100 100 93 100 100 100 100 100 100 100
5 5 5 5 5 2 1 0 0 0 0 0 0 0 0 0 0 4 5 71 61 100 68 26 5 5 5 5 82 100 100 100 100 100 100 100 100 100 100 100 100 100 100
5 5 5 5 5 1 0 0 1 2 3 0 0 1 4 5 5 5 90 100 100 100 92 24 12 12 6 98 100 100 100 100 100 100 100 100 100 100 100 100 100 100 100
5 5 5 4 5 5 34 20 5 5 1 0 5 56 22 5 5 5 78 100 74 99 88 92 71 70 100 100 100 100 100 100 100 100 100 100 100 100 100 100 100 100 100
0 0 4 5 14 75 45 3 0 0 3 24 100 100 96 34 72 6 99 35 26 43 45 10 33 99 90 98 76 98 100 100 100 100 100 100 100 100 100 100 100 100 100
1 5 24 10 5 2 0 0 0 3 65 100 91 100 100 97 38 100 100 99 99 100 100 5 15 6 32 52 65 100 100 100 100 100 100 100 100 100 100 100 100 100 100
0 1 2 0 0 0 0 0 0 5 18 79 88 100 100 100 100 100 100 100 100 100 36 51 90 72 97 94 100 100 100 100 100 100 100 100 100 100 100 100 100 100 100
0 0 0 0 0 0 0 5 39 5 5 5 53 98 100 100 100 100 100 100 22 73 5 99 91 100 91 100 100 100 100 100 100 100 100 100 100 100 100 100 100 100 100
0 0 0 0 0 4 5 41 84 87 88 17 5 50 99 100 100 100 100 87 5 10 96 100 98 100 100 100 100 100 100 100 100 100 100 100 100 100 100 100 100 100 100
0 0 0 4 5 5 5 5 71 92 91 26 57 21 6 10 99 100 100 100 80 92 100 67 96 96 100 100 100 100 100 100 100 100 100 100 100 100 100 100 100 100 100
0 0 5 5 5 5 5 48 94 88 94 91 100 94 6 54 100 77 49 100 98 86 74 96 100 95 100 99 100 100 100 100 100 100 100 100 100 100 100 100 100 100 100
0 1 5 5 5 5 80 98 87 98 98 76 61 52 100 100 72 5 53 100 100 49 85 100 100 100 100 100 100 100 100 100 100 100 100 100 100 100 100 100 100 100 100
5 5 5 5 5 35 97 100 86 45 74 100 97 74 100 81 7 17 98 99 22 5 66 96 100 100 100 100 100 100 100 100 100 100 100 100 100 100 100 100 94 84 93
5 5 5 57 99 100 86 78 98 100 98 97 100 100 80 97 97 63 59 97 69 7 61 65 97 100 100 100 100 100 100 100 100 100 100 100 100 100 100 92 93 77 51
36 85 98 100 100 100 100 100 100 96 100 100 100 94 100 100 99 93 84 66 5 54 61 100 100 100 100 100 100 100 100 100 100 100 100 100 100 100 100 100 99 100 100
70 90 100 100 100 100 100 92 100 100 84 66 96 100 94 100 100 91 86 59 6 75 97 100 100 100 100 100 100 100 100 100 100 100 100 100 100 100 100 100 100 100 84
82 82 46 19 10 65 100 97 88 85 81 83 92 94 99 100 100 99 48 22 81 100 90 100 100 100 100 100 100 100 100 100 100 100 100 100 100 100 100 100 70 70 92

GFSGL_prec_cloud_009.txt.gz
Cloud_Cover
41 68 74 76 42 25 16 6 53 46 63 43 79 77 15 5 5 4 1 0 0 1 0 0 0 1 3 6 71 100 100 100 100 5 26 45 100 92 94 49 40 28 99
93 68 47 30 8 33 8 36 98 95 100 100 11 8 4 0 0 0 0 0 1 0 0 0 2 4 11 16 9 65 98 100 100 97 33 59 86 96 100 100 100 100 100
5 5 5 10 22 48 72 100 100 100 75 2 0 0 0 0 0 0 0 0 0 0 0 2 5 63 17 16 84 55 87 74 100 100 55 88 86 100 30 40 100 100 100
5 5 14 98 98 100 99 77 21 2 0 0 0 0 0 0 0 0 0 0 0 1 1 5 5 5 5 6 41 77 92 94 99 100 100 97 73 85 100 100 97 100 100
6 6 11 5 5 3 0 0 0 0 0 0 0 0 0 0 0 0 0 0 2 0 0 0 5 5 5 6 63 6 41 75 43 87 60 87 82 98 100 100 100 100 94
5 5 3 5 5 5 5 0 0 0 0 0 0 0 0 0 0 0 0 0 1 0 0 0 4 5 4 3 6 5 51 99 74 70 8 77 37 100 100 100 100 100 90
96 12 5 5 5 5 5 1 5 1 0 0 0 0 0 0 0 0 0 0 0 0 0 0 0 1 4 5 5 7 48 65 11 75 77 48 96 100 100 100 100 100 100
5 5 5 5 5 5 5 5 5 0 0 0 0 0 0 0 0 0 0 0 3 4 5 0 5 5 5 5 74 100 99 5 5 5 92 100 75 67 100 100 100 100 100
56 76 58 7 5 5 5 5 0 0 0 0 0 0 4 5 10 5 5 5 5 5 5 5 16 5 8 96 99 100 5 5 6 90 100 91 100 100 100 100 100 100 100
29 64 59 5 5 4 0 0 0 0 0 0 0 0 0 0 1 5 31 56 68 71 72 94 5 5 95 100 100 97 100 100 100 86 48 97 100 100 100 100 100 100 100
83 10 5 2 0 0 0 0 0 0 0 0 0 0 0 5 5 14 82 98 85 100 58 49 7 71 100 92 100 100 100 100 100 100 99 99 100 100 100 100 100 100 100
5 4 4 0 0 0 0 0 0 0 0 0 0 1 5 5 5 12 100 100 100 100 98 90 85 100 100 100 94 99 100 100 100 95 100 89 85 100 100 100 99 100 100
4 0 0 0 0 0 0 0 0 0 0 1 5 47 72 5 5 5 40 99 89 73 95 100 99 70 90 26 55 97 100 98 100 100 100 100 85 100 100 88 100 100 100
0 0 0 0 0 0 0 0 0 0 0 5 70 99 83 72 64 6 96 67 14 21 100 77 5 5 92 81 78 98 100 96 100 100 100 100 92 100 100 100 100 100 100
0 0 0 0 0 0 0 0 0 0 18 99 97 99 100 94 80 100 100 93 100 100 100 11 5 84 100 100 92 100 96 100 100 100 100 100 100 88 100 100 100 100 100
0 0 0 0 0 0 0 0 1 5 5 68 100 100 100 100 100 100 100 100 100 100 100 20 76 100 100 100 99 97 100 100 100 100 100 100 100 100 100 100 100 100 100
0 0 0 0 0 0 0 5 45 16 54 5 69 100 100 100 100 100 100 100 99 100 46 85 100 100 100 100 99 100 100 100 100 100 100 100 100 100 100 100 100 100 100
0 0 0 0 0 4 5 5 53 94 100 78 5 49 99 100 100 100 100 82 3 27 100 99 100 100 100 100 100 100 100 100 100 100 100 100 100 100 100 100 100 100 100
0 0 0 4 5 5 5 5 18 100 100 84 80 59 59 50 100 100 49 3 29 99 100 92 100 100 100 100 100 100 100 100 100 100 100 100 100 100 100 100 100 100 100
0 0 5 5 5 5 5 62 100 98 98 100 100 97 65 92 100 29 5 5 91 100 92 100 100 100 100 100 100 100 100 100 100 100 100 100 100 100 100 100 100 100 100
0 1 5 5 5 5 66 100 96 100 98 100 100 62 100 100 56 5 50 86 100 100 100 100 100 100 100 100 100 100 100 100 100 100 100 100 100 100 100 100 100 100 100
2 5 5 5 9 89 100 98 94 95 93 100 95 89 100 78 59 77 90 100 100 100 100 100 100 100 100 100 100 100 100 100 100 100 100 100 100 100 100 100 100 100 100
5 5 5 43 98 100 96 94 98 100 100 100 100 100 98 99 100 100 100 100 100 100 95 96 100 100 100 100 100 100 100 100 100 100 100 100 100 100 100 100 100 100 65
33 82 100 95 100 99 77 90 99 66 100 100 100 98 100 100 86 100 99 100 100 100 99 97 100 100 100 100 100 100 100 100 100 100 100 100 100 100 100 100 100 83 67
67 73 78 93 44 6 6 80 100 100 100 100 100 100 100 84 100 100 100 100 100 100 100 100 100 100 100 100 100 100 100 100 100 100 100 100 100 93 100 90 56 72 90
5 5 5 5 5 7 77 100 100 100 100 100 100 100 96 98 100 98 97 100 100 100 100 100 100 100 100 100 100 100 100 100 100 100 100 100 100 86 60 28 79 85 100

GFSGL_prec_cloud_012.txt.gz
Cloud_Cover
27 21 42 92 100 98 78 64 13 5 5 5 5 51 41 55 12 0 0 0 0 0 0 0 0 1 39 7 42 56 71 89 97 5 5 4 5 86 86 100 100 100 100
72 72 74 91 69 12 5 5 5 5 5 23 6 1 0 0 0 0 0 0 0 0 0 0 2 3 5 5 5 5 5 85 100 50 5 0 0 13 56 100 100 100 100
33 7 11 5 5 6 5 5 5 5 5 5 0 0 0 0 0 0 0 0 0 0 5 0 0 0 0 0 0 4 10 100 61 5 5 4 3 0 3 4 45 100 100
39 24 7 16 38 10 12 28 5 4 3 0 0 0 0 0 0 0 0 0 0 4 2 5 2 0 0 0 1 4 40 26 25 90 81 50 8 5 5 5 4 54 84
5 6 9 16 5 5 5 5 5 1 0 0 0 0 0 0 0 0 0 0 0 0 0 5 5 5 5 5 46 6 21 68 99 100 100 100 100 62 38 22 37 5 100
5 52 58 5 5 5 5 0 0 0 0 0 0 0 0 0 0 0 0 4 0 0 4 0 0 4 5 30 34 72 90 100 100 100 100 100 100 94 97 87 100 100 82
76 55 18 5 5 5 5 5 0 0 0 0 0 0 0 0 0 0 5 5 5 5 5 5 5 20 86 28 5 70 81 96 95 55 73 77 100 12 95 100 100 100 100
14 5 9 5 5 5 4 0 0 0 0 0 0 0 0 0 0 5 5 5 5 5 5 5 80 26 5 98 92 91 100 20 5 86 100 100 96 100 99 83 100 100 100
59 76 6 5 4 0 0 0 3 5 5 1 0 0 0 0 0 5 42 5 5 5 5 6 86 26 71 100 100 79 5 18 5 10 82 73 100 64 66 100 100 100 100
97 7 5 2 0 5 5 5 5 1 0 0 0 0 0 0 3 36 81 94 42 5 51 69 5 93 100 100 100 100 98 5 26 65 70 24 89 100 100 100 100 100 100
5 4 0 1 5 5 3 5 0 0 0 0 0 0 0 5 5 58 99 100 91 100 50 5 5 65 100 99 99 100 100 100 94 46 76 86 76 100 100 100 100 100 100
0 5 6 16 4 3 5 0 0 0 0 0 0 1 5 50 8 46 100 100 100 100 60 5 83 100 100 15 61 100 100 100 72 96 99 99 100 100 100 100 100 100 100
3 5 20 6 5 5 0 0 0 0 0 0 5 45 94 83 28 5 12 93 95 100 11 98 76 96 7 5 66 93 85 69 98 100 100 100 100 100 100 100 100 100 91
22 5 5 5 5 1 0 0 0 0 0 7 99 96 93 94 82 8 93 81 64 51 94 100 45 10 5 21 51 59 96 100 100 100 100 100 100 98 100 90 100 83 95
0 5 5 5 0 0 0 0 0 0 26 100 96 100 97 96 73 100 100 100 100 100 100 55 5 19 76 95 99 100 100 100 100 100 100 100 100 100 86 95 99 100 100
5 5 5 0 0 0 0 0 4 6 61 7 74 100 100 100 100 100 100 100 100 100 37 17 90 100 100 100 100 100 100 100 100 100 100 100 100 100 99 94 100 100 100
5 5 2 0 0 0 4 5 6 5 5 5 52 100 100 100 100 100 100 100 74 6 5 96 85 100 100 100 100 100 100 100 100 100 100 100 100 100 100 100 100 100 100
5 3 0 0 1 5 5 5 5 41 83 50 9 95 100 100 100 100 100 88 4 9 78 100 100 100 100 100 100 100 100 100 100 100 100 100 100 100 100 100 100 100 100
5 0 0 4 5 5 5 5 18 97 100 100 99 78 72 57 100 98 44 5 77 100 100 100 100 100 100 100 100 100 100 100 100 100 100 100 100 100 100 100 100 100 100
0 0 5 5 5 5 5 88 100 100 100 100 100 100 82 95 100 16 5 84 100 100 100 100 100 100 100 100 100 100 100 100 100 100 100 100 100 100 100 100 100 100 100
0 3 5 4 5 5 94 100 100 100 100 100 100 86 100 100 35 32 100 100 100 100 100 100 100 100 100 100 100 100 100 100 100 100 100 100 100 100 100 100 100 100 100
2 5 5 5 8 96 100 95 43 93 100 100 99 94 100 70 82 100 100 100 100 100 100 100 100 100 100 100 100 100 100 100 100 100 100 100 100 100 100 100 100 100 100
5 5 5 27 100 84 85 93 56 85 100 100 100 96 99 100 100 100 100 100 100 100 100 100 100 100 100 100 100 100 100 100 100 100 100 100 100 100 100 99 100 100 100
5 26 56 71 82 88 12 5 45 76 100 100 100 100 100 100 100 100 100 100 100 100 100 100 100 100 100 100 100 100 100 100 100 100 100 100 100 100 100 100 100 100 100
5 5 5 5 5 5 5 35 100 100 100 100 100 100 99 100 97 100 100 100 100 100 100 98 100 100 100 100 100 100 100 100 100 100 100 100 100 100 100 100 100 93 93
5 5 5 5 5 7 70 100 100 100 100 100 100 100 100 100 100 100 99 100 100 100 100 100 100 100 100 100 100 100 100 100 100 100 100 100 100 99 100 100 100 99 71

GFSGL_prec_cloud_015.txt.gz
Cloud_Cover
7 61 68 72 25 39 29 34 5 5 9 4 3 5 5 5 5 3 3 0 0 0 0 0 5 4 0 0 0 0 0 3 4 0 3 23 29 2 0 2 0 0 0
76 90 100 100 76 6 16 5 5 5 4 5 5 5 5 5 2 0 0 0 0 0 0 5 0 0 0 0 0 1 5 7 5 58 51 9 5 5 6 9 5 5 1
93 92 73 7 10 5 5 5 5 5 5 5 5 5 5 1 0 0 0 0 0 0 0 0 0 0 0 1 5 5 77 70 46 5 80 12 5 36 5 5 17 5 5
90 99 38 17 12 8 5 5 5 5 5 5 4 0 0 0 0 0 0 0 0 0 0 0 2 5 5 8 39 88 66 5 5 5 5 5 5 5 5 11 5 5 5
83 63 63 84 56 31 18 5 5 5 5 0 0 0 0 0 0 0 0 0 0 1 5 5 5 5 5 86 100 98 82 8 75 9 5 68 69 5 5 12 96 42 9
99 96 99 85 5 5 5 5 5 4 0 0 0 0 0 0 0 0 5 5 5 5 5 5 5 5 49 98 70 99 100 100 67 100 53 61 14 5 15 99 100 100 100
100 98 20 5 5 4 2 5 0 0 0 0 0 0 1 0 0 0 5 5 19 5 40 5 5 68 89 5 14 86 54 58 13 88 100 97 85 5 86 100 100 100 100
42 5 5 5 0 0 0 0 0 0 0 0 0 0 0 0 0 5 24 49 17 67 97 8 88 82 17 100 35 100 5 0 6 96 100 78 81 54 77 94 95 86 86
5 5 4 0 0 0 0 0 0 0 0 0 0 0 0 0 2 25 82 69 19 72 14 61 91 6 80 100 100 30 5 5 5 80 100 100 100 82 100 100 96 100 84
5 3 2 0 0 0 0 0 4 0 0 0 0 0 0 0 5 72 93 44 27 30 68 88 15 57 100 100 100 84 7 5 91 59 5 5 11 18 98 100 100 100 100
3 0 1 0 0 0 0 0 0 1 0 0 0 0 0 5 30 77 100 100 78 96 98 21 23 12 100 100 100 46 70 100 87 8 22 64 69 80 85 100 100 100 100
0 5 0 0 0 0 0 0 0 0 0 0 0 3 5 19 62 87 100 100 100 100 85 38 46 100 88 98 24 92 100 97 34 97 100 98 100 100 100 100 100 100 100
4 0 0 0 0 0 0 0 0 0 0 0 5 14 8 5 24 52 88 97 100 100 92 100 93 8 31 34 14 84 96 86 100 100 100 100 100 100 99 97 87 100 99
0 0 0 0 0 0 0 0 0 0 4 5 52 85 74 6 64 12 99 96 90 93 100 36 5 5 87 93 5 32 100 100 100 100 100 100 100 100 100 100 100 99 100
0 0 0 0 0 0 0 0 0 5 22 77 65 99 95 99 57 100 100 100 100 100 100 5 4 84 69 5 45 100 100 100 100 100 100 100 100 100 100 95 100 100 100
0 0 0 0 0 0 0 0 5 5 11 32 91 100 100 100 100 100 100 100 100 100 91 13 62 95 97 100 100 100 100 100 100 100 100 100 100 100 100 100 100 100 100
0 0 0 0 0 0 5 5 5 5 5 53 92 100 100 100 100 100 100 100 55 52 97 99 100 100 100 100 100 100 100 100 100 100 100 100 100 100 100 100 100 100 100
0 0 0 0 0 5 5 5 5 18 90 59 38 100 100 100 100 100 100 83 5 41 100 100 100 100 100 100 100 100 100 100 100 100 100 100 100 100 100 100 100 100 100
0 0 0 3 5 5 5 5 20 96 100 100 84 43 64 99 100 100 51 14 100 100 100 100 100 100 100 100 100 100 100 100 100 100 100 100 100 100 100 100 100 100 100
0 0 4 5 5 5 10 60 100 100 100 100 99 99 82 97 98 45 17 100 100 100 100 100 100 100 100 100 100 100 100 100 100 100 100 100 100 100 100 100 100 100 100
0 3 5 5 5 11 72 99 100 99 80 100 100 81 100 100 62 84 100 100 100 100 100 100 100 100 100 100 100 100 100 100 100 100 100 100 100 100 100 100 100 100 100
0 5 5 5 8 90 100 79 8 83 76 100 100 97 100 100 99 100 100 100 100 100 100 100 100 100 100 100 100 100 100 100 100 100 100 100 100 100 100 100 98 99 100
2 5 5 5 68 54 74 38 5 40 100 100 100 100 100 99 98 100 100 100 100 100 100 100 100 100 100 100 100 100 100 100 100 100 100 100 100 100 100 92 92 95 95
5 5 5 5 13 45 6 5 12 92 100 100 100 100 100 100 100 100 100 100 100 100 100 100 100 100 100 100 100 100 100 100 100 100 87 89 93 94 95 90 96 89 83
5 5 5 5 5 5 5 12 95 100 100 100 100 100 100 100 100 100 100 100 100 100 100 100 100 100 100 100 100 100 100 100 81 100 100 86 96 95 100 100 97 97 95
5 5 4 5 5 5 37 98 100 100 100 100 100 100 100 100 100 100 100 100 100 100 100 100 100 100 100 100 100 100 100 100 95 100 100 89 80 93 89 98 100 100 98

GFSGL_prec_cloud_018.txt.gz
Cloud_Cover
5 5 5 63 100 69 50 61 39 8 5 5 5 5 5 5 5 5 4 0 0 3 0 0 0 0 0 0 0 1 4 18 99 1 50 1 5 6 6 6 5 12 5
82 11 67 81 32 5 9 6 20 5 3 5 5 7 5 5 3 2 0 0 0 0 0 0 0 0 0 0 5 5 65 90 100 92 14 41 24 28 96 98 69 17 34
50 66 78 18 52 76 38 5 5 5 5 3 5 2 1 4 0 0 0 0 0 0 0 0 1 5 5 5 13 80 94 100 92 13 5 5 5 18 34 42 59 77 5
54 41 5 5 7 14 23 46 23 5 5 5 3 0 0 0 0 0 0 0 0 0 0 5 5 5 10 37 68 98 92 74 28 37 18 5 5 3 33 5 5 2 11
36 5 5 60 55 29 51 36 46 5 1 3 2 0 0 0 0 0 0 0 0 4 5 5 5 22 38 89 100 99 98 18 33 95 81 5 5 4 26 5 73 5 4
5 40 28 26 100 67 67 5 3 0 4 0 0 0 0 0 0 0 5 5 5 5 7 13 66 77 85 100 100 100 100 100 46 100 77 22 5 98 7 18 5 70 70
25 62 51 67 21 5 5 1 2 0 0 0 0 0 0 0 0 0 5 5 25 70 75 89 86 97 99 100 100 97 92 97 100 100 100 7 47 22 84 78 88 92 69
29 21 38 46 9 2 0 0 0 0 0 0 0 0 0 0 0 5 15 16 66 83 95 99 98 99 100 100 67 87 97 100 100 88 78 50 98 92 99 100 100 96 33
41 51 5 5 0 0 0 0 0 0 0 0 0 0 0 0 0 23 63 69 87 89 95 100 100 100 100 100 100 100 99 58 12 49 100 100 86 98 100 100 100 100 98
18 5 5 0 0 0 0 0 0 0 0 0 0 0 0 0 2 64 88 100 96 97 96 100 100 100 100 100 100 68 93 6 32 58 17 7 87 99 100 100 100 100 100
8 5 1 0 0 0 0 0 0 0 0 0 0 0 0 4 12 58 100 100 100 56 72 66 97 100 100 100 100 100 100 100 87 95 90 88 91 100 100 100 100 100 100
3 2 0 0 0 0 0 0 0 0 0 0 0 0 5 5 57 68 99 100 100 100 69 55 94 100 100 100 100 100 100 100 95 95 100 94 100 100 100 100 100 100 100
4 0 0 0 0 0 0 0 0 0 0 0 0 5 5 53 80 96 100 100 100 100 100 100 100 100 100 84 100 100 100 87 100 100 100 100 100 95 97 92 100 100 99
0 0 0 0 0 0 0 0 0 0 0 1 5 5 12 75 96 94 77 36 58 88 99 99 41 100 98 100 96 76 91 100 100 100 100 100 100 100 100 100 100 100 100
0 0 0 0 0 0 0 0 0 0 5 5 5 67 93 89 99 100 100 99 100 100 100 10 82 100 99 78 74 82 89 98 100 100 100 100 100 100 100 100 100 100 100
0 2 4 0 0 0 0 0 0 5 6 25 62 99 90 100 100 100 100 100 100 100 99 100 100 100 100 95 91 98 100 100 100 100 100 100 100 100 100 100 100 100 100
0 0 0 0 0 0 0 0 0 0 5 64 89 100 100 100 100 100 100 100 100 100 100 100 100 100 96 93 100 100 100 100 100 100 100 100 100 100 100 100 100 100 100
0 0 0 0 0 0 1 5 5 5 11 18 68 96 99 100 100 100 100 100 96 97 100 100 100 100 100 100 100 100 100 100 100 100 100 100 100 100 100 100 100 100 100
0 0 0 0 0 3 5 5 5 55 93 96 79 69 100 100 100 100 100 100 100 100 100 100 100 100 100 100 100 100 100 100 100 100 100 100 100 100 100 100 100 100 100
0 0 0 0 2 5 5 5 30 84 97 99 100 98 100 100 89 100 100 100 100 100 100 100 100 100 100 100 100 100 100 100 100 100 100 100 100 100 100 100 100 100 100
0 0 2 5 5 5 5 48 91 98 99 96 100 100 100 100 100 100 100 100 100 100 100 100 100 100 100 100 100 100 100 100 100 100 100 100 100 100 100 100 100 100 100
0 0 4 5 5 5 26 85 92 84 95 100 100 100 100 100 100 100 100 99 100 100 100 100 100 100 100 100 100 100 100 100 100 100 100 99 100 100 100 100 100 100 100
2 5 5 5 5 5 7 45 27 76 100 100 100 100 100 100 100 100 97 97 100 100 100 100 100 100 100 100 100 100 100 100 100 100 97 100 100 100 100 100 100 100 100
6 5 5 5 5 5 5 5 7 79 100 100 100 100 100 100 100 100 100 100 100 100 100 100 100 100 100 100 100 100 100 100 98 100 100 100 100 100 100 100 100 100 100
5 5 5 4 5 5 5 23 68 100 100 100 100 100 100 100 100 100 100 100 100 100 100 100 100 100 100 100 100 100 100 100 100 100 100 100 100 100 100 100 100 100 100
4 0 0 1 5 5 31 95 100 100 100 100 100 100 100 100 100 100 100 100 100 100 100 100 100 100 100 100 100 100 100 100 100 100 100 100 100 100 100 96 95 97 83

GFSGL_prec_cloud_021.txt.gz
Cloud_Cover
0 0 0 5 5 5 53 92 80 99 100 86 74 55 52 68 63 7 5 5 4 0 0 0 0 0 0 0 0 2 5 23 84 4 5 5 5 0 5 14 7 51 5
0 0 5 5 6 95 60 84 100 68 67 70 64 95 92 6 11 5 5 0 0 0 0 0 0 0 0 5 5 5 58 65 6 85 5 5 5 5 5 7 5 4 0
0 5 5 5 58 5 29 60 47 53 65 54 96 33 5 5 4 0 0 0 0 0 0 0 0 5 5 5 55 50 5 41 94 100 13 5 5 5 5 5 0 0 5
2 5 5 5 80 29 24 55 26 9 5 22 6 5 4 0 0 0 0 0 0 0 0 1 5 5 5 5 5 43 76 96 27 94 51 67 77 22 96 13 2 5 24
8 61 46 5 52 54 42 5 5 5 5 5 4 0 0 0 0 0 0 0 0 4 4 5 5 31 68 100 100 92 66 75 86 73 92 100 60 10 5 5 5 5 5
80 47 5 98 100 26 5 5 5 5 5 0 0 0 0 0 0 0 0 5 5 5 5 5 5 5 64 97 100 100 100 100 100 100 97 100 79 52 5 30 75 99 86
62 75 100 100 92 34 5 7 5 5 1 0 0 0 0 0 0 0 5 5 5 6 5 5 5 5 96 33 35 95 100 100 100 100 100 86 56 5 39 94 100 99 82
96 100 100 88 10 5 5 5 2 0 0 0 0 0 0 0 0 0 14 5 5 5 50 77 65 32 22 100 100 96 91 86 49 80 100 96 93 81 100 100 100 97 96
100 100 71 6 5 2 1 0 0 1 1 0 0 0 0 0 0 4 22 5 5 5 99 100 98 95 97 100 100 100 23 5 5 100 100 100 100 100 100 100 97 100 99
58 5 5 5 4 0 0 2 5 1 0 0 0 0 0 0 0 5 48 80 66 84 64 85 100 100 100 100 100 100 97 7 95 44 5 5 63 53 100 100 100 100 100
5 10 5 2 0 0 5 2 0 0 0 0 0 0 0 0 5 11 76 99 100 85 92 53 76 100 100 100 100 100 98 100 88 9 52 99 100 100 100 100 100 100 100
53 5 5 5 3 4 0 0 0 0 0 0 0 0 0 1 5 5 88 100 100 100 98 75 97 100 100 100 100 100 100 99 12 97 100 100 100 100 100 100 93 91 100
5 5 5 1 0 5 0 0 0 0 0 0 0 0 3 5 5 32 92 100 100 100 100 100 100 98 85 74 96 100 100 97 99 100 100 100 100 100 86 99 76 95 93
5 5 3 5 5 3 0 0 0 0 0 0 2 5 5 5 7 6 23 89 87 92 90 98 47 98 82 98 70 30 76 100 100 100 100 90 94 100 100 100 100 100 100
5 5 5 5 0 0 0 0 0 0 1 5 5 23 67 52 25 100 100 100 100 100 100 65 61 39 94 72 72 87 100 100 100 100 100 100 100 100 100 100 100 100 100
5 5 5 4 3 0 0 0 0 0 2 5 26 94 89 100 100 100 100 100 100 100 100 84 99 100 100 100 100 100 100 100 100 100 100 100 100 100 100 100 100 100 100
5 5 5 3 0 0 0 0 0 0 0 2 23 78 100 100 100 100 100 100 100 100 100 100 100 100 100 100 100 100 100 100 100 100 100 100 100 100 100 100 100 100 100
5 5 4 0 0 0 0 0 0 0 3 5 5 63 85 100 100 100 100 99 68 85 100 100 100 100 100 100 100 100 100 100 100 100 100 100 100 100 100 100 100 100 100
5 0 0 0 0 0 0 0 1 5 5 5 5 5 28 100 100 94 100 100 100 100 100 99 100 100 100 100 100 100 100 100 100 100 100 100 100 100 100 100 100 100 100
0 0 0 0 0 0 0 4 5 5 5 5 5 5 53 99 80 21 100 100 100 100 100 100 100 100 100 100 100 100 100 100 100 100 100 100 100 100 100 100 100 100 100
5 0 0 0 1 5 5 5 5 5 5 5 5 58 100 100 51 100 100 100 100 100 100 100 100 100 100 100 100 100 100 100 100 100 100 100 100 100 100 100 100 100 100
5 0 0 4 5 5 5 5 5 5 5 18 23 74 100 91 99 100 100 100 100 100 100 100 100 100 100 100 100 100 100 100 100 100 100 100 100 100 100 100 100 100 100
1 3 5 5 5 5 4 5 5 5 5 5 89 88 86 96 100 100 100 100 100 100 100 100 100 100 100 100 100 100 100 100 100 100 100 100 100 100 100 100 97 100 100
5 5 5 5 0 3 0 0 5 5 48 93 100 100 100 100 100 100 100 100 100 100 100 100 100 100 100 100 100 100 100 100 100 100 100 100 100 100 100 100 100 100 90
5 5 0 0 0 0 2 5 5 8 91 100 99 100 100 100 100 100 100 100 100 100 100 100 100 100 100 100 100 100 100 100 100 100 100 100 100 100 100 94 98 96 77
3 0 0 0 0 4 5 25 83 100 100 100 100 100 100 100 100 100 100 100 100 100 100 100 100 100 99 100 100 100 100 100 100 100 100 100 97 94 92 100 100 98 100

GFSGL_prec_cloud_024.txt.gz
Cloud_Cover
0 0 0 0 0 4 5 11 60 48 73 75 72 61 5 38 91 77 42 32 6 5 5 2 0 0 0 0 0 3 5 11 100 4 0 1 5 3 0 4 5 5 5
0 0 0 0 3 5 5 52 10 53 61 100 70 92 100 68 19 5 5 23 5 4 0 0 0 0 0 0 5 5 5 5 49 46 5 5 5 4 5 5 48 6 100
0 0 0 0 5 5 41 87 73 91 94 72 83 47 67 15 5 21 54 5 0 0 0 0 0 0 3 5 5 5 5 25 64 100 43 5 6 5 5 12 15 58 5
0 0 1 3 16 67 98 83 100 100 98 96 100 96 46 5 5 4 0 0 0 0 0 0 0 5 22 9 6 56 100 100 100 38 100 92 66 18 51 100 70 15 3
3 2 5 78 88 100 100 100 100 100 100 100 49 5 5 3 0 0 0 0 0 0 0 3 5 5 62 89 100 93 100 89 66 100 100 98 73 95 95 31 46 5 4
5 40 99 100 88 100 100 100 100 99 49 27 5 1 0 0 0 0 0 0 0 0 5 5 5 20 75 98 100 100 100 100 100 100 100 93 5 31 98 100 100 100 95
95 100 100 85 100 100 100 99 38 5 5 4 0 0 0 0 0 0 0 5 5 5 5 5 5 5 46 5 13 95 100 96 100 100 76 59 80 86 99 90 100 100 100
100 100 100 100 100 100 39 5 5 5 5 0 1 0 0 0 0 0 1 5 5 5 5 7 74 8 84 100 97 100 78 85 48 89 93 100 100 100 100 100 100 78 96
100 100 100 100 66 5 12 46 18 5 2 0 0 0 0 0 0 0 5 5 5 5 15 100 100 80 97 100 100 100 78 51 5 5 87 100 96 100 100 100 100 100 100
100 100 93 6 5 19 5 5 5 0 0 0 0 0 0 0 0 2 5 54 74 68 60 82 72 100 100 100 100 96 98 6 81 95 5 5 5 15 99 100 100 100 100
74 6 12 7 5 5 5 5 5 4 1 0 0 0 0 0 0 5 17 99 100 84 99 93 70 56 100 100 100 100 100 100 83 6 5 34 95 98 100 100 100 100 100
10 27 5 5 18 31 5 5 5 0 0 0 0 0 0 1 5 9 92 100 100 100 97 39 36 99 100 100 100 100 100 100 67 57 100 100 100 98 93 100 100 100 100
40 5 71 100 52 5 5 3 0 0 0 0 0 0 4 5 5 7 98 100 99 100 84 86 98 100 97 50 72 100 100 93 90 100 100 100 100 100 97 100 100 100 100
90 100 97 8 5 5 5 5 5 1 0 0 0 5 5 5 5 9 98 58 79 56 90 100 66 48 28 53 20 98 100 100 100 100 100 100 100 100 100 100 100 100 100
91 42 5 5 5 5 5 5 3 0 0 0 5 5 68 33 33 100 100 100 100 100 100 44 5 16 70 93 100 100 100 100 100 100 100 100 100 100 100 100 100 100 100
5 5 5 5 5 5 5 2 0 0 0 2 5 52 56 96 100 100 100 100 100 100 90 13 83 100 100 100 100 100 100 100 100 100 100 100 100 100 100 100 100 100 100
5 5 5 5 5 0 0 0 0 0 0 0 5 5 67 95 100 100 100 100 99 100 15 89 100 100 100 100 100 100 100 100 100 100 100 100 100 100 100 100 100 100 100
5 5 5 3 0 0 0 0 0 0 0 0 0 5 10 72 100 100 100 92 15 12 95 100 100 100 100 100 100 100 100 100 100 100 100 100 100 100 100 100 100 100 100
5 3 0 0 0 0 0 0 0 0 3 5 5 5 5 16 100 92 86 90 100 100 100 100 100 100 100 100 100 100 100 100 100 100 100 100 100 100 100 100 100 100 100
0 0 5 0 0 0 0 0 0 5 5 5 5 5 5 88 90 5 44 98 100 100 100 100 100 100 100 100 100 100 100 100 100 100 100 100 100 100 100 100 100 100 100
2 5 5 0 0 0 0 0 5 3 4 5 5 5 94 100 19 86 93 100 99 100 100 100 100 100 100 100 100 100 100 100 100 100 100 100 100 100 100 100 100 94 100
5 5 0 0 0 0 0 4 0 0 0 5 5 5 88 60 100 100 100 86 94 100 100 100 100 100 100 100 100 100 100 100 100 100 100 100 100 100 100 100 100 100 99
5 0 1 5 4 0 0 0 0 0 4 5 10 80 100 100 100 94 97 100 100 100 100 100 100 100 99 100 100 100 100 100 100 100 100 100 100 100 100 100 99 95 100
0 0 3 0 0 0 0 0 0 3 19 89 100 100 100 100 98 100 100 100 100 100 100 100 100 100 100 100 100 100 100 100 100 100 100 100 100 100 93 99 88 81 90
0 0 0 0 0 0 0 1 5 5 79 100 100 100 99 90 100 100 100 100 100 100 100 100 100 100 100 100 100 100 100 100 100 100 97 99 96 100 100 98 88 89 94
0 0 0 0 0 0 5 5 10 64 94 100 100 100 100 100 100 100 100 100 100 100 100 100 100 100 100 100 100 100 100 100 100 100 100 99 99 93 99 100 100 100 92

GFSGL_prec_cloud_027.txt.gz
Cloud_Cover
5 2 0 0 0 0 0 3 5 5 5 59 90 76 75 68 56 34 80 96 99 59 11 5 1 0 0 0 0 0 3 74 43 1 0 0 2 5 5 4 5 5 5
2 0 0 0 0 0 0 5 12 80 83 60 77 79 80 90 100 100 96 11 5 5 0 0 0 0 0 0 3 5 5 5 54 68 5 5 5 4 5 5 58 46 45
0 0 0 0 1 5 5 33 100 70 82 83 86 100 96 100 95 28 5 5 5 0 0 0 0 0 1 5 5 22 12 90 100 100 66 5 24 67 21 75 82 5 5
0 2 5 1 4 39 55 100 87 100 100 100 96 93 99 53 5 5 5 2 0 0 0 0 0 1 5 48 11 75 99 71 21 5 50 97 16 73 100 23 5 5 78
5 4 1 9 75 50 94 73 98 100 100 82 88 95 17 5 5 0 0 0 0 0 0 0 0 5 43 98 100 95 88 37 93 100 100 100 86 5 5 9 84 76 95
5 0 5 30 98 82 83 100 100 86 100 100 32 7 5 2 0 0 0 0 0 0 4 5 5 5 5 99 98 100 100 100 100 100 100 100 8 90 74 53 94 100 97
2 5 38 100 100 100 100 100 97 100 86 33 12 5 4 3 5 1 0 1 5 5 5 5 5 5 25 35 15 94 82 96 100 100 91 64 99 50 94 100 100 100 100
67 100 89 100 100 100 100 100 49 5 5 5 5 5 5 3 0 0 1 5 5 5 5 5 38 40 53 100 94 96 98 99 42 80 78 83 100 100 100 100 97 100 100
99 100 100 100 100 100 95 28 5 5 5 5 6 5 0 0 0 0 5 5 5 5 5 6 100 52 87 100 100 100 89 8 5 13 100 100 62 81 100 100 100 100 98
100 100 100 100 100 98 14 5 5 5 5 6 3 5 0 0 0 5 74 6 5 5 6 10 42 95 100 100 100 100 84 5 87 98 37 100 100 99 100 100 100 100 100
100 100 100 100 94 39 6 5 5 5 5 5 5 2 0 0 0 7 71 100 84 81 58 54 5 30 100 100 100 78 76 100 92 99 95 87 98 100 100 100 100 100 100
94 100 94 57 5 5 19 56 25 5 5 5 0 0 0 0 0 4 80 100 100 100 99 30 44 100 100 100 93 100 100 100 92 97 100 100 100 100 100 100 100 100 100
100 91 43 44 63 82 39 12 5 5 4 0 0 0 0 1 4 0 7 100 100 100 99 98 90 84 54 6 61 100 100 72 99 100 100 100 100 100 100 100 100 100 100
32 22 95 100 94 66 5 5 5 1 0 0 0 5 5 5 5 13 96 83 71 64 89 76 5 5 44 22 18 84 100 100 100 100 100 100 100 100 100 100 100 100 100
80 100 97 72 16 5 6 5 1 0 0 0 5 5 5 5 12 100 100 99 100 100 100 6 14 88 97 89 100 100 100 100 100 100 100 100 100 100 100 100 100 100 100
70 68 22 5 5 5 5 1 0 0 0 0 5 5 5 38 94 100 100 100 100 100 86 53 100 100 100 100 100 100 100 100 100 100 100 100 100 100 100 100 100 100 100
6 5 5 5 5 5 0 0 1 2 0 0 2 5 16 55 96 100 100 100 83 100 88 100 100 100 100 100 100 100 100 100 100 100 100 100 100 100 100 100 100 100 100
5 5 5 5 2 0 0 0 0 0 0 0 0 4 5 45 98 100 100 79 46 59 100 100 100 100 100 100 100 100 99 100 100 100 100 100 100 100 100 100 100 100 100
5 5 5 2 0 0 5 0 0 0 0 0 0 0 4 32 97 46 29 79 100 100 100 100 100 100 100 100 100 100 100 100 100 100 100 100 100 100 100 100 100 100 100
5 5 2 0 4 1 0 0 0 0 0 0 0 0 5 91 41 5 80 100 100 100 100 100 100 100 100 100 100 100 100 100 99 100 100 100 100 100 100 100 100 100 100
5 5 5 5 0 0 0 0 0 0 0 0 0 8 97 100 9 99 100 100 100 100 100 100 100 100 100 100 100 100 100 100 100 100 100 100 100 100 100 100 100 100 100
5 5 5 5 2 0 0 0 0 0 0 2 5 8 94 40 100 100 100 100 100 100 100 100 100 100 100 100 100 100 100 100 99 100 100 95 97 100 99 100 100 96 99
5 5 5 5 0 0 0 0 0 0 5 12 74 97 100 100 100 100 100 100 100 100 100 100 100 99 100 100 100 100 100 100 100 100 100 100 100 95 92 88 100 100 98
5 5 5 5 2 0 0 0 0 5 73 87 100 100 100 100 100 100 100 100 100 100 100 100 100 100 100 100 100 100 100 100 100 100 100 100 99 95 100 86 98 100 98
5 5 5 0 0 0 0 3 5 5 56 100 100 100 100 98 100 100 100 100 100 100 99 98 100 100 100 100 100 100 100 100 100 100 100 96 100 96 86 83 98 98 91
5 5 3 0 0 0 5 10 66 95 100 100 100 100 100 100 100 100 100 100 100 100 100 100 100 100 100 100 100 100 100 100 100 100 99 100 100 100 96 95 100 83 89

GFSGL_prec_cloud_030.txt.gz
Cloud_Cover
5 5 5 5 5 0 0 0 0 0 4 5 5 5 5 5 5 5 5 5 5 5 5 5 4 0 0 0 0 0 4 5 10 5 2 4 5 5 5 61 99 53 50
5 5 5 5 2 2 5 5 5 4 2 5 19 57 5 5 5 43 60 7 5 5 5 0 1 0 0 0 0 5 5 5 99 96 5 5 5 4 5 16 91 100 50
5 5 5 4 2 5 5 0 1 5 10 71 14 19 49 64 95 96 19 5 5 4 4 5 5 1 0 0 5 5 5 78 95 84 10 5 10 5 20 100 98 5 5
5 5 5 5 5 5 0 4 6 82 96 9 49 83 79 81 27 5 3 5 5 4 4 5 0 2 0 17 76 54 100 71 44 91 90 92 24 54 93 91 5 5 4
5 5 5 5 5 16 36 32 99 72 24 75 84 58 51 6 5 5 5 5 5 4 0 0 5 5 5 99 100 100 97 96 100 99 70 74 98 13 18 5 5 5 29
5 5 10 5 40 100 90 85 87 49 85 68 60 30 5 5 5 5 5 5 0 0 4 5 3 5 18 100 99 100 100 100 43 87 100 98 33 66 26 89 100 100 96
5 62 63 68 100 89 64 88 100 100 89 90 89 28 5 5 5 5 4 2 5 5 4 1 5 5 23 8 5 75 7 81 100 96 58 22 97 70 100 100 100 100 100
73 77 78 100 80 95 98 84 98 45 78 98 38 5 5 5 5 1 4 5 4 0 0 5 61 8 5 100 88 72 100 24 5 5 97 97 100 100 100 100 100 100 93
85 80 100 97 91 76 93 30 36 98 57 5 5 5 5 5 2 3 5 5 5 5 5 70 70 39 47 100 100 60 79 7 2 13 98 94 100 92 100 100 100 100 100
100 100 48 61 80 6 62 100 92 6 7 41 5 5 5 5 0 5 25 5 5 5 22 68 79 84 100 100 100 98 42 4 95 98 100 100 100 100 100 100 100 100 100
46 5 44 52 17 100 99 31 5 40 43 21 5 5 2 0 0 5 67 100 24 92 16 59 5 49 100 100 100 61 54 100 88 99 100 100 100 100 97 100 100 100 100
5 62 44 39 90 65 16 5 5 5 5 5 5 5 1 0 0 4 87 100 100 92 87 45 73 99 100 98 65 100 100 100 90 100 100 100 100 100 100 100 100 100 100
5 41 64 62 6 5 5 5 5 5 5 5 4 0 0 0 3 2 66 100 100 100 85 100 100 90 7 5 64 100 100 96 100 100 100 100 100 100 100 100 100 100 100
62 77 32 5 5 5 5 5 5 5 5 0 0 1 5 5 5 13 99 88 100 80 90 60 5 5 5 28 38 24 100 100 100 100 100 100 100 100 100 100 100 100 100
43 5 5 7 5 5 5 7 39 5 2 2 5 5 5 5 16 100 100 100 100 100 100 5 5 33 82 68 92 96 100 100 100 100 100 100 100 100 100 100 100 100 100
5 16 12 5 5 5 72 99 24 5 13 5 0 5 5 10 66 99 100 100 100 100 72 41 99 100 100 100 100 100 100 100 100 100 100 100 100 100 100 100 100 100 100
10 5 5 5 39 90 100 75 94 97 11 2 0 4 5 6 75 100 100 100 40 79 90 100 100 100 100 100 100 100 100 100 100 100 100 100 100 100 100 100 100 100 100
49 20 28 86 100 100 100 98 76 5 5 0 0 3 5 6 89 100 100 73 20 42 100 100 100 100 100 100 100 100 100 99 100 100 100 100 100 100 100 100 100 100 100
5 22 93 100 100 100 89 11 5 5 0 0 0 0 0 18 100 55 59 80 100 100 100 100 100 100 100 100 100 100 100 100 100 100 99 100 100 100 100 100 100 100 100
48 99 92 100 100 100 85 39 5 4 0 0 0 0 5 96 16 6 80 100 100 100 100 100 100 100 100 100 100 100 100 100 100 100 100 100 100 100 100 100 100 100 100
40 67 100 100 100 64 28 5 5 3 0 0 4 5 98 100 9 99 100 100 100 100 100 100 100 100 100 100 100 100 100 100 100 100 100 100 100 99 90 100 100 100 100
89 100 100 87 51 20 5 5 0 0 0 5 5 10 98 40 100 100 100 100 100 100 100 100 100 100 100 100 100 100 100 100 100 100 100 100 100 100 99 100 96 100 100
100 90 37 26 18 5 5 0 0 4 5 20 28 97 100 100 100 100 100 100 100 100 100 100 100 100 98 100 100 100 100 100 100 100 100 100 100 100 100 99 100 95 98
48 41 58 8 5 4 0 4 5 13 92 73 100 100 100 100 100 100 100 100 100 100 100 100 100 100 100 100 100 100 100 100 100 100 100 100 100 100 98 90 79 88 85
29 5 5 5 4 0 5 5 6 76 99 100 100 100 100 100 100 100 100 100 100 100 100 96 100 100 100 100 100 100 100 100 100 100 99 100 100 100 100 97 81 95 98
5 5 5 1 2 5 5 43 55 92 100 100 100 100 100 100 100 100 100 100 100 100 100 99 100 100 100 100 100 100 100 100 99 100 73 93 100 100 100 70 79 96 84

GFSGL_prec_cloud_033.txt.gz
Cloud_Cover
1 5 5 46 26 5 5 5 1 0 0 0 0 1 4 5 5 5 5 5 5 8 5 5 3 0 2 4 0 0 4 5 57 5 5 5 5 3 2 5 7 90 21
7 13 67 59 38 5 5 3 1 4 1 0 2 5 12 20 5 5 65 57 6 5 5 5 5 5 1 0 0 5 5 5 89 98 7 5 5 0 5 54 100 100 100
30 81 95 16 7 5 5 5 5 5 0 5 5 46 67 20 62 80 43 5 5 5 5 4 2 0 1 3 5 5 22 95 99 96 72 25 29 80 56 100 90 89 5
91 70 31 13 5 5 5 5 32 4 5 5 5 8 20 67 26 5 5 5 5 5 5 0 0 0 0 6 5 67 87 52 28 93 100 98 94 96 72 46 5 5 5
44 24 6 5 5 5 5 97 12 6 5 5 62 77 20 5 5 5 5 5 5 1 0 0 0 2 5 67 100 56 82 86 100 96 100 100 72 5 5 5 35 46 83
6 5 31 6 5 15 99 75 21 6 27 28 6 5 7 49 5 5 5 5 5 3 0 0 0 0 5 16 72 100 100 100 97 100 85 61 6 5 5 94 100 100 95
66 82 12 11 36 100 98 71 65 14 5 5 5 48 61 5 5 5 5 5 3 0 0 0 1 5 5 5 10 56 99 98 91 74 50 20 78 48 100 100 100 100 100
34 25 9 78 99 99 56 47 5 33 47 61 96 20 5 5 5 3 5 5 2 0 0 3 5 5 48 100 85 100 9 5 5 5 66 90 100 100 100 100 100 100 100
12 5 66 99 99 45 6 5 64 72 94 86 7 5 5 5 1 2 5 5 5 5 5 92 66 87 98 100 100 84 70 5 4 15 96 77 22 66 100 100 97 100 100
14 89 100 88 5 5 5 50 92 100 64 5 5 5 5 0 1 3 5 5 5 6 90 6 64 82 100 100 100 95 66 6 93 97 77 78 55 98 100 100 100 100 100
91 97 36 5 5 10 86 100 73 7 5 5 5 4 2 4 5 4 5 32 5 98 14 24 5 46 100 100 100 66 44 100 87 100 65 92 99 75 80 100 100 100 100
30 9 5 5 55 82 92 15 5 5 5 5 5 5 5 8 5 5 34 98 100 85 73 9 43 100 100 87 45 99 100 98 58 98 100 100 100 99 100 100 100 100 100
5 5 5 5 68 40 5 5 5 5 5 5 5 5 5 5 5 5 7 100 100 100 97 100 93 70 7 5 50 100 94 57 99 100 100 100 100 100 100 100 99 99 100
5 5 47 72 5 5 5 16 6 5 5 5 6 6 5 5 5 11 88 92 97 98 95 44 5 5 5 15 42 43 62 100 100 100 100 100 100 100 100 100 100 100 100
42 85 23 5 5 5 5 5 5 21 37 8 5 5 5 5 19 98 100 100 100 100 100 5 5 16 68 78 73 87 100 100 100 100 100 100 100 100 100 100 100 99 100
48 36 14 5 5 5 5 44 42 66 52 15 5 5 5 5 42 87 100 100 100 100 66 25 95 100 100 100 100 100 100 100 100 100 100 100 100 100 100 100 100 100 100
83 58 36 5 5 5 48 86 99 100 48 21 5 5 5 5 56 98 100 100 86 67 84 100 100 100 100 100 100 100 100 100 100 100 100 100 100 100 100 100 100 100 99
89 36 5 5 27 74 84 35 6 5 5 14 4 0 2 5 82 100 98 69 20 40 100 100 100 100 100 100 100 100 100 100 100 100 100 100 100 100 100 100 100 100 100
5 11 47 5 25 7 5 5 5 5 5 1 0 0 0 12 99 57 27 49 100 100 100 100 100 100 100 100 100 100 100 100 100 100 98 100 100 100 91 99 100 93 100
44 26 5 5 5 5 5 5 5 5 2 0 0 4 16 89 57 5 52 100 100 100 100 100 100 100 100 100 100 100 100 100 100 100 100 100 100 100 100 99 100 100 100
6 5 5 5 5 5 5 5 5 0 0 0 5 12 99 100 6 86 100 100 100 100 100 100 100 100 100 100 100 100 100 100 100 100 100 100 100 99 100 100 100 100 100
11 5 5 5 5 5 4 1 0 0 3 5 5 5 85 33 100 100 100 100 100 100 100 100 100 100 100 100 100 100 100 100 100 100 100 100 100 100 100 99 99 99 99
5 5 5 5 5 1 0 0 2 5 18 53 56 80 100 100 100 100 100 100 100 100 100 100 100 100 100 100 100 100 100 100 100 100 100 100 99 99 100 100 98 86 100
5 5 5 3 0 0 0 5 5 38 91 89 99 100 100 100 100 100 100 100 100 100 100 100 100 100 100 100 100 100 100 100 100 100 100 100 100 100 100 93 96 96 83
5 4 0 1 2 4 5 5 49 74 96 100 100 100 100 100 100 100 100 100 100 100 95 98 100 100 100 100 100 100 100 100 100 100 100 100 100 100 100 98 92 58 68
0 0 0 5 5 5 10 76 87 100 100 100 100 100 100 100 100 100 100 100 100 99 90 99 100 100 100 100 100 100 100 100 100 98 71 95 100 100 100 84 72 64 44

GFSGL_prec_cloud_036.txt.gz
Cloud_Cover
5 68 62 20 5 5 5 17 11 17 5 5 4 5 4 0 5 5 5 5 5 5 5 4 0 1 1 0 4 5 4 5 53 6 5 5 5 5 5 5 60 100 5
5 72 60 61 5 29 5 13 5 5 5 5 5 5 0 5 5 5 5 5 5 5 5 5 5 1 0 0 0 3 5 5 99 82 5 5 5 5 9 99 85 9 5
5 95 85 44 5 5 5 5 5 5 5 5 14 5 5 5 5 5 4 0 5 5 5 4 0 0 0 0 5 5 19 85 92 81 50 37 5 99 80 12 5 0 2
22 91 100 10 5 5 5 5 5 34 5 82 16 5 5 5 5 3 0 4 5 5 5 0 0 0 0 5 57 81 100 56 13 96 94 95 94 6 4 5 5 5 8
97 100 50 5 5 5 5 8 20 44 92 71 66 5 0 2 5 5 5 5 5 3 0 0 0 2 5 63 100 99 100 70 99 100 100 98 40 5 5 5 82 52 92
100 40 28 5 52 37 36 51 78 76 70 8 4 3 5 4 5 5 5 5 5 5 0 0 0 2 5 12 48 100 100 100 100 89 60 99 14 5 44 100 100 100 98
99 72 79 72 84 71 44 95 89 99 44 5 5 5 5 5 5 5 4 5 5 1 0 2 5 5 5 5 8 90 100 98 22 54 21 8 88 65 100 100 100 100 100
87 61 53 90 76 91 100 80 99 28 5 5 5 5 5 5 5 5 4 5 5 5 68 10 5 5 5 100 87 100 29 5 5 5 62 98 100 100 100 100 100 100 100
44 90 80 51 89 100 100 77 9 5 5 5 43 18 5 5 5 5 5 5 65 14 5 17 29 56 86 100 100 83 56 5 2 14 96 86 26 71 99 100 90 100 100
44 38 86 100 100 99 13 5 3 5 30 97 5 5 5 5 5 5 47 5 5 5 19 5 6 100 100 100 100 98 39 4 77 96 5 8 5 30 86 99 100 100 100
88 98 93 100 95 8 5 5 5 70 12 5 5 5 5 5 5 5 5 17 5 83 16 26 25 86 100 100 100 53 37 100 81 6 63 33 68 54 32 89 100 100 100
38 61 100 69 6 3 6 75 92 35 5 5 5 5 70 58 5 5 5 66 80 100 81 63 74 100 100 82 32 98 100 97 7 83 98 100 100 97 96 98 98 100 100
83 96 42 5 6 68 99 74 6 14 5 5 5 56 36 8 5 5 5 46 82 100 84 100 99 74 5 5 48 100 92 18 99 100 100 100 100 97 93 100 58 75 84
63 5 8 77 98 89 80 64 70 32 5 5 5 5 5 5 3 6 57 61 47 80 75 70 5 5 5 5 8 5 5 91 100 100 100 100 100 100 100 91 100 99 100
5 4 68 41 26 57 56 69 16 5 5 5 4 5 5 5 7 92 100 100 100 100 100 5 5 6 36 28 16 25 86 100 100 100 100 100 99 100 96 94 100 99 100
6 5 5 5 5 5 34 5 5 5 5 0 0 4 4 5 20 79 100 100 100 99 59 12 84 100 100 100 100 100 100 100 100 100 100 100 100 100 100 95 100 100 100
5 5 5 5 5 5 5 5 6 5 1 0 0 0 3 5 31 97 100 100 66 35 33 99 100 100 100 100 100 100 100 100 100 100 100 100 100 99 100 100 100 100 100
5 5 5 5 6 5 5 5 5 2 2 3 0 0 0 5 75 100 100 58 12 34 100 100 100 100 100 100 100 100 100 99 100 100 100 100 100 100 100 100 100 100 100
13 56 23 5 5 9 7 5 0 0 0 0 0 0 0 10 93 80 34 22 100 100 100 100 100 100 100 100 100 100 100 100 100 100 100 100 100 100 87 99 100 98 100
13 5 5 5 5 5 5 1 0 0 0 0 0 5 5 70 74 5 16 96 100 100 100 100 100 100 100 100 100 100 100 100 100 100 100 100 100 100 100 99 99 100 88
5 5 8 5 5 5 3 0 0 0 1 5 5 12 97 100 6 81 100 100 100 100 100 100 100 100 100 100 100 100 100 100 100 100 100 100 100 98 94 100 100 100 100
5 6 5 5 5 5 0 0 0 5 5 5 5 7 86 21 90 100 100 100 100 100 100 100 100 100 100 100 100 100 100 100 100 100 100 100 100 100 100 99 97 100 86
5 5 5 5 2 0 0 1 5 5 5 5 10 83 81 88 100 98 100 100 100 100 90 100 100 93 92 100 100 100 100 100 100 100 100 100 99 95 99 100 98 92 88
5 5 5 5 4 5 5 5 5 27 63 30 86 74 95 100 99 100 100 100 100 95 98 99 100 100 100 100 100 100 100 100 100 99 100 100 100 100 99 86 96 81 93
5 5 5 13 32 12 5 7 39 32 74 96 94 100 96 99 100 100 100 100 100 100 88 87 100 99 100 95 100 99 100 100 100 100 100 100 100 100 99 96 89 88 86
6 49 62 32 5 5 29 81 90 94 100 100 100 94 100 100 100 100 100 100 100 100 97 98 96 99 93 100 100 100 100 100 100 100 100 100 95 100 99 97 73 73 62

GFSGL_prec_cloud_039.txt.gz
Cloud_Cover
100 100 98 57 12 5 61 100 100 99 64 11 39 48 14 5 5 5 5 5 5 5 0 0 0 0 0 0 0 0 5 5 5 4 5 5 10 5 85 100 100 99 84
100 90 67 5 5 5 88 100 100 94 56 8 82 58 5 6 5 5 5 5 4 0 0 0 0 0 2 0 0 1 5 5 65 54 5 13 4 67 100 100 91 8 5
100 98 100 68 10 8 71 87 96 66 21 99 88 5 5 5 5 5 5 2 0 0 1 0 1 1 0 0 3 15 18 87 100 100 16 5 86 95 80 11 5 5 28
100 97 100 91 20 42 28 58 65 55 100 98 15 5 32 24 5 5 5 0 0 5 5 5 0 0 0 7 84 100 100 99 76 96 62 100 76 5 5 8 13 5 86
100 100 99 79 68 69 56 21 61 100 99 26 64 37 71 53 10 3 0 4 5 5 5 4 2 5 5 69 100 100 99 94 97 98 100 10 5 5 7 8 99 92 84
88 100 100 53 71 47 52 100 100 100 44 81 85 94 20 5 5 5 5 5 4 5 5 5 5 0 5 88 84 100 100 100 100 100 61 86 14 90 12 100 100 100 100
100 100 56 93 72 100 100 100 92 92 73 99 71 5 5 3 5 5 5 5 5 5 5 5 5 5 5 5 19 95 92 100 73 63 80 57 92 15 100 100 98 100 100
99 88 100 100 100 96 78 85 98 90 95 9 5 1 4 5 5 5 5 5 5 5 5 3 5 5 5 100 98 92 65 5 57 69 95 78 100 100 100 99 94 100 100
100 95 100 99 100 100 99 98 100 28 5 5 5 5 44 76 5 5 5 5 5 5 4 5 5 89 100 100 100 61 99 70 3 12 91 97 33 42 98 100 81 100 100
73 86 100 100 98 100 100 38 5 5 5 5 17 72 57 5 5 5 5 5 68 44 69 76 39 100 100 100 100 96 90 5 71 100 5 5 5 8 96 99 100 100 100
100 100 81 88 100 94 14 5 5 5 27 81 96 32 5 5 5 4 5 26 93 97 72 60 72 86 100 100 100 87 76 100 94 8 8 25 73 99 95 86 99 100 100
99 100 96 100 91 9 34 9 7 67 66 32 34 39 5 5 4 1 7 73 89 91 94 70 21 100 96 85 29 87 100 100 35 94 98 97 100 97 96 92 98 99 100
100 97 100 61 42 7 5 5 51 15 5 5 5 5 5 5 3 1 5 30 64 100 56 90 98 69 5 5 18 97 95 82 100 100 100 100 100 100 100 100 92 98 100
100 100 54 34 5 5 5 5 5 5 5 5 5 5 5 5 5 6 48 17 27 89 45 85 8 5 5 5 5 8 73 99 100 100 100 100 100 100 100 100 100 100 100
85 96 44 5 5 5 5 5 5 5 5 5 5 5 5 5 7 84 99 95 100 96 100 36 5 6 26 26 52 68 99 99 99 100 100 100 100 100 99 100 100 100 100
10 5 5 5 5 5 5 5 5 5 5 5 1 3 4 5 56 89 100 100 100 100 78 5 39 93 99 99 100 99 99 100 100 100 100 100 100 100 100 95 99 100 100
5 5 5 5 4 5 5 5 5 5 5 5 0 0 5 5 63 100 100 100 93 10 14 87 100 100 100 100 100 100 100 100 100 100 100 100 100 100 100 100 100 100 100
5 5 5 5 5 5 5 5 5 5 5 5 0 0 2 5 77 99 100 71 6 26 95 100 100 100 100 100 100 100 100 100 100 100 100 100 100 100 100 100 99 100 100
5 5 5 5 5 5 5 5 5 2 0 0 0 0 4 13 92 60 37 69 100 100 100 100 100 100 100 100 100 100 100 100 100 100 100 100 100 100 99 100 100 96 100
5 5 5 5 5 5 5 5 4 4 5 4 4 5 16 90 88 5 42 100 100 100 100 100 100 100 100 100 100 100 100 100 100 100 100 100 100 100 100 100 100 100 98
6 35 53 28 5 5 5 5 5 5 5 5 5 8 90 97 6 87 94 100 100 100 100 100 100 100 100 100 100 100 100 100 100 100 100 100 100 100 100 100 100 100 100
63 38 7 5 5 4 5 5 5 5 5 7 10 5 34 8 80 100 100 92 99 100 100 100 100 100 100 100 100 100 100 100 100 100 100 100 100 100 100 100 98 100 100
61 17 5 5 5 5 5 5 14 5 40 57 5 5 5 62 95 86 93 90 100 100 99 100 100 99 96 100 100 100 100 100 100 100 100 100 100 100 100 100 100 88 83
5 5 5 5 5 5 5 6 5 21 70 8 42 40 76 86 94 88 98 100 100 100 100 100 100 100 100 100 100 100 100 100 100 100 100 100 100 100 100 100 97 77 96
5 5 5 5 5 5 5 11 65 62 70 85 86 98 88 95 100 100 100 100 100 100 100 93 100 99 100 99 100 100 100 100 100 100 100 100 100 100 100 99 76 54 97
5 5 5 5 5 5 43 75 92 96 98 100 100 100 100 100 100 100 100 100 100 100 92 93 92 99 98 100 92 100 100 100 100 100 100 100 100 100 100 87 54 6 99

GFSGL_prec_cloud_042.txt.gz
Cloud_Cover
5 4 10 99 100 100 100 100 51 20 5 5 10 21 68 64 44 69 62 43 8 30 5 5 5 5 3 0 0 0 0 0 0 0 3 5 57 96 70 100 100 71 5
5 16 50 100 100 100 100 95 88 89 5 5 5 84 90 61 83 72 22 24 5 10 5 5 2 5 0 0 0 0 0 5 51 5 12 41 82 93 100 100 100 8 5
5 38 100 100 100 98 100 100 74 34 5 5 16 88 63 98 82 5 10 45 51 9 5 4 1 2 0 0 0 5 34 78 96 100 49 30 77 97 100 56 44 20 96
91 100 100 100 100 100 100 100 77 9 5 16 50 75 99 60 5 30 73 65 9 5 2 5 1 0 0 5 5 43 92 100 98 98 29 50 87 61 18 19 88 35 100
100 100 100 99 96 100 100 100 86 66 68 56 89 100 41 58 85 67 24 5 4 5 5 0 2 1 5 6 82 99 100 99 92 77 97 100 17 5 30 45 93 96 90
100 100 100 100 95 100 100 87 100 100 100 100 100 24 77 88 58 2 2 2 5 5 5 5 5 5 17 78 100 100 100 100 98 100 97 54 90 98 96 100 98 100 100
100 100 100 100 99 95 100 98 100 100 100 80 60 91 98 13 4 5 5 5 5 5 5 4 5 5 80 96 100 100 100 100 100 100 100 100 99 100 100 90 92 86 100
97 100 98 68 79 100 100 100 100 100 98 92 99 57 5 5 5 5 5 5 5 5 2 5 34 72 91 100 100 77 100 88 100 100 98 100 100 100 100 100 99 87 100
72 81 100 100 100 100 100 100 100 100 98 58 5 5 5 5 5 5 5 5 2 5 5 44 79 100 100 100 99 67 99 99 88 86 98 100 100 98 100 100 84 100 90
100 100 100 100 100 100 100 100 100 97 60 9 5 13 12 5 5 5 5 0 5 5 10 54 80 100 100 100 100 100 99 84 44 51 100 81 96 93 100 100 100 100 100
100 100 100 100 100 100 100 100 96 40 29 66 16 5 5 5 4 0 5 5 5 45 63 71 99 100 100 100 100 96 98 100 99 100 100 98 100 100 96 99 100 100 100
100 100 100 100 100 100 100 70 77 90 30 5 5 5 5 0 0 2 5 42 75 88 94 100 94 100 86 73 35 47 100 100 100 98 98 97 96 90 86 93 90 100 100
100 100 100 100 100 70 68 67 41 5 5 5 5 2 5 4 5 5 5 61 65 89 100 100 100 70 29 5 10 99 97 99 100 100 100 100 93 95 100 99 93 100 99
100 100 99 85 77 62 12 5 5 5 5 0 0 0 4 5 5 5 18 86 98 100 100 88 51 32 5 5 12 40 96 100 100 100 100 100 100 100 100 100 100 100 100
100 100 94 64 23 8 5 5 5 0 0 0 4 5 5 5 5 36 86 96 100 100 100 48 5 5 25 70 96 98 98 100 100 100 100 100 100 100 100 100 100 100 100
86 64 46 62 52 6 5 1 1 4 5 5 5 5 5 5 16 92 100 100 100 92 68 5 31 86 98 96 99 99 96 100 100 100 100 100 100 100 100 83 99 100 100
65 51 27 5 5 2 5 5 5 5 5 5 5 5 5 5 69 100 100 96 75 48 14 91 100 100 100 100 100 100 100 100 100 100 100 100 100 99 100 100 100 100 100
19 5 5 5 5 5 5 6 22 6 5 5 2 0 5 5 80 100 98 19 5 41 100 100 100 100 100 100 100 100 100 100 100 100 100 100 100 100 100 100 100 100 100
5 5 5 5 5 5 8 7 5 5 5 4 0 5 5 5 58 48 11 30 94 100 100 100 100 100 100 100 100 100 100 100 100 100 100 100 100 100 99 100 100 98 100
5 5 5 5 9 7 9 16 5 5 2 0 0 5 5 6 9 5 33 98 100 100 100 100 100 100 100 100 100 100 100 100 100 100 100 100 100 100 100 100 100 100 96
5 5 5 6 13 5 5 5 5 0 0 4 5 5 20 91 5 73 100 100 100 100 100 100 100 100 100 100 100 100 100 100 100 100 100 100 100 100 100 100 100 100 100
5 5 7 17 6 5 5 1 0 4 5 5 5 5 5 5 31 100 100 100 100 100 100 100 100 99 100 100 100 100 100 100 100 100 100 100 100 100 100 100 100 100 100
17 5 7 6 5 5 2 0 5 5 5 5 5 5 5 5 79 99 100 100 100 100 100 100 100 98 100 100 100 100 100 100 100 100 100 100 100 100 100 100 98 100 88
47 39 5 5 5 0 0 5 5 5 5 5 5 5 34 71 99 100 100 99 100 100 100 100 100 100 100 100 100 100 100 100 100 100 100 100 100 100 100 99 98 85 82
6 5 5 3 0 0 5 5 5 6 8 56 74 86 92 93 99 100 100 100 100 100 94 100 100 100 100 98 100 100 100 100 100 100 100 100 100 100 100 92 100 71 66
5 5 1 0 1 5 8 37 66 78 96 100 100 100 100 100 100 100 100 100 100 98 100 100 100 100 100 100 100 100 100 100 100 100 100 96 100 100 100 98 91 97 91

GFSGL_prec_cloud_045.txt.gz
Cloud_Cover
95 80 8 5 56 100 100 100 100 98 100 100 88 55 71 7 5 5 5 5 47 41 5 21 5 5 5 5 0 1 0 0 0 0 0 4 5 5 5 5 5 5 4
91 98 5 29 90 100 100 100 100 76 100 100 100 87 69 5 5 5 5 72 51 31 13 5 5 5 5 0 0 0 0 0 4 5 5 5 5 5 9 85 43 5 1
100 77 28 100 100 100 100 100 100 100 98 100 100 97 27 56 43 39 85 60 48 11 5 5 4 0 0 0 0 0 2 5 5 5 5 5 5 87 78 68 3 5 5
99 74 100 100 100 100 100 90 98 95 91 86 100 78 67 68 88 85 66 72 22 5 5 2 1 5 0 0 2 5 5 5 39 45 5 5 62 94 30 5 22 5 5
76 98 98 100 100 100 100 87 69 90 100 100 100 100 95 100 89 81 78 63 23 5 5 4 5 3 2 4 34 18 54 72 38 88 98 100 93 5 35 25 38 72 5
97 95 100 100 98 92 23 52 82 92 100 100 100 100 100 100 83 92 88 5 5 5 5 5 5 3 0 6 66 96 100 100 98 100 100 100 60 5 5 61 17 99 97
100 100 100 100 68 62 76 82 100 100 100 100 100 100 100 100 99 59 13 5 5 5 5 4 0 4 5 5 54 96 96 88 100 100 100 99 79 9 52 17 100 97 98
100 100 100 100 80 94 100 100 100 100 100 100 100 100 100 100 61 67 7 5 5 5 0 0 5 5 9 80 70 58 100 94 90 99 100 76 5 84 100 100 97 34 21
100 100 100 100 100 98 100 100 100 100 100 100 100 100 100 100 97 98 12 5 4 2 5 0 5 26 51 99 100 72 76 10 15 67 43 58 100 100 99 100 49 90 90
100 100 100 100 100 100 100 100 100 100 100 100 100 100 100 100 80 22 5 5 5 1 1 4 5 63 97 100 100 96 8 5 5 23 5 6 45 5 99 100 100 100 100
100 98 86 99 100 100 100 100 100 100 100 100 100 100 98 21 5 8 5 5 5 5 5 5 5 87 100 100 100 54 29 100 82 63 5 5 5 56 96 99 100 100 100
89 100 100 100 100 100 100 100 100 100 100 100 100 47 27 33 38 9 5 5 28 74 34 22 40 100 100 83 64 69 100 100 30 79 62 66 98 100 93 100 99 100 100
100 100 100 100 100 100 100 100 100 100 100 98 98 90 40 5 5 4 0 14 60 51 48 90 100 82 64 6 17 99 99 36 79 53 90 79 77 66 70 81 96 97 100
100 100 100 100 100 100 100 100 100 100 100 100 71 9 5 5 1 2 4 5 6 34 26 21 67 31 5 5 14 5 5 41 100 94 81 77 89 100 99 100 100 95 100
100 100 100 100 100 100 100 100 100 95 39 8 5 4 5 5 5 10 39 29 82 100 100 11 5 5 5 5 5 5 5 64 76 84 100 98 98 100 100 100 100 100 100
100 100 100 100 100 100 100 66 5 5 5 5 5 5 5 5 16 66 87 99 100 96 60 5 5 5 5 7 74 91 100 100 100 100 100 100 100 100 100 97 99 100 100
100 100 100 100 100 96 29 6 5 5 5 5 5 5 5 5 22 82 89 82 65 23 5 5 38 60 80 99 95 99 99 100 100 100 100 100 100 100 100 100 100 100 100
100 100 99 57 5 5 5 5 5 5 5 5 5 5 4 5 26 87 81 12 5 5 57 75 69 60 86 100 96 100 100 100 100 100 100 100 100 100 100 100 100 100 100
95 60 29 5 5 5 5 5 5 5 5 5 5 0 0 2 6 41 36 13 35 57 70 24 6 74 95 82 100 100 100 100 100 100 100 100 100 100 89 100 100 98 100
23 5 5 5 5 5 5 5 5 5 5 4 0 0 1 5 5 5 5 5 55 59 55 80 68 83 89 100 100 100 100 100 100 100 100 100 100 100 100 100 100 100 98
5 5 5 5 7 30 7 5 5 5 0 0 0 1 18 46 5 5 5 49 86 92 89 80 76 98 100 100 100 100 100 100 100 100 100 100 100 100 100 100 100 100 100
5 5 9 29 7 5 5 5 0 0 0 5 5 4 5 5 5 5 36 80 99 99 100 84 94 100 100 100 100 100 100 100 100 100 100 100 100 100 100 99 90 100 97
13 43 13 5 5 5 0 0 0 0 4 5 5 5 5 5 5 5 69 98 99 87 94 98 100 99 100 100 100 100 100 100 100 100 100 100 100 100 100 100 100 83 97
41 6 5 5 5 0 0 0 0 5 5 5 5 5 5 5 5 68 100 92 80 93 100 100 100 100 100 98 100 100 100 100 100 100 100 100 100 100 91 79 94 100 100
5 5 5 5 0 0 0 2 5 5 7 54 83 82 75 74 59 89 100 92 96 100 91 100 100 100 95 100 99 98 100 100 100 100 100 100 100 100 95 97 100 100 100
5 5 1 0 0 0 5 5 58 62 66 92 100 100 100 100 85 97 98 95 98 93 96 98 99 100 100 98 100 100 100 100 100 97 98 80 77 100 100 96 98 81 68

GFSGL_prec_cloud_048.txt.gz
Cloud_Cover
28 98 83 5 5 5 59 100 100 100 100 100 100 100 100 99 100 100 98 100 98 82 56 53 26 29 5 5 5 5 4 0 0 0 0 4 5 5 3 5 0 4 5
100 100 29 2 5 31 100 100 100 100 100 100 61 81 88 100 90 100 100 100 97 79 49 44 32 5 5 5 5 2 0 0 0 5 5 5 5 3 2 5 5 5 5
99 29 4 2 68 100 100 100 100 100 100 100 100 79 100 94 86 91 100 100 100 99 68 42 5 5 5 5 5 0 0 0 3 5 5 5 5 5 5 5 5 0 5
4 5 70 86 100 100 100 100 100 100 100 100 100 100 100 100 100 100 100 100 100 100 100 75 19 5 5 5 5 2 5 5 5 5 17 36 89 81 19 49 5 5 4
5 32 100 100 100 100 100 100 100 100 100 100 100 100 100 100 100 100 100 100 100 100 100 97 54 6 5 5 5 5 19 72 51 83 97 90 100 98 85 57 34 5 4
10 100 100 100 100 100 100 100 100 100 100 100 100 100 100 100 99 98 100 100 100 100 100 100 60 6 5 5 5 37 86 99 100 100 93 100 95 8 100 96 5 13 94
100 100 100 100 100 100 100 100 100 100 100 100 99 100 100 100 99 100 100 100 100 100 100 88 32 5 5 4 5 47 29 36 65 99 56 34 59 22 100 66 40 100 96
100 100 100 100 100 100 100 100 100 99 100 98 100 100 100 100 100 100 100 95 100 100 100 78 6 5 5 22 9 70 70 5 5 55 100 99 100 94 100 100 99 94 22
100 100 100 100 100 100 100 100 100 100 92 100 100 100 100 100 100 96 100 100 100 100 14 5 4 4 5 78 92 76 5 5 5 5 60 98 100 96 100 100 53 98 84
100 100 100 100 100 100 100 100 100 100 100 100 100 100 100 100 100 100 100 99 47 5 5 5 4 22 79 100 100 84 87 5 5 31 5 4 5 5 5 34 93 100 100
100 100 100 100 100 100 100 100 100 100 100 100 100 100 100 100 100 100 64 5 5 5 5 5 5 50 100 100 100 83 32 98 92 9 5 5 5 5 5 5 89 100 100
100 100 100 100 100 100 98 100 100 100 100 100 100 100 100 100 100 54 5 5 5 7 5 5 5 68 100 77 66 27 99 100 16 5 5 5 71 80 66 73 51 37 50
100 100 100 100 100 100 100 100 100 100 100 100 100 100 99 13 5 5 5 4 5 5 5 46 99 89 34 26 5 75 83 5 5 33 87 91 70 67 85 95 28 67 70
100 100 100 100 100 100 100 100 100 100 100 100 90 12 5 5 5 5 5 5 5 5 11 79 22 5 4 4 4 5 5 5 95 83 81 96 99 100 94 89 100 94 100
100 100 100 100 100 100 100 100 100 100 75 9 5 5 5 5 5 45 73 80 91 100 98 5 3 5 4 5 5 5 5 9 90 82 100 100 100 100 91 85 100 100 100
100 100 100 100 100 100 100 100 49 6 5 5 5 5 5 5 37 41 79 88 87 86 38 5 5 5 5 5 5 5 6 78 99 100 100 100 100 100 100 98 98 100 100
100 100 100 100 100 99 32 6 13 23 5 5 5 5 5 5 18 69 86 76 47 9 5 5 5 5 5 5 5 48 99 98 100 100 100 100 100 100 100 100 100 100 97
100 100 95 90 68 21 14 11 5 5 5 5 6 5 3 4 5 56 68 12 3 5 5 5 5 5 5 42 79 100 99 100 100 100 100 100 100 100 99 100 100 100 100
100 66 80 55 7 19 6 5 5 5 5 5 4 0 0 0 5 11 5 5 5 5 5 5 5 5 24 79 100 100 100 100 100 100 100 100 100 100 91 99 100 98 100
70 50 15 11 25 10 6 7 5 5 5 2 0 0 0 5 5 0 2 5 5 5 5 5 5 54 84 99 100 100 100 100 100 100 100 100 100 100 100 100 100 100 100
79 39 17 5 5 5 5 5 5 3 0 0 0 1 7 33 0 5 5 5 5 6 34 68 91 100 99 100 100 100 100 100 100 100 100 100 100 100 100 100 100 100 100
43 5 5 5 5 5 5 5 3 0 0 0 0 0 5 3 5 5 5 5 5 62 84 90 99 100 100 100 100 100 100 100 98 100 100 100 100 100 99 100 98 99 100
44 30 13 5 5 5 5 2 0 0 0 0 3 5 5 5 5 5 5 5 5 7 64 100 100 94 91 100 100 100 100 98 100 100 100 100 100 100 100 100 100 100 100
7 5 5 5 5 5 0 1 0 1 5 5 5 5 5 5 5 5 5 5 5 22 81 100 100 98 93 97 100 100 100 100 100 100 100 100 100 100 100 98 100 100 100
5 5 5 5 4 0 0 0 5 5 5 5 8 32 6 5 5 5 5 35 53 91 97 88 100 92 97 94 100 92 100 100 100 100 100 100 100 100 100 99 98 100 100
5 5 5 5 5 0 2 20 6 32 18 11 9 22 5 5 5 5 9 43 81 98 92 94 93 100 90 91 100 100 100 100 100 100 100 100 100 100 100 100 98 95 100

GFSGL_prec_cloud_051.txt.gz
Cloud_Cover
0 0 0 0 5 3 7 5 43 100 100 100 100 100 100 100 100 96 100 81 100 76 96 100 90 100 100 100 100 97 76 7 5 9 4 0 0 0 0 0 0 0 2
0 0 1 5 5 0 15 5 92 100 100 100 100 100 100 100 100 100 100 100 81 99 94 83 100 98 100 91 97 100 96 42 5 5 4 1 4 5 5 5 5 5 5
100 42 31 54 40 97 82 91 100 100 100 100 100 100 100 100 100 100 100 51 93 100 81 86 70 80 83 42 38 35 41 5 5 5 5 5 5 5 5 5 5 5 5
20 100 94 100 100 100 99 100 100 100 100 100 100 100 100 100 100 100 100 69 91 100 90 73 94 72 82 19 5 5 5 5 5 5 32 5 13 32 13 74 12 5 5
99 83 100 100 100 99 100 100 100 100 100 100 100 100 100 100 100 100 65 94 100 98 98 82 79 100 88 5 14 5 5 5 6 91 82 51 88 94 80 8 58 5 5
100 100 100 100 100 100 100 100 100 100 100 100 100 100 100 100 100 88 88 100 98 100 100 99 100 100 96 56 5 5 41 64 100 100 99 98 91 33 5 79 5 5 82
100 100 100 46 100 100 100 100 100 100 100 100 100 100 100 98 78 92 100 100 100 100 100 100 100 100 99 83 56 5 38 46 92 73 16 8 72 25 10 20 60 100 98
100 100 93 100 100 100 100 100 100 100 100 100 100 100 100 99 99 94 100 100 100 100 100 100 100 100 100 72 22 99 88 19 5 29 75 87 73 85 100 100 96 91 12
100 100 100 100 100 100 100 100 100 100 100 100 100 100 99 100 100 100 100 100 100 100 100 100 100 61 5 23 98 75 85 5 5 5 11 82 96 68 65 99 12 90 86
100 100 100 100 100 100 100 100 100 100 100 100 100 100 100 100 100 100 100 100 100 100 99 38 5 5 57 92 100 100 85 17 7 29 5 3 1 3 5 5 75 100 100
100 100 100 100 100 100 100 100 100 100 91 99 100 100 100 100 100 100 97 90 72 37 5 5 12 8 98 100 100 79 18 97 68 6 4 0 2 5 5 5 58 100 100
100 100 100 100 100 100 100 100 100 100 100 100 99 100 100 100 100 83 74 11 5 5 15 10 15 93 100 88 52 21 86 91 6 5 5 5 35 32 5 5 42 86 85
100 100 100 100 100 100 100 100 100 100 100 100 100 100 100 31 38 26 8 5 6 5 14 81 100 100 11 4 4 8 17 5 5 5 73 71 61 76 78 92 9 71 68
100 100 100 100 100 100 100 100 100 100 100 100 100 84 22 22 57 6 5 5 5 5 28 99 25 3 4 4 2 4 5 5 76 89 87 81 99 98 100 97 100 100 100
100 100 100 100 100 100 100 100 100 100 100 82 31 56 59 12 5 37 41 44 95 99 83 5 0 2 5 5 5 5 5 8 76 86 100 100 99 100 100 90 100 100 100
100 100 100 100 100 100 100 100 100 97 32 47 62 19 5 5 13 49 67 96 87 76 4 3 5 5 5 5 5 5 21 85 100 100 100 100 100 100 100 98 100 100 100
99 76 93 98 100 100 100 82 14 46 58 68 12 8 8 5 5 74 74 72 6 5 5 5 5 5 5 5 43 77 100 97 100 100 100 100 100 100 100 100 99 100 100
100 100 100 100 100 64 17 23 58 73 24 5 5 5 5 3 55 65 31 1 3 5 5 5 5 5 33 85 99 100 100 100 100 100 100 100 100 100 99 100 99 100 99
83 48 42 9 12 35 26 31 5 5 8 37 8 3 0 4 9 2 5 3 5 5 5 9 5 24 91 100 100 100 100 100 100 100 98 100 100 100 90 98 100 97 100
96 57 12 18 8 5 5 11 37 50 20 4 0 0 1 5 4 0 1 5 5 5 5 42 61 99 100 100 100 100 100 100 100 100 100 100 100 100 100 100 100 100 95
100 77 69 47 5 30 25 5 5 5 0 0 0 1 26 38 5 5 5 5 5 5 18 91 100 100 97 100 100 100 100 100 100 100 100 100 100 100 100 100 100 99 100
71 34 18 7 5 5 5 5 4 0 0 0 0 0 5 5 5 5 5 5 5 5 61 95 100 100 100 100 100 100 100 100 100 100 99 100 100 99 97 100 96 100 100
28 6 5 5 5 5 5 4 0 0 1 4 5 5 5 5 5 5 5 5 5 6 61 100 100 97 86 100 99 100 100 95 100 100 100 100 100 100 99 100 96 100 100
27 5 5 5 5 5 5 0 0 5 5 5 5 5 5 5 5 5 5 5 5 58 78 100 100 99 89 93 100 100 100 100 100 100 100 100 100 100 97 85 98 89 100
6 21 5 5 5 5 3 5 5 6 6 5 6 46 5 5 37 36 5 5 40 84 98 95 100 94 90 90 100 100 100 100 100 100 100 100 100 100 93 100 95 94 100
22 5 5 5 5 5 6 24 59 68 52 5 30 33 7 66 60 50 37 68 81 85 83 93 81 76 92 99 100 100 100 100 100 100 100 100 100 98 99 100 95 89 100

GFSGL_prec_cloud_054.txt.gz
Cloud_Cover
0 0 0 12 7 0 0 1 5 4 46 100 100 100 100 100 100 100 100 100 98 100 100 100 100 88 92 66 6 5 5 5 4 5 5 5 18 5 5 5 5 5 5
0 3 0 0 22 21 45 64 100 100 100 100 100 100 100 100 100 100 100 100 100 100 100 100 100 99 66 69 5 5 5 5 5 4 5 5 5 5 2 0 1 5 5
1 0 2 25 47 56 26 50 67 99 100 100 100 100 100 100 100 100 100 100 100 100 95 100 99 77 73 14 60 5 10 35 38 6 5 5 13 24 5 5 5 5 5
100 68 7 38 36 71 60 76 100 100 100 100 100 100 100 100 100 100 100 100 100 100 100 100 100 67 95 82 67 93 68 96 93 42 66 93 15 5 5 5 20 5 5
100 87 98 56 26 82 100 100 100 100 100 100 100 100 100 100 100 100 100 100 100 100 100 100 91 72 76 83 57 69 78 100 100 100 100 23 18 25 5 5 24 5 5
100 100 100 100 100 100 100 100 100 100 100 100 100 100 100 100 100 100 100 100 95 72 95 96 68 50 38 58 54 91 100 100 100 100 88 64 13 5 5 16 65 79 93
100 100 100 100 91 100 100 100 100 100 100 100 100 100 100 100 100 100 96 100 100 100 95 23 62 62 69 77 100 100 100 100 85 93 96 15 5 5 45 76 82 100 100
100 100 100 100 100 100 100 100 100 100 100 100 100 100 100 100 100 100 100 100 96 44 43 57 69 81 100 100 100 100 41 21 40 8 5 38 82 90 100 100 87 70 16
100 100 100 100 100 100 100 100 100 100 100 100 100 100 100 100 100 100 84 70 96 100 88 96 100 100 100 94 89 99 94 18 34 5 6 76 80 63 33 87 12 90 92
100 100 100 100 100 100 100 100 100 100 100 100 100 100 100 100 95 38 98 99 96 99 89 34 15 5 13 96 100 100 73 19 15 62 5 4 0 0 5 5 25 100 100
100 100 100 100 100 100 100 100 100 100 100 100 100 100 100 100 100 100 97 100 92 83 15 5 7 40 99 100 99 67 6 88 85 6 2 0 2 5 5 5 7 100 100
100 100 100 100 100 100 100 100 100 100 100 100 76 100 100 100 100 69 81 40 5 26 18 26 87 100 93 42 22 5 85 91 6 5 5 5 21 5 5 30 97 100 100
100 100 100 100 93 100 100 100 95 95 84 100 100 100 100 100 100 71 6 28 59 27 5 80 76 72 9 3 4 38 16 5 5 5 72 78 68 86 75 100 100 100 77
100 100 96 95 89 100 100 100 100 100 100 100 100 100 100 85 57 77 48 5 5 5 10 5 5 1 4 5 2 5 5 5 74 76 78 96 98 100 100 95 100 98 100
100 100 100 100 100 100 100 100 100 100 100 100 80 46 30 82 76 60 45 7 38 26 10 2 1 4 5 5 5 5 5 9 64 82 100 100 100 100 100 82 100 100 100
100 100 100 100 100 100 100 100 96 67 46 8 5 43 22 6 48 65 73 70 80 65 4 5 5 5 5 5 7 39 64 80 96 100 99 100 100 100 100 96 100 100 100
66 89 100 100 65 50 40 11 5 5 5 7 31 31 5 5 20 78 39 58 5 15 5 5 5 5 15 65 92 100 100 94 91 100 100 100 100 100 100 100 100 100 97
93 65 29 14 5 5 5 5 30 70 68 63 29 5 5 5 73 54 5 1 3 5 5 5 52 57 89 100 100 100 100 100 100 100 100 100 100 100 100 100 99 100 100
26 7 5 5 5 6 22 63 77 58 7 5 5 5 3 5 8 2 5 2 5 5 5 28 32 76 100 100 100 98 100 100 100 100 100 100 99 100 89 99 100 96 100
32 8 5 5 5 43 69 50 29 5 5 5 5 5 3 5 5 4 5 5 5 5 5 66 84 100 100 100 100 100 100 100 100 100 97 98 100 100 100 100 100 100 100
47 8 5 5 24 58 5 26 6 5 5 5 1 1 66 44 5 5 5 5 5 5 42 94 100 100 100 100 96 99 100 100 100 100 96 100 100 100 99 99 97 100 100
35 14 5 10 10 5 5 5 5 5 5 4 1 1 8 5 5 5 5 5 5 5 64 92 100 100 100 99 97 100 100 100 98 100 100 100 100 100 97 100 100 100 100
5 5 14 28 5 5 5 5 5 5 5 5 5 5 5 5 5 5 5 5 5 7 29 79 100 99 83 94 100 100 100 91 100 100 100 100 100 100 100 100 100 100 100
33 37 13 5 5 5 5 5 5 5 5 5 5 5 5 5 5 5 5 5 49 51 52 77 100 92 87 96 100 100 100 100 100 100 100 100 100 98 100 100 100 100 100
86 24 24 17 18 11 5 5 5 6 6 5 5 5 5 5 11 43 46 30 64 70 62 69 97 84 88 99 100 100 100 100 100 100 100 100 100 100 100 100 100 100 100
100 61 54 30 5 7 10 28 46 69 66 29 30 47 42 62 57 60 56 68 64 36 56 81 82 85 90 99 100 100 100 100 100 100 100 100 100 100 100 100 100 100 100

GFSGL_prec_cloud_057.txt.gz
Cloud_Cover
2 4 25 46 33 19 15 5 5 5 5 4 2 10 90 100 100 100 100 100 100 100 100 100 100 100 92 100 75 72 100 99 22 5 5 5 11 5 4 4 4 5 4
5 18 48 64 45 31 38 41 23 21 18 29 55 90 100 100 100 100 100 100 100 100 100 100 100 100 100 100 97 100 99 97 34 5 5 5 5 5 5 5 5 9 21
27 64 47 58 64 88 100 100 100 100 83 73 99 100 100 100 100 100 100 100 100 100 100 100 100 100 100 97 100 100 100 100 100 64 7 7 5 5 5 5 5 5 5
100 100 88 100 100 100 100 100 100 100 100 100 100 100 100 100 100 100 100 100 100 100 100 100 100 100 100 100 100 100 93 100 79 39 6 14 5 5 7 6 8 5 5
100 100 100 100 100 100 100 100 100 100 100 100 100 100 100 100 100 100 100 100 100 100 100 100 100 100 100 100 100 100 95 52 98 97 90 28 65 5 10 5 10 5 5
100 100 100 100 100 100 100 100 100 100 100 100 100 100 100 100 100 100 100 100 100 100 100 100 100 100 99 100 90 24 97 99 73 74 61 57 37 5 5 5 29 92 99
100 100 100 100 100 100 100 100 100 100 100 100 100 100 100 100 100 100 100 100 100 100 100 100 100 100 76 63 96 100 71 99 61 76 54 5 5 5 8 27 97 97 100
100 100 100 100 100 100 100 100 100 100 100 100 100 100 100 100 100 100 100 100 100 100 100 98 96 62 100 100 100 99 18 19 5 11 5 25 65 87 100 100 99 73 33
100 100 100 100 100 100 100 100 100 100 100 100 100 100 100 100 100 100 100 100 100 100 100 97 100 100 100 94 8 82 88 5 5 5 5 32 38 44 23 46 8 94 96
100 100 100 100 100 100 100 100 100 100 100 100 100 100 100 100 100 100 100 100 100 98 99 99 100 72 46 83 98 87 8 5 14 13 5 3 0 0 5 5 5 100 100
100 100 100 100 100 100 100 100 100 100 100 100 100 100 100 100 100 97 100 100 82 74 95 97 7 16 96 98 94 46 6 76 72 5 0 2 5 5 5 5 6 96 100
100 100 100 100 100 100 100 100 100 100 99 100 100 100 100 100 100 100 100 100 100 100 70 36 34 84 67 38 5 10 87 90 6 5 5 5 5 5 5 5 14 85 93
100 100 100 100 100 100 100 100 100 100 100 91 87 72 99 100 100 100 100 100 99 63 42 64 16 7 5 3 5 33 20 5 5 5 68 63 49 63 13 91 64 79 75
100 100 100 100 100 100 100 100 100 100 100 100 100 100 100 100 100 98 60 30 12 15 8 5 4 0 4 5 5 5 5 5 64 72 75 96 100 100 100 92 100 100 100
100 100 100 100 100 100 100 100 100 100 100 100 95 84 94 93 84 71 74 82 93 25 12 1 1 5 5 5 5 5 5 8 73 86 100 98 98 100 97 75 100 100 100
100 100 100 100 100 95 82 100 80 68 64 58 85 92 78 36 89 78 79 81 66 26 4 5 5 5 5 21 59 60 60 69 81 100 100 100 100 100 100 93 100 100 100
94 100 76 76 94 100 96 53 7 15 56 59 42 6 5 17 49 71 67 64 5 5 5 5 47 37 64 90 100 100 100 96 86 100 100 100 100 100 100 100 100 100 100
97 93 100 100 85 37 5 10 5 5 5 5 13 6 20 51 93 17 5 1 2 3 10 37 64 62 91 100 100 100 100 100 100 100 100 98 100 100 97 94 100 100 100
58 74 78 46 59 10 5 10 52 17 32 23 5 14 5 36 11 4 5 4 5 5 5 24 6 73 100 100 100 100 100 100 99 100 100 100 100 100 91 100 100 98 100
59 29 5 6 29 49 14 5 5 5 5 5 5 5 8 5 5 5 5 5 5 5 5 45 65 99 100 100 100 100 100 100 99 100 91 100 100 100 100 100 100 100 100
35 12 5 14 58 49 5 5 5 5 5 5 5 5 57 27 5 5 5 5 5 6 36 74 100 100 100 100 100 100 100 100 100 99 97 100 100 100 100 92 100 96 100
10 17 15 42 31 7 5 5 5 15 5 5 5 5 20 5 5 5 5 5 5 5 57 87 100 100 97 99 96 100 100 100 89 93 100 100 100 100 100 100 100 98 100
24 29 6 5 5 5 5 5 5 5 5 5 5 5 5 5 5 9 13 5 5 5 70 93 98 94 87 94 99 100 100 92 100 100 100 100 100 100 100 100 100 100 100
30 6 5 5 5 5 5 5 5 5 5 5 5 5 5 5 5 5 5 5 5 5 65 80 98 90 86 90 97 100 100 100 100 99 100 100 100 100 100 100 100 100 100
6 5 5 5 5 5 5 5 5 6 6 5 5 5 5 5 10 5 14 30 38 58 38 44 73 84 82 83 100 100 100 100 100 100 100 100 100 100 100 100 100 100 95
6 5 5 5 5 7 7 23 41 69 61 13 42 60 17 42 16 55 44 54 59 32 5 51 70 67 78 87 97 98 100 100 100 100 100 100 100 100 100 100 100 100 86

GFSGL_prec_cloud_060.txt.gz
Cloud_Cover
5 5 4 15 41 48 50 55 51 52 94 100 100 100 100 100 100 100 100 100 100 100 100 100 100 100 100 100 100 100 100 100 100 77 100 100 100 100 100 78 32 11 5
8 22 87 100 100 100 100 100 97 100 100 100 100 100 100 100 100 100 100 100 100 100 100 100 100 100 100 100 100 100 100 100 93 96 93 100 100 100 62 12 7 5 11
5 12 100 100 100 100 100 100 100 100 100 100 100 100 100 100 100 100 100 100 100 100 100 100 100 100 100 100 100 100 100 100 83 93 100 100 57 27 17 5 5 5 5
5 6 68 100 100 100 100 100 100 100 100 100 100 100 100 100 100 100 100 100 100 100 100 100 100 100 100 100 100 100 100 100 100 100 99 55 7 5 5 7 5 5 5
5 5 91 100 100 100 100 100 100 100 100 100 100 100 100 100 100 100 100 100 100 100 100 100 100 100 100 100 100 100 100 100 100 100 34 79 88 5 9 5 7 5 24
28 20 100 100 100 100 100 100 100 100 100 100 100 100 100 100 100 100 100 100 100 100 100 100 100 100 100 100 100 100 100 100 100 100 100 83 54 7 30 5 5 78 92
100 100 100 100 100 100 100 100 100 100 100 100 100 100 100 100 100 100 100 100 100 100 100 100 100 100 100 98 97 100 100 100 91 82 88 35 31 11 8 34 95 98 96
100 100 100 100 100 100 100 100 100 100 100 100 100 100 100 100 100 100 100 100 100 100 100 100 100 100 100 100 100 100 100 86 92 100 45 59 5 81 100 100 96 69 43
100 100 100 100 100 100 100 100 100 100 100 100 100 100 100 100 100 100 100 100 100 100 97 100 100 100 100 100 79 100 100 100 100 65 5 14 35 24 10 5 5 91 90
100 100 100 100 100 100 100 100 100 100 100 100 100 100 100 100 100 100 100 100 99 100 100 100 88 91 100 100 100 100 100 94 21 5 5 2 0 0 5 5 5 100 100
100 100 100 100 100 100 100 100 100 100 100 100 100 100 100 100 100 100 100 100 100 100 78 79 97 99 100 100 98 41 6 57 34 5 0 2 5 5 5 5 5 99 100
100 100 100 100 100 100 100 100 100 100 100 100 100 84 91 99 100 100 100 100 100 100 100 100 100 100 71 6 5 23 98 89 5 5 5 5 5 5 5 5 6 58 82
100 100 100 100 98 100 100 100 100 100 100 100 100 100 100 100 100 100 100 100 100 100 100 76 68 7 5 4 10 64 24 5 5 38 91 68 18 6 5 73 7 5 6
100 81 85 88 100 100 100 98 100 96 100 100 100 100 100 100 100 100 94 100 99 52 24 9 5 4 5 5 5 5 5 5 77 54 85 90 81 76 96 63 97 87 100
100 100 100 100 100 100 100 100 100 100 100 95 76 68 99 100 98 92 58 56 59 84 68 5 2 5 5 5 5 5 5 6 38 53 100 99 100 98 84 27 84 100 100
100 95 100 100 100 98 90 78 73 48 44 55 80 67 68 60 74 74 85 88 50 27 4 5 5 5 5 14 44 50 19 27 52 100 100 100 100 100 99 86 96 100 100
100 99 79 81 75 71 50 90 77 53 84 31 5 8 52 87 48 85 78 58 5 6 5 63 61 22 54 77 93 100 100 78 78 100 100 100 100 100 100 99 100 100 100
87 73 93 45 49 59 51 48 64 29 5 5 5 5 5 28 80 14 32 7 5 5 46 61 60 59 83 100 100 100 100 95 100 100 99 86 100 100 94 89 100 100 98
86 63 38 56 65 59 40 5 5 5 5 5 5 5 5 5 5 5 5 5 47 28 5 19 6 67 97 100 100 100 99 100 100 100 97 92 100 100 100 100 100 96 99
97 99 88 41 6 5 5 5 5 5 5 5 5 5 5 5 5 5 5 29 57 13 5 36 20 82 100 100 90 99 96 98 98 100 90 100 100 100 100 100 96 100 97
100 100 6 5 5 11 12 5 5 5 5 5 5 5 38 53 5 35 5 40 56 38 7 58 78 97 97 100 100 100 100 100 98 88 92 100 100 100 95 92 97 100 100
100 89 7 10 29 32 5 5 5 5 5 7 10 5 5 5 8 6 10 34 5 15 5 62 97 96 91 93 95 95 100 100 100 89 100 100 100 98 100 100 92 94 100
100 58 42 18 12 8 6 5 10 16 42 37 5 5 5 5 5 5 6 5 5 23 5 28 84 89 70 82 95 100 100 100 100 100 100 100 100 100 100 100 97 100 100
40 43 44 47 35 44 41 57 46 55 80 9 5 5 5 5 18 5 5 15 38 5 5 16 54 86 91 87 92 98 100 100 100 100 100 100 100 100 100 99 83 100 100
82 80 72 53 61 29 66 68 72 72 34 5 5 14 60 56 43 22 7 49 42 37 5 5 46 69 84 77 85 98 100 100 100 100 100 100 100 100 100 100 100 100 100
82 100 98 37 5 46 70 58 49 61 52 8 67 73 82 41 32 48 5 22 40 9 5 5 30 75 91 91 98 100 100 100 100 100 100 100 100 100 100 100 100 100 100

GFSGL_prec_cloud_063.txt.gz
Cloud_Cover
32 15 50 91 92 90 86 88 98 100 100 100 100 100 100 100 100 100 100 100 100 100 100 100 100 100 100 100 100 100 100 100 100 100 100 100 100 100 100 99 87 82 100
5 61 100 100 100 100 100 100 100 100 100 100 100 100 100 100 100 100 100 100 100 100 100 100 100 100 100 100 100 100 100 100 100 100 100 100 100 100 98 96 100 100 100
1 9 52 23 46 74 100 100 100 100 100 100 100 100 100 100 100 100 100 100 100 100 100 100 100 100 100 100 100 100 100 100 100 100 100 100 100 100 100 100 100 100 100
5 10 49 98 70 49 100 100 100 100 100 100 100 100 100 100 100 100 100 100 100 100 100 100 100 100 100 100 100 100 100 100 100 100 100 100 100 100 100 97 70 90 66
0 0 16 53 84 99 100 100 100 100 100 100 100 100 100 100 100 100 100 100 100 100 100 100 100 100 100 100 100 100 100 100 100 95 100 100 70 80 74 58 89 83 76
5 0 28 100 100 100 100 100 100 100 100 100 100 100 100 100 100 100 100 100 100 100 100 100 100 100 100 100 100 100 100 100 100 100 100 100 96 100 100 85 89 96 96
59 100 96 100 100 100 100 100 100 100 100 100 100 100 100 100 100 100 100 100 100 100 100 100 100 100 100 100 100 100 100 100 100 100 94 99 100 47 50 32 84 100 100
98 100 100 99 100 100 100 100 100 100 100 100 100 100 100 100 100 100 100 100 100 100 100 100 100 100 100 100 100 100 100 100 88 100 97 22 36 82 99 98 90 84 74
100 100 100 100 100 100 100 100 100 100 100 100 100 100 100 100 100 100 100 100 100 100 100 100 100 100 100 100 100 100 100 100 55 6 5 12 13 9 9 68 81 86 95
100 100 100 100 100 100 100 100 100 100 100 100 100 100 100 100 100 100 100 100 98 99 100 100 100 100 100 100 100 100 100 90 36 18 5 0 0 0 5 5 68 97 100
100 100 100 100 100 100 100 100 100 100 100 100 100 100 100 100 100 85 98 100 100 100 100 100 100 100 100 100 100 99 59 83 17 5 0 2 5 5 5 5 54 100 100
100 100 100 100 100 100 86 79 82 100 100 100 100 98 98 100 100 100 100 100 100 100 100 100 100 100 100 88 20 68 96 30 5 5 5 5 5 5 5 14 44 66 88
100 100 97 62 66 99 100 100 100 100 100 100 100 100 100 100 100 100 100 100 100 100 100 100 100 44 34 56 29 34 12 5 5 67 88 91 89 80 76 88 83 66 89
56 43 6 34 83 100 100 100 100 98 85 82 58 53 45 82 85 87 100 98 97 74 81 94 59 38 5 5 5 5 5 8 89 94 94 94 93 100 96 87 94 89 84
6 21 95 100 100 79 19 5 7 35 37 40 38 46 34 19 14 54 90 96 100 100 75 20 6 5 5 5 5 5 5 14 85 96 97 98 91 91 83 70 89 100 100
100 100 100 100 98 48 26 49 57 56 56 57 57 55 13 5 29 80 83 86 32 38 5 5 5 5 5 18 13 29 43 77 90 95 100 100 96 98 99 85 98 100 100
100 100 100 100 90 69 81 65 75 86 79 42 11 24 5 5 83 73 78 46 6 5 5 5 5 61 71 94 99 99 98 96 79 99 100 100 100 100 100 99 100 100 100
100 100 99 68 19 9 40 66 53 21 5 5 5 5 32 50 85 54 48 5 4 5 5 8 57 72 88 100 100 100 100 100 100 100 98 93 100 100 100 100 99 99 100
100 90 12 40 28 54 36 23 5 5 5 5 5 6 19 5 5 5 5 5 5 5 5 5 34 87 100 100 100 100 100 100 98 99 98 98 100 100 100 100 94 90 100
78 62 74 75 28 12 5 5 5 5 5 5 5 5 11 5 5 5 5 5 5 5 5 5 16 92 100 100 100 100 100 100 99 100 99 99 100 100 100 100 100 100 98
76 67 56 82 35 5 5 5 5 5 5 5 41 34 34 25 5 5 5 5 6 20 5 5 65 99 98 100 100 100 100 100 100 100 100 100 100 100 97 100 97 92 100
70 66 55 46 13 5 6 5 15 6 9 40 12 5 24 5 5 5 5 7 69 6 5 18 80 96 100 100 100 100 100 100 100 100 100 100 99 98 98 100 100 100 100
86 62 51 13 8 38 48 29 6 5 5 5 5 16 5 5 5 21 34 48 6 5 5 9 70 68 86 100 100 100 100 95 97 100 100 99 93 88 96 100 100 100 100
85 69 58 29 30 43 15 5 5 5 5 7 23 5 5 24 18 78 56 5 5 6 5 5 31 16 76 90 97 100 100 100 100 100 91 99 98 100 100 100 100 100 100
75 63 44 44 28 37 12 5 5 5 9 35 5 5 5 16 39 74 54 5 19 5 5 5 5 17 84 99 97 100 100 100 100 100 100 100 100 100 100 100 99 97 97
67 90 34 45 20 53 23 7 43 50 13 5 5 5 31 75 65 34 16 8 37 23 5 5 5 63 94 100 100 100 100 100 100 100 100 100 100 99 100 100 98 100 98

GFSGL_prec_cloud_066.txt.gz
Cloud_Cover
100 100 100 96 56 95 89 50 22 42 92 100 100 100 100 100 100 100 100 100 100 100 100 100 100 100 100 100 100 100 100 100 100 100 100 100 100 100 100 100 100 100 47
49 73 42 20 6 14 13 34 65 96 96 100 86 100 100 100 100 100 100 100 100 100 100 100 100 100 100 100 100 100 100 100 100 100 100 100 100 100 100 100 100 100 67
57 32 36 16 1 8 5 5 16 56 91 100 100 100 100 100 100 100 100 100 100 100 100 100 100 100 100 100 100 100 100 100 100 100 100 100 100 100 100 100 100 100 54
1 4 38 94 64 0 1 10 80 100 100 100 100 100 100 100 100 100 100 100 100 100 100 100 100 100 100 100 100 100 100 100 100 100 100 100 100 100 100 100 100 100 100
0 0 1 13 60 81 100 100 100 100 100 100 100 100 100 100 100 100 100 100 100 100 100 100 100 100 100 100 100 100 100 100 100 100 100 100 100 100 100 100 90 82 97
12 3 10 54 98 70 99 100 100 100 100 100 100 100 100 100 100 100 100 100 100 100 100 100 100 100 100 100 100 100 100 100 100 100 100 93 84 92 100 99 83 96 100
78 82 23 56 72 94 94 91 99 100 100 100 100 100 100 100 100 100 100 100 100 100 100 100 100 100 100 100 100 100 100 100 100 100 100 100 89 84 69 79 100 100 98
92 54 52 52 78 94 100 100 100 100 100 100 100 100 100 100 100 100 100 100 100 100 100 100 100 100 100 98 100 100 100 100 100 100 61 65 65 75 98 97 96 91 77
42 100 90 98 97 100 100 100 100 100 100 100 100 100 100 100 100 100 100 100 100 100 100 100 100 100 100 100 100 100 100 100 100 100 100 100 92 100 43 42 70 91 87
100 100 100 100 100 100 100 100 100 100 100 100 100 100 98 100 100 100 100 100 100 100 100 100 100 100 100 100 100 100 100 100 100 100 99 64 5 5 5 5 64 100 100
100 100 100 100 100 100 100 100 96 89 92 100 97 98 100 100 100 100 100 100 100 100 100 100 100 100 100 100 100 100 100 95 81 5 5 5 5 5 5 51 72 100 100
100 100 100 100 100 77 49 61 92 97 100 100 99 98 100 100 100 100 100 100 100 100 100 100 100 100 100 100 97 83 88 37 5 5 5 5 38 67 70 59 67 94 100
100 100 89 86 9 5 42 61 90 74 47 6 5 12 42 45 6 5 5 18 100 100 100 100 94 68 23 5 5 6 5 5 5 30 75 78 83 68 88 99 74 97 100
98 33 5 5 5 9 60 58 66 65 46 7 5 5 5 5 5 5 13 36 82 83 54 49 17 5 5 5 4 5 5 5 16 77 85 85 87 100 100 100 100 100 100
5 5 7 49 100 49 51 72 78 51 5 5 5 5 7 30 20 43 47 8 22 6 5 5 5 5 5 5 5 5 5 6 86 92 91 97 95 100 100 100 100 100 100
5 27 91 100 96 100 83 52 5 5 5 13 36 44 19 34 67 85 74 76 10 5 5 2 3 5 5 5 5 28 87 92 96 94 94 100 100 100 93 94 100 100 100
71 100 100 100 100 92 44 9 6 15 45 39 29 15 13 5 46 69 70 7 5 5 0 5 5 5 61 93 99 96 93 94 94 100 100 100 100 100 97 89 100 100 100
100 100 100 100 92 6 5 6 5 5 5 5 6 5 5 8 5 5 5 5 5 5 5 5 68 74 96 96 95 100 100 100 100 100 100 100 100 100 91 100 100 100 100
100 100 100 77 18 5 7 14 8 16 5 5 5 5 5 5 5 6 5 5 5 5 9 46 62 92 94 100 100 100 100 100 100 100 100 100 100 100 96 100 100 98 100
76 44 11 8 5 5 11 34 32 5 18 5 5 5 5 5 5 5 5 5 5 33 24 78 62 92 94 100 100 100 100 100 98 100 100 98 100 100 93 100 97 100 100
100 91 15 5 29 25 35 40 14 5 23 30 5 10 17 12 5 5 5 5 23 86 73 35 63 98 92 100 100 100 100 95 100 100 100 99 100 99 96 100 100 100 100
40 60 24 74 48 71 64 41 6 44 55 13 20 27 24 41 24 5 5 16 94 100 57 10 57 92 96 96 100 100 100 100 90 100 100 100 100 100 100 100 100 92 97
99 74 86 100 94 62 35 25 50 45 24 13 46 54 65 52 40 5 50 100 100 100 64 5 10 66 83 93 100 100 100 97 97 100 100 100 100 100 100 100 99 100 99
70 71 87 100 100 95 48 71 69 41 8 25 66 48 62 26 6 62 89 100 100 5 5 5 5 8 48 62 91 100 100 100 100 100 100 100 99 94 100 100 100 100 98
87 84 97 100 100 100 75 86 98 76 37 10 27 52 22 14 10 59 86 78 14 8 5 5 5 5 39 37 70 84 100 100 100 100 100 100 100 100 100 100 95 100 100
97 100 100 100 100 100 100 100 100 99 35 45 21 5 5 11 30 38 7 5 41 5 5 5 5 5 12 61 85 97 100 100 100 100 100 100 100 100 100 100 99 97 100

GFSGL_prec_cloud_069.txt.gz
Cloud_Cover
85 100 99 88 89 95 100 100 100 100 100 100 100 91 47 82 98 100 100 100 100 100 100 100 100 100 100 100 100 100 100 100 100 100 100 100 100 100 100 100 100 100 98
76 90 90 92 90 38 17 13 47 89 36 47 80 96 94 91 98 100 100 100 100 100 100 100 100 100 100 100 100 100 100 100 100 100 100 100 100 100 100 100 100 100 100
96 41 12 5 4 3 2 1 0 0 0 36 89 97 75 100 100 100 100 100 100 100 100 100 100 100 83 100 98 100 100 100 100 100 100 100 100 100 87 100 100 100 100
19 4 2 0 0 0 0 0 0 8 32 99 100 100 100 100 100 100 100 100 100 100 100 100 100 100 100 100 100 100 100 100 100 100 96 100 100 91 93 100 100 100 100
0 0 16 12 3 3 51 86 92 100 85 61 85 100 100 100 100 100 100 100 100 100 100 100 100 100 100 100 100 100 100 99 100 100 100 100 100 100 99 100 95 100 100
1 0 19 56 80 78 74 45 57 88 65 73 98 100 100 100 100 100 100 100 100 100 100 100 100 100 100 100 100 100 100 100 100 100 100 100 100 100 100 100 100 100 100
5 7 31 91 92 100 100 100 100 100 100 100 100 100 100 100 100 100 100 100 100 100 100 100 100 100 100 100 100 100 100 100 100 100 100 100 100 100 100 100 54 50 47
20 66 77 100 100 100 100 100 100 100 100 100 100 100 100 100 100 100 100 100 100 100 100 100 100 100 100 100 100 100 100 100 100 100 100 100 100 100 100 100 100 100 83
58 100 100 100 100 100 100 100 100 100 100 100 100 100 97 72 70 71 88 100 100 100 100 100 100 100 100 100 100 100 100 100 100 100 100 100 100 100 100 71 12 51 86
100 100 100 100 100 100 100 100 100 100 100 100 70 41 24 19 98 100 100 100 100 100 100 100 100 100 100 100 100 100 100 100 100 100 100 100 66 5 5 5 5 98 100
100 100 100 100 100 100 100 100 92 80 42 5 5 6 9 5 6 31 60 69 84 96 100 100 100 100 100 100 100 100 100 89 60 41 5 5 5 5 11 80 83 100 100
100 100 100 100 100 72 45 22 2 5 5 5 5 5 5 5 5 5 5 5 5 5 5 5 6 8 17 14 8 16 70 63 5 5 5 5 39 40 92 100 100 100 100
100 100 82 37 5 5 4 4 5 5 5 5 5 5 18 5 5 5 5 5 5 5 5 5 5 5 5 5 5 5 5 5 5 5 69 76 77 99 100 100 100 100 100
70 73 6 5 5 5 24 97 39 13 45 47 7 37 5 5 5 42 21 5 5 5 5 5 5 5 1 1 2 5 5 5 5 5 8 17 94 100 100 100 100 100 100
71 16 5 5 11 99 100 100 100 99 60 18 12 11 5 5 5 5 5 5 5 5 5 5 2 1 5 5 5 5 5 5 5 65 98 100 100 100 100 100 100 100 100
5 32 30 70 99 100 100 100 100 40 8 11 5 5 5 5 5 5 10 68 11 5 5 5 0 5 5 5 5 5 43 84 92 100 100 100 100 100 100 94 100 100 100
69 41 100 100 100 100 100 100 70 29 5 5 5 5 5 5 5 5 14 6 5 5 5 5 5 5 5 11 78 89 100 100 100 100 100 100 100 100 100 98 98 100 100
56 65 100 100 100 95 96 68 44 5 5 5 5 5 5 5 5 5 13 6 5 5 5 5 5 8 91 86 100 100 100 100 100 100 100 100 100 100 100 97 100 100 100
61 96 97 83 82 27 11 5 16 26 20 10 7 10 5 5 5 13 58 10 5 5 5 5 6 94 100 100 100 100 100 100 100 100 94 98 92 100 96 100 100 97 100
92 100 100 97 84 73 61 48 56 57 59 56 28 14 25 56 47 42 39 21 5 5 5 5 12 55 91 100 100 100 100 100 100 98 100 99 95 100 100 100 100 100 100
100 96 77 6 39 47 65 67 96 100 74 47 13 11 44 62 56 47 5 18 15 5 5 26 37 5 83 100 100 100 100 100 100 100 99 100 100 100 92 100 100 100 100
82 71 64 61 72 78 84 60 26 16 47 69 33 38 56 54 22 9 6 26 6 15 51 46 5 5 5 75 100 100 100 100 99 96 97 100 100 99 100 100 97 100 99
99 100 98 95 70 61 56 66 77 88 98 85 67 77 32 8 5 30 5 5 5 37 5 5 5 5 5 5 84 100 100 99 96 100 100 100 100 100 94 100 100 97 100
100 100 91 83 99 93 70 66 55 65 100 75 82 61 43 6 50 19 13 21 13 18 5 5 5 5 5 5 5 61 100 100 100 97 100 100 94 93 88 95 97 100 100
100 100 100 91 98 98 78 65 75 98 100 100 100 97 99 67 20 20 51 10 28 5 5 5 5 5 5 5 5 69 95 100 100 100 100 100 100 100 100 100 99 98 100
100 100 100 100 76 79 91 92 95 100 100 100 100 100 83 72 88 60 33 34 5 5 5 5 5 5 5 5 11 91 100 100 100 100 100 100 100 100 100 100 97 100 100

GFSGL_prec_cloud_072.txt.gz
Cloud_Cover
100 100 100 100 97 89 19 43 10 35 37 21 26 97 100 100 68 91 86 100 100 100 100 100 100 100 100 100 100 100 100 100 100 100 100 100 100 100 100 100 100 100 100
100 100 100 100 98 98 42 16 7 32 74 78 50 65 77 63 60 98 100 100 100 100 100 100 100 100 100 100 100 100 100 100 100 100 100 100 100 100 100 100 100 100 100
100 100 100 100 100 84 56 100 53 88 16 23 0 0 4 6 54 98 100 100 100 100 100 100 100 100 100 100 100 100 100 100 100 100 100 100 100 97 98 100 100 100 98
100 100 100 100 100 99 81 88 21 64 0 0 0 1 19 72 76 87 98 100 100 100 100 100 100 100 100 100 100 100 100 100 100 100 100 100 100 100 100 100 100 100 100
100 100 93 97 100 63 76 24 11 18 23 79 72 90 61 72 52 72 84 100 100 100 100 100 100 100 100 100 100 100 100 100 100 100 100 100 100 100 100 100 100 100 100
100 99 80 38 73 96 89 100 100 100 100 100 100 96 85 76 83 93 44 100 100 100 100 100 100 100 100 100 100 100 100 100 100 100 100 100 100 100 100 100 100 100 100
89 52 42 88 100 100 100 100 100 100 100 100 100 100 100 100 100 86 41 58 91 93 100 99 100 99 100 100 100 100 100 100 100 100 100 100 100 100 100 100 100 100 100
6 36 98 100 100 100 100 100 100 100 100 100 100 100 100 100 100 90 62 80 100 85 64 64 76 100 100 100 100 100 100 100 100 100 100 100 100 100 100 100 100 94 8
10 92 96 100 100 100 100 100 100 100 100 100 99 39 51 37 66 18 10 6 6 5 11 94 100 100 100 100 100 100 100 100 100 100 100 100 100 100 100 75 20 10 8
100 100 100 100 100 100 100 100 100 100 96 81 21 5 5 5 5 5 1 4 3 2 1 4 5 5 52 63 5 5 5 5 5 5 5 5 5 5 4 5 5 5 94
100 100 100 100 100 100 100 78 62 12 4 5 5 5 5 5 5 5 5 5 5 5 5 5 5 5 5 5 5 5 4 15 5 5 0 0 0 5 5 5 5 80 95
100 100 100 100 100 98 38 7 3 1 0 3 19 17 5 5 5 5 5 5 5 5 5 5 5 6 5 5 5 47 70 26 5 3 4 5 5 5 63 89 99 98 99
100 100 100 70 11 5 4 2 5 5 5 52 85 20 5 5 5 5 5 2 1 5 5 5 5 5 5 2 5 5 5 2 5 5 5 15 19 10 43 100 100 100 100
100 100 10 5 5 5 5 5 6 84 100 100 75 5 5 5 5 5 5 5 5 5 5 5 5 5 4 5 2 2 5 5 5 5 21 61 70 100 100 100 100 99 100
92 8 6 5 5 5 5 12 90 100 100 100 100 28 5 5 5 5 5 5 5 5 5 5 5 5 5 5 5 5 5 5 27 31 91 100 100 100 100 100 100 92 95
100 72 6 5 39 29 48 100 100 100 100 100 85 6 5 5 5 5 5 5 5 5 8 12 5 5 5 5 5 5 6 94 100 100 100 100 100 100 100 100 100 97 96
100 54 8 18 58 30 100 100 100 98 89 100 69 36 5 5 5 5 5 5 5 9 46 5 5 5 5 5 15 96 100 100 100 100 100 100 100 100 99 92 84 90 98
42 6 5 62 98 100 92 59 98 97 96 59 22 11 8 5 5 5 5 5 5 26 20 5 5 5 5 17 100 100 100 100 100 100 100 96 92 98 85 89 92 99 98
5 5 9 30 72 54 81 98 97 58 28 36 46 54 36 5 5 5 5 36 50 41 19 5 5 5 5 94 100 100 100 100 100 100 100 99 100 100 86 99 99 90 100
40 77 78 82 100 100 57 22 17 36 64 74 59 9 5 5 6 8 42 54 18 7 14 5 5 5 5 71 100 100 100 100 100 100 98 88 90 100 92 97 100 100 99
50 75 90 100 100 72 58 29 19 10 28 12 20 11 21 20 46 56 58 46 45 16 18 5 5 5 44 48 100 100 100 100 100 97 88 87 88 99 96 95 100 100 100
93 75 94 100 91 91 71 71 33 38 72 97 67 18 35 40 36 33 52 75 32 14 19 6 5 5 5 13 52 100 100 100 96 87 87 93 95 98 99 97 100 100 100
98 96 96 99 100 100 62 48 69 87 75 92 52 44 74 14 10 36 98 47 29 66 22 5 5 5 5 5 17 5 91 89 86 93 99 99 95 99 98 100 98 100 100
100 100 99 100 100 99 89 64 70 78 98 71 56 100 68 72 93 100 87 61 37 61 6 5 5 5 5 5 5 5 5 91 96 99 100 100 99 94 99 98 100 100 100
100 100 100 100 100 100 100 100 100 100 100 52 100 86 60 100 100 100 100 100 83 31 6 5 5 5 5 5 5 5 12 91 100 100 100 100 100 99 100 100 100 100 100
100 100 100 100 100 100 100 100 100 100 94 90 100 94 95 100 100 100 100 96 28 11 5 5 5 5 5 5 5 34 74 100 100 100 100 100 100 100 100 100 100 100 100

GFSGL_prec_cloud_075.txt.gz
Cloud_Cover
100 100 100 100 100 94 100 100 100 100 100 100 86 65 78 44 74 73 88 99 99 100 100 100 100 100 100 100 100 100 100 100 100 100 100 100 100 100 100 100 100 100 100
100 100 100 98 100 100 100 100 100 100 100 99 97 83 98 75 49 98 100 98 100 100 100 100 100 100 100 100 100 100 100 100 100 100 100 100 100 100 100 100 100 100 100
100 100 100 100 100 100 100 100 100 100 100 100 84 100 81 86 5 3 0 15 63 100 100 100 100 100 100 100 100 100 100 100 100 100 100 100 100 100 100 100 100 83 92
100 100 100 100 100 100 100 100 100 100 98 100 93 59 10 5 0 0 0 21 47 85 100 100 100 100 100 100 100 100 100 100 100 100 100 100 100 100 93 100 97 100 100
100 100 100 100 100 100 100 100 100 100 94 77 36 21 68 30 70 12 44 73 100 100 100 100 100 100 100 100 100 100 100 100 100 100 100 99 95 100 100 100 100 100 100
100 100 100 100 100 100 100 100 100 100 100 100 100 99 70 99 80 47 16 86 56 90 72 100 100 100 100 100 100 100 100 100 100 100 100 100 100 99 99 100 100 96 98
100 100 100 100 100 100 100 100 100 100 100 100 100 100 100 100 100 95 33 12 24 62 80 55 36 71 95 63 58 18 42 76 71 92 100 100 100 100 100 100 100 100 100
100 100 100 100 100 100 100 100 100 100 100 100 100 100 100 100 100 94 68 49 25 22 26 20 9 5 5 5 5 13 33 26 40 34 29 39 47 52 51 54 52 42 34
100 97 100 100 100 100 100 100 100 100 100 100 96 44 10 7 4 5 6 5 5 5 5 5 3 4 22 80 5 6 5 5 5 4 2 7 33 45 62 22 5 5 13
82 100 100 100 100 100 100 100 100 100 41 30 13 5 2 5 5 5 5 5 3 3 4 0 5 5 5 11 5 5 2 0 4 5 5 5 5 4 5 19 11 5 66
100 100 100 100 100 100 100 100 21 16 6 5 5 5 1 5 5 5 5 2 0 0 0 0 0 5 5 5 5 4 3 28 5 5 5 5 5 31 97 30 10 68 95
100 100 100 100 100 100 75 16 5 5 6 0 0 5 5 58 14 5 5 5 5 0 0 4 2 5 5 5 5 22 70 19 5 5 5 5 8 22 25 70 98 100 97
100 100 100 100 70 43 5 5 5 3 0 4 5 5 70 93 5 12 5 5 5 4 2 5 5 5 5 6 5 5 5 0 3 5 5 5 5 5 50 99 100 100 98
99 94 80 15 19 5 5 5 5 5 5 5 5 21 90 82 52 6 5 5 5 5 5 5 9 42 13 5 5 5 5 5 5 5 8 26 91 100 100 100 100 100 88
100 78 5 2 5 9 5 5 5 5 5 5 18 76 100 100 96 10 5 5 5 5 5 15 6 5 5 5 5 5 5 6 58 87 100 100 100 100 100 100 100 100 100
100 16 45 72 98 93 38 6 5 5 8 52 78 100 100 63 5 5 5 5 5 5 12 5 5 5 5 5 5 5 5 94 100 100 100 100 100 100 100 99 69 89 97
97 100 100 100 100 64 56 12 65 62 16 14 86 100 88 6 21 32 25 29 6 5 6 26 42 18 7 5 5 30 100 100 100 100 100 100 100 97 98 72 81 98 98
100 100 100 100 68 90 42 41 92 89 93 66 30 9 5 8 24 5 5 5 5 5 21 28 56 25 33 12 21 100 100 100 100 100 100 100 96 97 97 94 90 100 98
100 100 87 96 99 75 39 93 65 88 40 8 5 5 5 5 5 5 5 5 5 5 5 5 5 5 16 30 35 100 100 100 100 100 100 100 88 93 94 96 97 96 100
83 68 59 46 46 41 68 100 93 34 14 16 5 5 5 5 5 12 36 6 5 5 5 7 6 5 5 50 15 100 100 100 100 100 86 75 72 85 96 99 100 100 96
84 94 97 95 82 61 76 100 86 79 86 99 67 6 6 5 6 27 8 5 5 5 5 35 19 5 18 60 68 60 100 100 100 100 94 86 86 98 82 99 100 100 100
94 97 89 91 85 85 65 61 62 85 32 5 50 90 13 43 62 45 28 26 5 6 52 100 86 9 5 15 6 25 84 100 100 100 96 93 97 98 100 100 100 100 100
96 98 100 99 91 85 99 86 92 77 88 71 78 63 76 100 100 99 17 9 20 59 100 100 99 7 5 5 7 21 41 13 17 34 100 100 100 100 98 98 99 99 100
100 100 100 100 100 100 100 100 100 100 92 100 99 70 95 100 100 100 75 70 45 100 100 100 79 11 5 5 5 5 36 8 5 49 100 100 100 99 100 100 100 100 90
100 100 100 100 100 100 100 100 100 100 100 100 83 98 100 100 100 100 100 99 100 100 100 100 25 5 5 5 5 5 22 18 87 97 100 100 100 97 99 100 100 100 99
100 100 100 100 100 100 100 100 100 100 100 100 100 100 100 100 100 100 100 83 100 100 100 62 5 18 5 5 7 39 68 100 100 100 100 100 100 99 100 100 91 99 100

GFSGL_prec_cloud_078.txt.gz
Cloud_Cover
41 71 67 79 90 100 77 98 97 93 96 86 94 94 100 100 100 100 100 85 94 99 98 100 98 93 100 100 100 100 100 100 100 100 100 100 100 100 100 100 100 100 100
95 78 12 67 88 78 83 88 100 81 99 96 100 100 100 79 100 100 100 98 75 100 100 100 94 90 88 100 100 100 100 100 100 100 100 100 100 100 100 100 100 100 100
100 99 87 80 100 100 100 100 100 98 100 100 100 100 100 100 100 100 74 88 96 99 96 96 71 96 99 94 100 100 100 100 100 100 96 91 100 100 100 100 100 100 98
100 100 100 100 100 100 100 98 98 99 100 100 100 100 100 100 100 100 65 44 68 41 25 22 39 79 95 94 100 68 100 100 100 100 100 100 100 100 81 85 46 17 38
100 100 100 100 100 100 100 98 100 100 100 100 100 100 100 100 100 76 99 100 100 100 98 73 62 57 62 31 46 37 59 100 100 98 99 99 100 89 99 74 91 87 27
100 100 100 100 100 100 100 100 100 100 100 100 100 100 100 100 100 60 91 99 99 96 100 100 100 99 99 100 100 89 75 75 90 80 74 73 10 5 5 5 5 29 49
100 100 100 100 100 100 100 100 100 100 100 100 100 100 100 100 100 89 20 10 48 84 82 28 21 66 71 49 6 5 5 5 8 5 5 5 5 5 5 5 5 18 5
100 100 100 100 100 100 100 100 100 100 100 100 100 100 100 100 96 80 36 30 14 16 10 5 5 5 5 5 5 5 5 5 5 5 5 5 4 0 5 5 5 5 5
100 100 100 100 100 100 100 100 100 100 100 100 100 78 8 5 5 5 5 5 5 5 5 5 4 5 29 27 3 5 5 5 5 5 2 8 51 79 82 68 18 5 15
100 100 100 100 100 100 100 100 100 99 68 12 5 5 2 5 5 4 4 4 5 5 5 4 5 5 5 5 4 5 5 5 5 5 5 5 3 3 5 3 5 15 61
100 100 100 100 100 100 100 100 94 43 17 16 5 5 5 5 5 5 3 5 5 6 15 16 5 5 5 5 5 5 5 16 5 5 5 5 5 5 5 5 5 45 97
100 100 100 100 100 100 98 69 17 5 5 5 5 5 5 4 1 5 5 5 10 47 21 6 5 5 5 5 5 6 74 30 5 5 5 8 10 6 5 6 42 100 100
100 100 100 100 100 100 44 7 5 3 5 0 2 3 2 2 5 5 5 80 100 100 14 5 5 5 5 5 5 64 23 5 5 5 5 18 8 35 90 100 100 100 100
100 100 100 100 100 57 5 5 5 5 5 5 5 5 5 5 8 74 91 100 76 12 13 14 5 8 5 5 5 5 5 5 5 5 8 27 98 100 100 100 100 100 100
100 100 100 66 26 5 5 5 3 5 5 5 5 5 5 21 52 74 90 44 60 65 14 5 5 5 3 5 5 5 5 5 9 77 99 100 100 100 100 100 100 98 96
99 90 57 44 5 5 5 5 15 5 69 7 5 5 14 47 41 21 25 60 32 5 5 5 5 5 5 5 5 5 5 57 100 100 100 100 100 100 93 62 84 100 100
100 84 63 69 99 100 100 100 90 7 5 5 5 28 36 22 5 5 5 5 5 5 5 5 5 23 5 6 54 63 88 100 100 100 100 100 100 100 98 73 72 95 96
96 67 88 100 100 100 100 84 17 22 6 19 26 7 8 5 5 5 5 5 5 5 5 5 5 5 5 52 33 33 98 100 100 100 100 100 100 98 89 94 84 100 98
82 43 70 83 90 100 100 73 59 25 56 48 59 31 57 6 5 5 7 53 38 5 42 27 32 5 5 51 9 18 89 100 100 100 100 100 98 100 81 80 95 94 98
100 99 90 83 65 60 70 72 67 72 74 98 90 53 8 7 16 41 60 35 25 42 55 34 44 7 5 19 59 61 50 99 100 100 100 100 99 95 95 100 100 100 99
99 100 91 74 71 34 69 63 33 58 36 66 53 57 63 60 68 61 42 62 39 21 7 50 99 61 11 31 69 73 30 6 91 100 100 100 98 94 85 99 100 98 97
99 99 100 84 69 98 92 96 100 88 80 60 34 63 38 70 62 98 65 31 37 7 57 100 100 99 44 16 44 94 39 18 5 91 100 100 99 100 100 100 100 100 97
100 100 100 100 100 100 100 100 100 100 100 97 76 81 67 100 94 70 90 98 90 100 100 100 100 100 44 65 44 100 89 14 26 6 20 91 99 100 100 100 100 100 100
100 100 100 100 91 100 100 100 100 99 99 96 100 100 99 100 100 100 100 100 98 100 100 100 100 99 62 38 96 100 54 25 13 43 48 100 100 96 100 100 100 92 100
100 100 100 100 100 100 100 100 100 100 100 100 100 100 100 100 100 100 100 100 100 100 100 100 100 89 82 100 100 33 52 52 95 96 98 100 100 91 100 93 98 100 100
100 100 100 100 100 100 100 100 100 100 100 100 100 100 100 100 100 100 100 100 100 100 100 100 91 95 100 100 78 41 31 100 99 100 100 100 100 100 100 99 94 100 100

GFSGL_prec_cloud_081.txt.gz
Cloud_Cover
5 6 7 11 69 85 89 99 100 100 100 100 100 100 100 100 100 100 100 100 100 100 100 100 100 100 99 55 100 72 92 100 100 100 100 100 100 100 100 100 100 100 100
56 80 55 98 5 7 7 100 100 100 100 100 100 100 100 100 100 100 100 100 100 100 100 100 100 100 100 75 90 58 99 100 99 100 100 100 100 100 100 100 100 100 100
100 100 96 100 96 66 43 95 99 74 100 100 100 100 97 95 100 100 100 100 100 100 100 100 100 100 97 86 100 98 50 5 27 65 97 86 69 100 97 100 100 99 96
100 100 100 100 97 100 86 100 100 97 76 89 95 84 100 100 100 100 100 100 100 100 100 100 35 37 19 16 9 5 5 5 8 23 54 94 100 100 100 90 72 100 97
100 100 100 96 74 100 96 97 90 96 100 100 100 100 100 100 100 100 100 100 100 100 100 93 87 81 82 24 6 10 5 7 79 98 94 79 97 94 55 17 18 5 3
100 100 100 100 100 100 100 100 100 100 100 100 100 100 100 100 100 100 100 100 100 100 100 100 100 98 100 100 99 43 61 10 25 21 24 26 7 5 5 5 5 5 5
100 100 100 100 100 100 100 100 100 100 100 100 100 100 100 100 100 100 100 100 100 99 43 16 5 20 6 5 5 5 4 11 4 5 5 5 5 5 5 5 6 24 6
100 100 100 100 100 100 100 100 100 100 100 100 100 100 100 100 100 100 100 100 9 5 5 5 5 5 8 8 20 5 5 5 5 5 5 5 5 1 5 4 5 5 5
100 100 100 100 100 100 100 100 100 100 100 100 100 100 100 100 100 100 76 5 5 5 5 5 5 5 34 94 6 5 5 5 5 5 5 5 9 57 100 100 96 40 5
100 100 100 100 100 100 100 100 100 100 100 100 100 100 100 100 65 53 6 5 5 5 0 2 5 64 100 50 5 5 5 5 5 5 5 5 5 5 5 5 5 6 58
100 100 100 100 100 100 100 100 100 100 100 100 100 100 96 57 35 5 4 1 1 1 1 11 84 100 99 34 6 5 5 5 5 5 5 5 5 5 5 5 5 23 95
100 100 100 100 100 100 100 100 100 100 100 100 71 88 26 8 5 5 5 4 0 5 9 76 100 85 64 42 7 5 44 9 5 5 5 9 14 6 5 6 9 76 100
100 100 100 100 100 100 100 100 100 100 71 84 12 29 6 5 4 5 5 5 5 81 100 84 58 60 30 5 5 23 19 5 5 5 5 52 32 31 65 100 100 100 100
100 100 100 100 100 100 100 100 100 100 58 28 5 5 5 5 5 5 5 5 21 49 38 55 45 7 5 5 5 5 5 5 5 16 59 34 86 100 100 100 100 100 96
100 100 100 100 100 100 100 100 81 61 17 5 5 5 5 5 5 5 30 64 59 58 64 64 48 5 5 5 5 5 5 5 5 72 97 100 100 100 100 100 100 97 96
100 100 100 100 100 100 100 75 34 5 9 13 5 5 5 5 10 91 37 28 69 68 70 32 5 5 5 5 5 6 5 6 45 99 100 100 100 100 100 97 97 98 100
100 100 100 100 96 84 72 45 52 23 5 5 5 5 23 80 71 64 51 68 53 60 51 5 5 21 10 50 60 67 49 24 100 100 100 100 100 100 100 90 74 93 97
99 95 71 72 75 68 62 50 18 11 32 48 6 15 83 100 100 100 73 73 72 63 42 5 5 5 27 17 34 66 42 32 98 100 100 100 100 100 97 86 75 100 99
100 100 100 100 98 39 23 45 77 98 42 62 88 82 99 100 100 90 59 74 64 41 14 10 53 28 6 6 6 48 60 56 47 100 100 100 100 100 86 78 89 96 99
100 100 100 82 47 52 58 11 22 35 72 92 94 81 81 100 98 63 54 67 57 14 38 55 27 69 57 10 23 49 64 58 19 21 69 100 100 100 100 86 94 100 91
100 100 100 100 100 100 98 96 44 37 100 100 100 83 89 100 96 89 88 72 78 63 77 72 60 100 100 75 96 78 58 96 62 49 38 99 100 100 100 98 100 100 100
100 98 92 91 92 95 100 100 100 100 100 100 100 100 100 100 89 100 95 99 84 100 100 97 58 100 73 79 100 93 100 96 25 35 87 78 95 100 100 100 100 100 100
100 100 100 100 92 92 94 98 94 100 100 100 100 100 100 100 100 100 85 99 100 100 93 91 100 100 56 100 100 100 100 56 22 74 94 40 76 100 100 100 100 100 100
100 100 100 100 100 99 81 95 98 91 100 100 100 100 100 100 100 100 100 100 100 100 100 100 100 100 100 100 100 100 94 36 71 87 45 99 100 98 100 100 100 95 100
100 100 100 100 100 100 100 100 98 100 100 94 100 100 100 100 100 100 100 100 100 100 100 100 100 100 100 100 100 98 92 93 78 91 93 99 98 94 100 100 99 98 95
100 100 100 100 100 100 100 100 100 100 100 100 100 100 100 100 100 100 100 100 100 100 100 100 100 100 100 100 100 100 100 100 96 100 100 100 100 100 100 100 99 100 100

GFSGL_prec_cloud_084.txt.gz
Cloud_Cover
16 5 45 62 98 99 100 100 100 100 100 100 100 100 100 100 100 100 100 100 100 100 100 100 100 100 100 100 100 100 62 80 100 100 100 100 100 100 100 92 100 95 89
34 12 98 58 93 99 100 100 100 100 100 100 98 100 100 100 100 100 100 100 100 100 100 100 100 100 100 100 100 97 55 52 80 99 100 100 100 100 100 100 99 99 100
100 98 84 100 100 100 95 87 99 91 100 100 100 100 100 100 100 100 100 100 100 100 100 100 100 100 100 100 100 100 97 22 5 20 92 100 100 99 77 94 100 100 100
100 100 98 100 99 81 100 80 93 100 78 100 100 100 85 100 100 100 100 100 100 100 100 100 100 100 100 100 95 36 8 5 5 15 28 79 98 98 79 82 98 99 50
100 100 100 100 92 100 100 100 82 100 100 94 100 100 100 100 100 100 100 100 100 100 100 100 100 100 100 100 46 16 4 7 47 74 56 44 62 40 87 60 11 5 5
100 97 85 100 100 100 100 100 100 100 100 100 100 100 100 100 100 100 100 100 100 100 100 100 100 100 100 100 100 64 6 5 23 22 72 7 5 5 5 5 5 5 5
100 100 100 100 100 100 100 100 100 100 100 100 100 100 100 100 100 100 100 100 100 100 100 100 100 100 5 5 5 5 13 36 34 21 5 5 5 5 5 5 6 35 14
100 100 100 100 100 100 100 100 100 100 100 100 100 100 100 100 100 100 100 100 100 100 100 100 80 12 18 5 5 5 70 100 47 5 5 5 5 5 5 5 5 5 5
100 76 100 100 100 100 100 100 100 100 100 100 100 100 100 100 100 100 100 100 100 100 96 28 20 11 6 5 4 5 80 72 7 10 5 8 19 12 64 50 74 53 10
98 96 100 100 100 100 100 100 100 100 100 100 100 100 100 100 100 100 100 100 100 80 80 39 5 5 5 5 33 96 78 5 5 5 5 4 5 9 7 5 5 5 61
96 100 100 100 100 100 100 100 100 100 100 100 100 100 100 100 100 100 100 100 87 45 22 5 2 5 5 94 91 26 13 5 5 5 5 5 5 5 5 5 5 23 40
100 100 100 100 100 100 100 100 100 100 100 100 100 100 100 100 100 100 100 61 14 21 5 3 5 5 8 5 5 5 19 7 5 5 5 30 32 7 5 5 15 83 100
100 100 100 100 100 100 100 100 100 100 100 100 100 100 100 100 100 100 47 6 6 6 5 5 5 5 5 7 5 5 7 5 5 5 31 54 58 27 90 99 100 100 100
100 100 100 100 100 100 100 100 100 100 100 100 100 100 100 100 100 44 37 59 8 5 5 5 5 29 38 14 5 5 5 5 5 19 60 56 62 100 100 100 100 100 98
100 100 100 100 100 100 100 100 100 100 100 100 100 100 100 98 62 66 82 24 5 10 7 5 14 23 5 5 5 5 6 5 6 44 16 90 100 100 100 100 100 93 92
100 100 100 100 100 100 100 100 100 100 100 100 100 91 88 73 65 66 8 5 44 66 5 21 22 5 5 5 8 22 67 11 7 6 51 92 100 100 100 100 100 97 100
100 100 100 100 100 100 100 100 100 100 100 96 73 44 92 76 12 5 29 58 48 12 63 61 31 12 8 19 58 66 56 37 21 5 96 100 100 100 100 100 95 94 85
100 100 100 100 100 100 99 97 93 73 68 79 99 98 74 72 13 29 41 57 70 94 75 48 47 14 35 83 85 68 61 60 78 63 65 88 98 100 100 100 95 99 95
100 100 100 95 100 100 99 79 76 70 76 48 79 72 88 100 79 49 43 65 90 85 66 51 75 54 82 73 81 98 75 68 74 75 64 62 82 100 100 100 98 99 98
100 100 100 100 100 100 100 100 76 70 82 98 99 42 100 100 96 100 64 77 81 77 88 96 73 82 70 100 100 93 81 78 100 76 72 64 75 92 98 100 100 99 92
100 100 100 100 100 100 100 100 100 100 63 92 78 28 94 100 98 100 87 89 64 100 100 100 99 100 100 100 95 93 53 50 61 57 80 95 100 83 92 100 100 100 100
100 100 100 100 100 100 100 100 91 96 100 100 90 83 99 100 88 57 76 95 98 100 85 100 100 100 100 100 100 96 95 95 80 96 100 100 100 70 93 100 100 100 100
100 100 100 100 100 100 100 98 100 94 100 99 92 75 78 100 100 81 82 84 100 100 100 100 100 100 100 100 99 100 100 100 100 100 100 100 100 87 82 100 100 100 100
100 100 100 100 100 100 100 95 100 98 93 99 100 99 98 100 89 100 100 86 90 100 100 100 100 100 100 86 100 100 100 100 100 100 100 100 98 96 100 100 100 100 100
100 100 100 100 100 100 100 100 99 100 100 100 100 100 94 100 100 100 100 92 100 100 100 100 100 100 100 100 100 100 100 100 100 100 88 81 100 98 98 98 98 98 100
100 100 100 100 100 100 100 100 100 100 100 100 100 100 100 100 100 100 100 100 100 100 100 100 98 100 100 100 100 100 100 100 97 97 100 100 100 100 100 99 91 100 100

GFSGL_prec_cloud_087.txt.gz
Cloud_Cover
95 58 38 44 100 100 100 100 100 100 100 100 100 100 100 100 100 100 100 100 100 100 100 100 99 100 100 100 100 100 100 100 100 100 100 96 73 92 89 97 100 100 100
56 53 5 11 6 48 70 100 100 100 100 100 100 100 100 100 100 100 100 100 100 96 100 100 100 100 100 100 100 100 100 100 100 100 100 100 100 99 100 100 100 100 100
100 54 52 57 99 51 20 28 90 100 100 100 100 100 100 100 100 100 100 98 100 99 100 100 100 100 100 100 100 100 100 100 100 63 93 100 100 99 95 80 96 97 100
86 100 95 69 46 68 71 81 100 72 90 94 84 98 100 100 100 100 100 100 100 100 100 100 100 100 100 100 100 100 100 99 60 62 59 69 81 65 95 80 43 36 71
99 99 100 100 100 100 100 100 100 48 86 100 95 100 100 100 100 100 100 100 100 100 98 100 100 100 100 100 100 100 100 92 16 8 89 51 75 20 6 5 5 2 0
100 99 100 100 100 100 100 100 100 100 100 85 85 100 100 100 100 100 100 100 100 100 100 100 100 100 100 100 100 100 100 82 5 5 5 5 5 5 5 5 1 0 0
100 90 100 100 99 100 99 98 98 100 100 100 100 100 100 100 100 100 100 100 100 100 100 100 100 100 100 100 100 100 12 5 4 1 4 5 5 5 5 5 4 3 3
85 60 85 100 100 100 100 100 100 100 100 100 100 100 100 100 100 100 100 100 100 100 100 100 100 100 100 100 100 53 5 5 2 5 5 5 5 5 3 5 5 5 5
6 32 7 52 68 100 100 100 100 100 100 100 100 100 100 100 100 100 100 100 100 100 100 100 100 100 100 100 35 5 5 2 18 26 6 28 12 25 5 5 5 19 5
97 98 97 100 96 97 100 100 100 100 100 100 100 100 100 100 100 100 100 100 100 100 100 100 100 100 98 28 5 5 5 5 5 5 5 5 5 24 5 5 5 5 5
100 97 95 98 100 100 100 100 100 100 100 100 100 100 100 100 100 100 100 100 100 100 100 100 100 92 18 5 5 5 5 5 11 5 5 5 5 5 5 5 5 5 52
100 100 100 100 100 100 100 100 100 100 100 100 100 100 100 100 100 100 100 100 100 100 100 100 97 16 5 7 5 5 35 6 5 5 5 5 5 5 5 5 5 26 88
100 100 100 100 100 100 100 100 100 100 100 100 100 100 100 100 100 100 100 100 100 100 100 61 5 8 33 5 5 5 9 6 6 5 5 5 5 5 51 95 100 100 100
99 100 100 100 100 100 100 100 100 100 100 100 100 100 100 100 100 100 100 100 100 94 30 6 6 44 18 5 5 5 16 36 6 5 5 5 11 99 95 100 100 100 93
100 100 100 100 100 100 100 100 100 100 100 100 100 100 100 100 100 100 100 100 100 47 6 30 34 58 5 5 10 41 56 30 7 5 30 6 75 98 98 93 88 95 96
100 100 100 100 100 100 100 100 100 100 100 100 100 100 100 100 100 100 100 100 81 87 52 78 70 16 5 37 44 61 75 32 58 22 41 100 96 92 93 92 95 96 100
100 100 100 100 100 100 100 100 100 100 100 100 100 100 100 100 100 100 100 100 100 45 92 69 70 70 57 69 68 74 66 52 47 62 100 99 55 99 97 100 100 98 98
100 100 99 100 100 100 100 100 100 100 100 100 100 100 100 100 100 100 99 59 100 100 100 98 94 94 83 71 68 56 17 42 76 100 100 87 31 93 100 100 100 96 100
100 100 100 100 100 100 100 100 100 100 100 100 100 99 100 100 100 97 97 100 100 100 97 90 96 90 81 71 80 60 38 67 100 100 100 64 62 93 80 90 95 100 100
100 100 100 100 100 100 100 100 100 100 100 100 100 100 100 100 100 100 100 100 100 100 100 84 99 94 82 86 84 80 100 78 100 100 67 56 85 94 90 90 99 95 100
100 100 100 100 100 100 100 100 100 100 100 100 98 98 100 100 91 98 100 100 100 100 100 100 98 88 95 89 88 100 100 85 88 72 44 8 46 85 98 99 99 100 100
100 100 100 100 100 100 100 100 100 100 100 100 90 76 100 100 100 90 97 100 100 100 100 100 100 87 100 100 100 100 100 79 82 97 100 85 100 100 100 92 100 100 100
100 100 100 100 100 100 100 100 100 100 100 100 100 100 100 100 100 99 90 100 100 100 100 100 98 90 78 93 100 100 97 99 100 100 100 100 100 100 100 90 100 100 100
100 100 100 100 100 100 100 100 100 100 100 100 100 100 100 100 100 100 100 100 100 100 100 100 100 98 96 100 100 100 100 100 91 100 100 100 100 100 100 100 100 100 100
100 100 100 100 100 100 100 100 100 100 100 100 100 100 100 100 100 100 100 100 100 100 100 100 100 100 100 100 100 100 91 99 100 100 100 100 100 100 93 100 100 100 99
100 100 100 100 100 100 100 100 100 100 100 100 100 100 100 100 100 100 100 100 100 100 100 100 100 100 100 99 100 95 100 100 100 100 100 100 100 96 100 100 99 100 100

GFSGL_prec_cloud_090.txt.gz
Cloud_Cover
100 100 82 100 100 100 100 100 100 100 100 100 100 100 100 100 100 100 100 100 100 100 100 100 100 100 100 100 100 100 100 100 100 100 100 100 100 100 96 80 74 84 84
79 96 100 40 61 100 100 100 100 100 100 100 100 100 100 100 100 100 100 100 100 100 100 100 100 100 100 100 100 100 100 100 100 100 100 100 100 100 89 68 100 100 88
100 100 100 100 81 45 71 98 98 100 100 100 100 100 100 100 100 100 100 100 100 100 100 100 100 100 100 100 87 98 100 100 100 100 100 100 100 81 63 26 5 5 5
100 100 100 100 99 56 6 5 5 45 87 100 99 98 87 100 100 100 100 100 100 100 99 98 100 76 100 99 100 100 100 100 100 100 100 100 100 61 17 5 5 5 5
7 93 99 100 100 92 95 25 5 5 5 5 15 16 44 74 98 91 64 70 100 100 88 100 100 94 99 100 91 100 100 100 100 100 100 100 100 44 5 5 5 2 0
0 14 12 100 100 100 100 100 100 100 91 100 86 72 94 95 100 100 100 100 100 100 100 100 100 100 100 100 100 100 100 100 100 100 100 87 46 3 5 5 1 0 5
0 0 0 43 100 100 98 100 100 100 100 100 100 100 100 100 100 100 100 100 100 100 100 100 100 100 100 100 100 100 100 100 100 100 100 88 4 5 5 5 5 5 5
5 4 5 18 22 100 100 98 87 100 100 100 100 100 100 100 100 100 100 100 100 100 100 100 100 100 100 100 100 100 100 100 100 100 7 3 5 5 5 6 5 5 5
5 5 5 16 54 59 72 98 100 100 100 100 100 100 100 100 100 100 100 100 100 100 100 100 100 100 100 100 100 100 100 100 100 89 5 5 5 5 5 12 34 10 5
80 100 54 78 93 100 100 100 100 100 100 100 100 100 100 100 100 100 100 100 100 100 100 100 100 100 100 100 100 100 100 100 28 5 5 5 5 16 8 10 7 35 11
100 100 100 67 96 100 100 100 100 100 100 100 100 100 100 100 100 100 100 100 100 100 100 100 100 100 100 100 100 100 99 30 5 5 5 5 5 5 12 5 6 77 100
92 100 100 100 99 100 100 100 100 100 100 100 100 100 100 100 100 100 100 100 100 100 100 100 100 100 100 100 100 91 28 5 5 5 5 5 25 15 28 31 70 86 100
99 85 100 100 100 100 100 100 100 100 100 100 100 100 100 100 100 100 100 100 100 100 100 100 100 100 100 100 86 7 43 5 5 5 5 12 44 69 20 62 74 84 72
100 100 100 100 100 100 100 100 100 100 100 100 100 100 100 100 100 100 100 100 100 100 100 100 100 100 100 65 6 6 32 55 5 5 26 34 67 78 93 100 100 100 100
100 100 100 100 100 100 100 100 100 100 100 100 100 100 100 100 100 100 100 100 100 100 100 100 100 99 53 26 6 74 100 90 5 16 22 42 82 90 100 100 100 100 100
88 100 100 100 100 100 100 100 100 100 100 100 100 100 100 100 100 100 100 100 100 100 100 100 99 62 44 42 85 100 100 45 5 17 68 81 90 93 100 100 100 100 100
93 100 100 97 100 100 100 100 100 100 100 100 100 100 100 100 100 100 100 100 100 100 100 100 100 81 38 98 94 69 93 47 12 20 72 91 97 98 98 100 100 100 100
100 100 95 100 100 100 100 100 100 100 100 100 100 100 100 100 100 100 100 100 100 100 100 89 34 69 70 60 31 7 15 23 16 89 67 77 89 95 99 95 100 100 100
100 100 100 100 100 100 100 100 100 100 100 100 100 100 100 100 100 100 100 100 100 100 70 73 89 76 86 65 72 26 77 92 100 100 92 76 85 100 92 97 94 96 97
100 100 100 100 100 100 100 100 100 100 100 100 100 100 100 100 100 100 100 100 100 91 83 64 37 99 89 92 100 100 98 74 61 80 96 80 79 77 84 89 94 98 96
100 100 100 100 100 100 100 100 100 100 100 100 100 98 100 100 100 100 100 87 72 99 100 100 77 98 98 100 99 100 84 76 76 84 86 79 85 68 19 54 98 90 100
100 99 100 100 100 100 100 100 100 100 100 100 100 100 100 100 100 100 100 100 92 82 79 95 93 88 87 98 100 92 80 96 85 81 92 99 81 74 65 87 99 100 100
100 100 100 100 100 100 100 100 100 100 100 100 98 84 97 100 100 100 100 100 100 100 98 100 100 100 100 100 100 93 84 82 84 94 100 96 80 60 91 97 100 92 99
100 100 100 100 100 100 100 100 100 100 100 100 100 100 98 100 100 100 100 100 100 100 100 100 100 100 99 100 100 99 96 99 100 100 100 99 100 100 100 99 95 100 99
100 100 100 100 100 100 100 100 100 100 100 100 100 100 100 100 100 100 100 100 100 100 100 100 100 100 100 100 100 100 100 100 100 100 100 100 100 100 100 100 100 99 100
100 100 100 100 100 100 100 100 100 100 100 100 100 100 100 100 100 100 100 100 100 100 100 100 100 100 100 100 100 100 100 100 100 100 100 100 100 100 100 100 99 98 100

GFSGL_prec_cloud_093.txt.gz
Cloud_Cover
99 100 96 100 100 100 100 100 100 100 100 100 98 95 100 100 100 100 100 100 100 100 100 100 100 100 100 100 100 100 100 100 100 100 100 100 100 100 100 100 100 100 100
100 100 100 100 100 100 100 100 72 100 100 100 100 99 100 100 100 100 100 100 100 100 100 100 100 100 100 100 100 100 100 100 100 100 85 98 100 100 100 100 97 98 100
100 100 100 100 100 100 100 99 100 100 69 63 98 100 100 100 100 100 100 100 100 100 100 100 100 100 100 100 100 100 100 54 92 100 100 100 100 100 95 100 100 100 14
26 100 100 100 100 100 100 93 98 99 87 89 100 100 100 100 100 100 100 100 100 100 100 100 100 100 100 86 99 100 100 90 95 100 100 100 100 99 100 92 100 98 5
0 0 2 24 60 90 99 100 100 100 89 92 23 5 5 13 26 33 83 100 100 100 96 100 66 89 19 50 38 86 100 79 100 100 100 100 100 100 100 97 100 17 5
0 0 0 4 0 84 100 100 100 100 100 100 80 38 29 50 99 100 100 67 81 72 70 88 35 60 57 76 97 100 100 99 100 100 100 100 100 100 100 100 33 5 5
0 0 0 0 0 0 16 82 100 100 100 100 100 99 100 100 100 100 100 100 100 100 100 100 100 100 100 97 100 100 100 100 100 100 100 100 100 100 100 84 4 5 2
3 0 0 0 4 2 5 18 86 87 100 93 100 100 100 100 100 100 100 100 100 100 100 100 99 84 100 100 100 100 100 100 100 100 100 100 100 100 22 5 5 2 3
5 5 5 5 5 5 43 90 100 100 99 100 100 100 100 100 100 100 100 100 100 76 100 76 100 99 100 100 100 100 100 100 100 100 100 100 100 19 5 5 10 5 5
5 95 14 5 10 6 76 100 99 99 100 100 100 100 100 100 100 100 94 99 100 100 100 66 100 100 100 100 100 100 100 100 100 100 100 100 76 5 5 5 5 5 12
5 9 55 41 14 85 99 97 100 100 100 100 100 100 100 100 92 100 100 100 100 100 100 100 100 99 100 100 100 100 100 100 100 100 100 89 5 5 5 5 5 65 81
100 96 99 29 82 100 100 96 100 100 100 100 100 100 100 100 100 100 100 100 100 100 100 100 100 100 100 100 100 100 100 100 100 100 86 6 28 50 5 5 5 5 77
100 89 100 100 100 100 100 100 100 100 100 100 100 100 100 100 100 100 100 100 100 100 100 100 100 100 100 100 100 100 100 100 100 23 28 71 100 85 10 6 90 89 58
53 100 97 100 100 100 100 100 100 100 100 100 100 100 100 100 100 100 100 100 100 100 100 100 100 100 100 100 100 100 100 98 71 50 100 100 100 85 100 88 100 100 100
100 97 69 98 100 100 100 98 100 100 100 100 100 100 100 100 100 100 100 100 100 100 100 100 100 100 100 100 100 100 100 98 72 100 100 100 100 100 100 100 100 100 100
100 100 90 100 100 100 100 100 100 100 100 100 100 100 100 100 100 100 100 100 100 100 100 100 100 100 100 100 100 100 99 64 100 100 100 100 100 87 79 100 100 100 100
100 100 100 100 100 100 100 100 100 100 100 100 100 100 100 100 100 100 100 100 100 100 100 100 100 100 100 100 100 84 40 91 88 62 94 97 90 89 99 100 100 100 100
100 100 100 100 100 100 100 100 100 100 100 100 100 100 100 100 100 100 100 100 100 100 100 100 100 100 100 100 93 44 54 59 58 82 49 89 94 45 20 48 65 96 100
100 100 100 100 100 100 98 100 100 100 100 100 100 100 100 100 100 100 100 100 100 100 100 100 100 100 100 96 70 73 78 69 57 48 54 39 79 63 34 20 55 80 94
100 100 100 100 100 100 100 100 100 100 100 100 100 100 100 100 100 100 100 100 100 100 100 100 100 100 96 94 94 90 98 81 71 90 68 52 66 100 73 54 61 97 68
100 100 100 100 100 100 100 100 100 100 100 100 100 100 100 100 100 100 100 100 100 100 100 100 100 100 100 99 98 100 91 95 84 98 99 87 98 73 58 79 99 98 100
100 100 100 100 100 100 100 100 100 100 100 100 100 100 100 100 100 100 100 100 100 100 100 100 100 100 100 96 100 95 100 100 82 74 76 100 94 84 83 95 100 100 100
100 100 100 100 100 100 100 100 100 100 100 100 100 100 100 100 100 100 100 100 100 100 91 93 100 100 100 100 100 100 100 98 91 99 93 100 100 99 100 98 99 100 100
100 100 100 100 100 100 100 100 100 100 100 100 100 100 100 98 100 100 100 100 100 100 96 95 100 100 100 100 100 100 100 100 100 100 100 100 97 89 100 100 100 100 100
100 100 100 100 100 100 100 100 100 100 100 100 100 100 100 100 99 99 100 100 100 100 100 100 100 100 100 100 100 100 100 100 100 100 100 98 96 100 100 100 100 100 100
100 100 100 100 100 100 100 100 100 100 100 100 100 100 100 100 100 100 100 100 100 100 100 100 100 100 100 100 100 100 100 100 100 100 100 100 100 100 100 100 100 100 100

GFSGL_prec_cloud_096.txt.gz
Cloud_Cover
97 99 75 100 99 100 100 100 95 100 100 100 100 100 100 100 100 100 100 100 100 100 100 100 100 100 100 100 100 100 100 100 100 100 100 100 100 100 100 100 100 100 100
96 100 100 100 99 100 100 100 39 100 100 100 100 100 100 100 100 100 100 100 100 100 100 100 100 100 100 100 100 100 100 100 100 100 100 100 100 100 100 100 100 100 100
5 10 72 100 100 100 100 100 97 99 98 100 100 98 100 100 100 100 100 100 100 100 100 100 100 100 100 100 100 100 100 100 100 100 96 77 100 100 100 100 98 100 100
3 1 16 46 100 100 75 100 100 69 79 100 30 99 72 100 99 84 87 100 100 100 100 100 100 100 100 100 100 100 71 38 34 94 95 100 100 100 100 100 100 100 100
0 0 0 0 0 31 100 100 87 36 96 55 89 99 94 100 91 89 100 100 100 97 100 100 100 100 84 72 7 5 31 45 99 100 81 100 100 100 100 100 100 100 100
0 0 0 0 0 3 2 100 24 99 100 85 96 100 100 100 98 100 78 93 100 82 61 15 36 100 97 52 91 95 68 92 100 98 100 100 100 100 100 100 100 100 100
0 0 0 0 1 3 2 0 0 31 30 0 2 80 100 100 100 100 100 100 100 100 100 100 100 99 57 99 100 98 97 100 95 95 100 100 100 100 100 100 100 100 100
0 0 0 1 4 3 0 0 2 12 68 98 100 19 74 100 100 100 100 100 100 100 100 100 100 98 100 100 100 100 92 100 99 97 100 100 99 100 100 100 100 100 93
0 0 0 5 5 5 5 5 100 100 100 98 85 52 74 100 100 100 100 100 100 100 100 99 100 100 100 100 100 100 86 100 100 100 100 100 100 100 100 100 100 100 5
0 0 5 7 5 5 5 53 100 100 100 100 87 100 100 100 100 100 100 100 100 100 100 100 100 100 100 100 100 100 100 100 100 100 100 100 100 100 94 100 95 18 9
5 1 6 42 5 24 16 97 100 100 94 100 100 100 100 100 100 100 100 100 100 100 100 100 88 100 100 100 100 100 100 100 100 100 100 100 100 100 100 81 5 5 34
5 5 16 87 60 17 97 100 100 100 100 100 100 100 100 100 100 100 99 100 100 100 100 100 100 100 100 100 100 100 100 100 100 100 100 100 100 100 98 16 60 92 100
5 7 17 64 41 75 100 100 100 100 100 100 100 100 100 100 100 65 9 19 100 100 97 100 100 100 100 100 100 100 100 100 100 100 97 100 100 100 94 27 84 100 83
40 5 22 77 86 100 100 100 100 100 100 100 100 100 100 100 100 100 49 100 100 100 100 100 100 100 100 100 100 100 100 100 100 100 100 100 100 93 47 92 100 100 100
75 84 100 100 100 100 100 100 100 100 100 100 100 100 100 100 100 100 100 99 100 100 100 100 100 100 100 100 100 100 100 100 100 100 100 100 93 24 57 99 82 100 100
99 100 100 100 100 100 100 100 100 100 100 100 100 100 100 100 100 100 100 100 100 100 100 100 100 100 100 100 100 100 100 100 100 100 100 96 39 5 72 26 96 100 100
100 100 92 100 73 100 100 100 100 98 100 100 100 100 100 100 100 100 100 100 100 100 100 100 100 100 100 100 100 100 100 100 100 99 81 61 61 45 51 49 79 93 100
100 100 98 100 100 100 100 100 100 100 100 100 100 100 100 100 100 100 100 100 100 100 100 100 100 100 100 100 100 100 100 100 100 84 78 90 86 100 72 62 69 56 75
100 100 100 100 100 100 100 100 100 100 100 100 100 100 100 100 100 100 100 100 100 100 100 100 100 100 100 100 100 100 100 100 92 78 96 83 65 50 67 64 54 62 70
100 100 100 100 100 100 100 100 100 100 100 100 98 93 100 100 100 100 100 100 100 100 100 100 100 100 100 100 100 100 100 100 96 94 100 87 95 97 64 68 83 41 61
100 100 100 100 100 100 100 100 100 100 100 98 99 92 100 97 99 100 100 100 100 100 100 100 100 100 100 100 100 100 100 99 99 100 100 100 100 100 100 98 66 61 66
100 100 100 100 100 100 100 100 100 100 100 100 100 100 100 100 97 100 100 100 100 100 100 100 100 100 100 100 100 100 100 100 100 87 100 100 100 100 100 100 92 85 100
100 100 100 100 100 100 100 100 100 100 100 100 100 100 100 100 100 100 100 100 100 100 100 100 100 100 100 100 100 100 100 100 100 100 100 100 100 100 100 100 100 99 100
100 100 100 100 100 100 100 100 100 100 100 100 100 100 100 100 100 100 100 100 100 100 100 100 100 100 100 100 100 100 100 100 100 100 100 100 100 100 100 100 99 100 98
100 100 100 100 100 100 100 100 100 100 100 100 100 100 100 100 100 100 100 100 100 100 100 100 100 100 100 100 100 100 100 100 100 100 100 100 100 100 93 94 100 100 100
54 98 100 100 100 100 100 100 100 100 100 100 100 100 100 100 100 98 100 100 100 100 100 100 100 100 100 100 100 100 100 100 100 100 100 100 100 100 100 100 100 100 100

GFSGL_prec_cloud_099.txt.gz
Cloud_Cover
0 0 2 5 7 27 59 58 96 74 100 100 100 91 100 89 100 100 100 100 100 100 100 100 100 100 100 100 100 100 100 100 100 100 100 100 100 100 100 100 100 100 100
0 1 21 15 100 100 73 72 56 100 100 100 100 100 100 90 39 93 97 93 100 100 100 100 100 100 100 100 100 100 100 100 100 100 100 100 100 100 100 100 100 100 100
0 0 2 21 74 58 29 96 93 91 97 97 98 100 100 98 100 100 77 98 100 100 100 100 100 100 100 100 100 100 100 100 100 100 100 100 100 100 100 100 100 98 100
0 0 0 3 4 6 5 5 43 87 99 71 89 100 50 93 73 73 40 56 100 100 100 100 100 100 100 100 100 100 100 100 100 100 100 100 100 100 100 100 46 100 100
0 0 0 0 4 4 5 1 0 5 20 58 86 100 27 5 82 49 52 100 89 99 100 100 100 100 100 100 100 100 100 100 98 99 100 100 100 100 73 92 36 100 100
0 0 0 0 0 0 0 5 5 5 5 5 68 100 100 100 38 96 100 100 100 100 100 100 100 100 100 100 75 100 100 100 100 100 100 99 87 100 76 100 97 100 100
0 0 0 0 0 0 3 3 3 0 0 0 11 0 24 96 94 98 100 100 100 99 100 100 100 100 100 100 61 34 100 100 100 100 100 100 78 92 100 100 100 100 100
0 0 0 0 0 0 0 2 0 0 0 3 100 52 0 0 95 100 100 100 100 100 100 100 100 96 82 85 79 100 93 100 100 100 100 95 100 100 100 100 100 100 100
4 46 7 0 0 2 5 5 5 44 93 100 100 45 5 28 87 100 100 100 100 100 100 100 100 100 100 100 100 100 100 94 100 100 99 100 100 100 100 100 100 100 100
30 100 5 1 0 3 5 5 91 100 100 100 95 35 50 69 100 100 100 100 100 100 100 100 100 100 100 100 100 100 100 98 100 100 100 100 100 100 100 100 100 100 100
100 86 17 5 0 5 5 87 90 100 100 100 94 100 100 100 100 100 100 100 100 100 100 100 100 100 100 100 100 100 100 100 100 100 100 100 100 100 100 100 100 100 100
100 83 7 5 5 26 26 67 100 100 100 100 100 100 100 100 100 100 100 100 100 100 100 100 100 87 100 100 100 100 100 100 100 100 100 100 100 100 100 100 100 100 100
49 97 6 6 40 49 94 99 100 100 100 100 100 100 100 100 100 100 100 100 100 100 100 100 93 100 100 100 100 100 100 100 100 100 100 100 100 100 100 100 100 100 94
19 8 22 72 68 92 100 100 100 100 100 100 100 100 100 100 100 100 100 100 100 100 100 100 100 100 100 100 100 100 100 100 100 100 100 100 100 100 100 100 100 77 79
55 76 98 100 100 100 100 100 100 100 100 100 100 99 100 100 100 100 100 99 100 100 100 100 100 100 100 100 100 100 100 100 100 100 100 100 100 100 100 100 100 83 79
81 65 100 100 100 100 100 100 100 100 100 100 100 100 86 100 100 93 100 93 100 100 100 100 100 100 100 100 100 100 100 100 100 100 100 100 100 100 100 100 84 64 77
49 16 100 100 100 66 100 100 100 100 100 100 100 100 100 100 94 98 99 100 100 100 100 100 100 100 100 100 100 100 100 100 100 100 100 100 100 100 100 90 95 100 88
23 44 52 100 100 100 100 100 100 100 100 100 100 100 100 100 100 100 100 100 100 100 100 100 100 100 100 100 100 100 100 100 100 100 100 100 100 100 100 98 84 74 88
81 75 100 100 100 100 100 100 100 100 100 100 100 100 100 100 100 100 100 100 100 100 100 100 100 100 100 100 100 100 100 100 100 100 100 100 100 100 100 100 100 96 92
98 100 100 100 100 100 100 100 100 100 100 100 100 100 100 100 100 100 100 100 100 100 100 100 100 100 100 100 100 100 100 100 100 100 100 100 100 100 100 100 100 100 98
100 100 100 100 100 100 100 100 100 100 100 100 100 100 100 100 99 100 100 100 100 100 100 100 100 100 100 100 100 100 100 100 100 100 100 100 100 100 100 100 100 100 100
100 100 100 100 100 100 100 100 100 100 100 100 100 100 100 100 99 90 99 100 100 100 100 100 100 100 100 100 100 100 100 100 100 100 100 100 100 100 100 100 100 100 100
100 100 100 100 100 100 100 100 100 100 100 100 100 100 100 100 100 100 99 98 100 100 100 100 100 100 100 100 100 100 100 100 100 100 100 100 100 100 100 100 100 100 100
100 100 100 100 100 100 100 100 100 100 100 100 100 100 100 100 100 100 100 100 100 100 100 98 100 100 100 100 100 100 100 100 100 100 100 100 100 100 100 100 100 100 100
100 100 100 100 100 100 100 100 100 100 100 100 100 100 100 100 100 100 100 100 100 100 100 100 100 100 100 100 100 100 100 100 100 100 100 92 100 100 100 100 100 100 100
100 100 100 100 100 100 100 100 100 100 100 100 100 100 100 100 100 100 100 100 100 98 100 100 100 100 100 100 100 100 100 100 100 100 100 100 100 100 100 100 100 100 100

GFSGL_prec_cloud_102.txt.gz
Cloud_Cover
5 0 4 5 0 0 2 3 5 5 65 80 20 88 100 100 100 100 100 97 100 100 96 99 99 100 100 100 100 100 100 100 100 100 100 100 100 100 100 100 100 100 100
5 6 9 1 0 5 19 5 67 53 5 5 40 26 17 86 89 100 100 100 100 100 100 100 100 100 100 100 100 100 100 100 100 100 100 100 100 100 100 100 100 100 100
61 26 5 4 3 5 5 7 25 72 34 61 5 25 62 75 89 82 86 100 100 100 100 100 100 100 100 100 100 100 100 100 100 100 100 100 100 100 100 100 100 100 100
100 61 5 0 0 2 7 35 18 5 5 5 4 2 51 57 62 62 46 46 100 100 100 100 100 100 100 100 100 100 100 100 100 100 100 100 100 100 100 100 100 100 98
100 58 5 0 0 0 2 4 5 5 3 0 0 0 3 0 0 14 63 99 99 58 100 100 100 100 100 100 100 100 100 100 100 100 100 100 100 100 100 100 100 100 100
100 36 3 0 0 0 0 0 0 0 0 5 5 2 2 0 0 0 2 0 0 100 100 58 72 100 100 100 100 100 100 100 100 98 100 100 100 100 100 100 100 100 100
56 5 5 4 0 0 0 1 5 5 5 3 2 0 0 0 0 6 93 94 100 99 100 100 100 100 100 100 100 100 100 100 99 100 100 100 100 100 99 89 100 100 100
89 75 20 4 1 0 0 0 0 0 0 4 100 100 5 5 5 81 59 96 100 100 100 100 100 100 100 100 100 100 100 100 100 92 100 100 100 100 100 100 100 100 100
100 78 5 5 0 4 2 4 5 4 5 56 100 100 18 5 5 100 69 82 100 100 100 100 100 100 100 100 100 100 100 100 100 100 100 100 100 100 100 100 100 100 100
100 8 5 5 7 4 5 5 88 5 68 100 100 97 27 20 94 100 99 100 100 100 100 100 100 100 100 100 100 100 98 100 100 100 100 100 100 100 100 100 100 100 100
64 91 100 86 90 87 12 92 45 30 100 100 100 48 87 100 100 100 100 100 100 100 100 100 100 100 100 100 100 100 100 100 100 100 100 100 100 100 100 100 100 100 100
100 100 100 100 100 100 100 90 83 94 100 100 99 71 100 100 100 100 100 100 100 100 100 100 100 100 100 100 100 100 100 100 100 100 100 100 100 100 100 100 100 100 100
100 100 100 100 100 92 99 85 97 100 100 100 100 100 99 100 100 100 100 100 100 100 100 100 100 100 100 100 97 100 100 100 100 100 100 100 100 100 100 100 100 100 100
78 100 97 83 67 72 99 100 100 100 100 100 100 100 96 100 100 100 100 93 90 100 100 100 100 99 98 100 96 93 100 100 100 100 100 100 100 100 100 100 100 100 100
96 74 71 86 100 100 100 100 100 100 100 100 100 100 100 100 100 100 100 99 78 82 99 100 100 97 100 100 100 100 100 100 100 100 100 100 100 100 100 100 100 100 100
66 87 84 78 80 97 100 100 100 100 100 100 100 100 100 100 100 100 100 93 78 78 79 100 100 100 100 100 100 100 100 100 100 100 100 100 100 100 100 100 100 100 100
100 98 99 72 100 98 100 100 100 100 100 100 100 100 100 100 100 100 100 100 81 72 98 100 97 100 100 100 100 100 100 100 100 100 100 100 100 100 100 100 100 100 100
48 92 100 99 88 77 100 100 100 100 100 100 100 100 100 100 100 100 100 92 74 97 100 99 78 81 97 100 100 100 100 100 100 100 100 100 100 100 100 100 100 100 100
94 44 80 86 85 100 100 100 100 100 100 100 100 100 100 100 100 100 100 94 72 87 100 100 100 96 98 95 100 100 100 100 100 100 100 100 100 100 100 100 100 100 100
100 99 100 100 100 100 100 100 100 100 100 100 100 100 100 100 100 100 100 100 99 93 100 100 100 100 100 100 100 100 100 100 100 100 100 100 100 100 100 100 100 100 100
100 100 100 100 100 100 100 100 100 100 100 100 100 100 100 100 100 100 100 100 100 81 100 100 100 100 100 100 100 100 100 100 100 100 100 100 100 100 100 100 100 100 100
100 100 100 100 100 100 100 100 100 100 100 100 100 100 100 100 100 100 100 100 100 100 100 100 100 100 100 100 100 100 100 100 100 100 100 100 100 100 100 100 100 100 97
100 100 100 100 100 100 100 100 100 100 100 100 100 100 100 100 100 100 100 100 100 100 100 100 100 100 100 100 100 100 100 100 100 100 100 100 100 100 100 100 100 100 100
100 100 100 100 100 100 100 100 100 100 100 100 100 100 100 100 100 100 100 100 100 100 100 100 100 100 100 100 100 100 100 100 100 100 100 100 100 100 100 100 100 100 100
100 100 100 100 100 100 100 100 100 100 100 100 100 100 100 100 100 100 100 100 100 100 100 100 100 100 100 100 100 100 100 100 100 100 100 100 100 100 100 100 100 100 100
100 100 100 100 100 100 100 100 100 100 100 100 100 100 100 100 100 100 100 100 100 100 100 100 93 100 100 100 100 100 100 100 100 100 100 100 100 100 100 100 100 100 100

GFSGL_prec_cloud_105.txt.gz
Cloud_Cover
7 5 38 43 85 100 53 60 63 94 25 5 7 3 9 53 20 90 100 100 100 100 99 100 100 100 100 100 100 100 100 100 100 100 100 100 100 100 100 100 100 100 100
90 58 36 11 5 11 7 5 5 5 30 65 5 5 0 5 8 74 96 96 100 100 100 100 100 98 100 100 100 100 100 100 100 100 100 100 100 100 100 100 100 100 100
4 0 2 11 61 50 0 1 12 34 18 5 86 5 4 2 0 4 5 47 88 98 100 100 100 100 100 100 100 100 100 100 100 100 100 100 100 100 100 100 100 100 100
21 42 36 7 2 0 0 53 51 88 68 98 18 4 1 0 0 0 0 1 91 99 5 67 80 100 99 100 100 100 100 100 100 100 100 100 100 100 100 100 100 100 100
100 100 98 20 27 8 30 60 10 5 5 5 4 0 0 0 0 0 0 0 0 0 0 0 0 42 100 100 100 100 100 100 100 100 100 100 100 100 100 100 100 100 100
11 79 5 92 100 100 100 100 100 5 4 0 0 0 0 0 0 0 0 0 0 0 0 0 23 33 94 100 100 100 100 100 100 100 100 100 100 100 100 100 100 100 100
51 84 24 100 100 100 100 100 95 5 3 0 13 13 0 0 0 9 7 6 19 25 98 100 100 100 100 100 100 100 100 100 100 100 100 100 100 100 100 100 100 100 100
100 96 100 100 100 100 100 100 5 5 0 19 100 100 24 0 0 82 91 0 2 10 54 100 100 100 100 100 100 100 100 100 100 100 100 100 100 100 100 100 100 100 100
100 100 100 100 100 100 75 56 21 5 1 1 68 100 98 2 2 57 70 74 21 24 98 99 100 100 100 100 100 100 100 100 100 97 100 100 100 100 100 100 100 100 100
100 100 100 100 100 100 100 100 97 18 25 40 100 100 100 19 1 88 100 100 97 62 100 100 100 100 100 100 100 100 100 100 100 100 82 87 100 98 100 100 100 100 100
100 100 100 100 100 100 100 100 98 79 71 88 100 100 41 5 37 100 100 100 100 87 77 100 100 100 100 100 100 100 100 100 100 100 100 91 98 100 100 100 100 100 100
100 100 100 100 100 100 100 100 49 16 81 100 98 54 51 20 65 100 100 100 100 97 39 63 100 100 100 100 100 100 100 100 100 100 100 100 98 100 100 100 100 100 100
100 100 100 100 100 100 97 41 79 95 100 100 100 100 84 47 38 86 100 100 100 100 38 46 78 100 100 100 100 100 100 100 100 100 100 100 100 100 100 100 100 100 100
100 100 100 100 96 47 99 100 100 100 100 100 100 100 100 98 75 99 100 100 100 100 51 45 84 80 100 100 100 100 100 100 100 100 100 100 100 100 100 100 100 100 100
100 100 100 100 100 100 100 100 87 45 62 97 100 100 100 88 95 90 100 100 100 100 80 20 75 79 94 86 100 100 100 100 100 100 100 100 100 100 100 100 100 100 100
100 100 100 100 100 100 100 100 95 97 100 88 93 95 100 93 92 100 100 100 100 87 87 100 69 74 84 98 89 100 100 100 100 100 100 100 100 100 100 100 100 100 100
100 100 95 90 68 80 100 100 99 50 69 75 93 100 90 100 100 100 100 100 100 100 96 100 98 74 82 84 100 100 100 100 100 100 100 100 100 100 100 100 100 100 100
69 85 81 71 68 51 96 100 79 99 96 100 100 100 100 100 100 100 100 100 100 100 99 80 97 85 95 100 100 100 100 100 100 100 100 100 100 100 100 100 100 100 100
100 78 82 81 74 99 86 71 100 100 100 100 100 100 100 100 78 100 100 100 100 67 90 80 85 100 100 100 99 100 100 100 100 100 100 100 100 100 100 100 100 100 100
100 100 100 100 100 100 100 100 100 100 100 100 100 100 100 100 100 100 98 100 100 100 94 78 80 99 100 100 100 100 100 100 100 100 100 100 100 100 100 100 100 100 100
100 100 100 100 100 100 100 100 100 100 100 100 100 100 100 100 100 100 100 100 100 100 100 100 73 92 79 78 100 100 100 100 100 100 100 100 100 100 100 100 100 100 100
67 92 97 100 100 100 100 100 100 100 100 100 100 100 100 100 100 100 100 100 100 100 100 100 100 100 93 88 91 99 100 100 100 100 100 100 100 100 100 100 100 100 100
88 88 88 100 100 100 100 100 100 100 100 100 100 100 100 100 100 100 100 100 100 100 100 100 100 100 94 90 100 100 100 100 100 100 100 100 100 100 100 100 100 100 100
100 100 100 100 100 100 100 100 100 100 100 100 100 100 100 100 100 100 100 100 100 100 100 100 100 100 100 96 91 94 100 100 100 100 100 100 100 100 100 100 100 100 100
100 100 100 100 100 100 100 100 100 100 100 100 100 97 96 100 100 100 100 100 100 100 100 100 100 100 100 100 100 100 100 100 100 100 100 100 100 100 100 100 100 100 100
100 100 100 100 100 100 100 100 100 100 100 100 100 100 100 100 97 100 78 97 100 100 100 100 100 100 100 100 100 100 100 100 100 100 100 100 100 100 100 100 100 100 100

GFSGL_prec_cloud_108.txt.gz
Cloud_Cover
100 99 100 100 100 100 100 100 100 100 100 100 100 100 100 100 100 100 100 100 100 91 100 99 95 100 94 100 92 100 100 100 100 100 100 100 100 100 100 100 100 100 100
100 100 100 100 100 100 100 100 100 100 100 100 94 15 5 5 5 1 2 5 5 14 18 62 100 100 100 98 100 100 100 100 100 100 100 100 100 100 100 100 100 100 100
98 100 100 100 100 100 100 98 95 92 70 6 38 10 5 7 5 0 0 0 0 2 14 22 51 57 55 61 70 96 100 100 100 100 100 100 100 100 100 100 100 100 100
14 5 29 95 35 17 64 79 98 64 46 95 67 37 14 5 3 0 1 0 0 0 0 0 0 1 30 98 100 100 100 100 100 100 100 100 100 100 100 100 100 100 100
0 1 5 26 99 100 62 12 55 99 73 84 30 5 5 5 5 1 0 0 0 0 0 0 0 0 10 44 100 100 100 100 100 100 100 100 100 100 100 100 100 100 100
11 7 87 4 6 52 10 5 5 5 8 5 5 4 4 100 29 4 0 0 0 0 0 0 0 0 42 54 98 100 98 100 100 100 100 100 100 100 100 100 100 100 100
94 5 52 43 10 99 52 5 19 51 11 10 52 100 100 100 49 14 68 4 42 0 2 0 11 33 81 100 100 100 100 100 100 100 100 100 100 100 100 100 100 100 100
27 79 100 100 99 61 58 4 87 100 80 95 100 100 100 90 5 51 100 0 0 0 0 11 63 91 92 90 100 100 100 100 100 100 100 100 100 100 100 100 100 100 100
100 92 100 100 18 47 55 100 60 97 100 76 100 100 100 60 5 11 33 66 73 12 0 100 84 100 100 73 100 100 100 100 100 100 100 100 100 100 100 100 100 100 100
89 51 42 55 100 100 100 100 95 100 100 100 100 100 100 76 6 5 43 74 93 95 3 30 88 100 100 100 93 100 100 100 100 100 100 100 100 100 100 100 99 100 100
100 100 100 100 100 100 99 96 100 100 100 100 100 100 100 100 68 5 59 74 76 82 71 5 18 90 100 100 99 100 100 100 100 100 100 100 100 100 100 100 100 100 100
100 100 100 100 100 100 100 100 100 100 100 100 100 100 100 95 95 22 24 91 93 100 95 75 5 7 65 98 72 100 100 100 100 100 100 100 100 100 100 100 100 100 100
100 100 100 100 100 100 100 100 100 100 100 100 100 100 100 100 100 99 89 64 100 100 100 100 20 5 6 47 78 100 100 100 100 100 100 100 100 100 100 100 100 100 100
100 100 100 100 100 100 100 100 100 99 100 100 100 100 100 100 100 100 98 89 96 100 100 78 33 9 100 32 77 86 93 100 99 99 96 100 100 100 100 100 100 100 100
100 100 100 100 100 100 100 100 100 100 100 100 100 100 100 100 82 51 64 65 80 100 100 88 28 18 43 90 66 87 88 78 99 100 99 98 100 100 100 100 100 100 100
100 100 100 100 100 100 100 100 100 100 98 89 84 96 100 97 88 94 100 100 97 98 98 99 46 16 33 89 68 82 73 76 99 100 100 100 100 100 100 100 100 100 100
100 100 100 100 100 100 100 100 100 100 100 100 100 100 100 100 100 100 100 100 100 100 100 100 100 20 72 65 87 100 93 99 100 100 100 100 100 100 100 100 100 100 100
100 100 100 100 100 100 100 93 86 96 100 100 100 100 100 98 100 100 100 100 100 100 100 100 100 81 62 58 52 81 100 88 99 100 100 100 100 100 100 100 100 100 100
100 100 100 100 100 83 51 97 100 95 100 100 100 100 100 100 100 100 99 100 100 100 100 100 77 70 74 66 60 26 98 100 98 100 99 100 100 100 100 100 100 100 100
100 100 100 100 100 100 100 100 100 100 100 100 100 100 100 100 100 100 100 87 100 100 100 100 100 96 78 100 99 86 80 72 98 100 100 100 100 100 100 100 100 100 100
100 100 100 100 100 100 100 100 100 100 100 100 100 100 100 100 100 100 100 100 100 100 100 100 100 100 100 99 72 96 100 100 75 99 100 100 100 100 100 100 100 100 100
100 100 100 100 100 100 100 100 100 100 100 100 100 100 100 100 100 100 100 100 100 100 100 100 100 100 100 100 100 100 100 98 100 100 94 100 99 100 100 100 100 100 100
100 100 100 100 100 100 100 89 98 100 100 100 100 100 100 100 100 100 100 100 100 100 100 100 100 100 100 100 100 99 91 99 96 88 91 100 100 100 100 100 100 100 100
100 100 100 100 100 100 90 89 94 98 99 98 100 100 100 100 100 100 100 100 100 100 100 100 100 100 100 100 100 100 100 99 100 96 92 100 99 100 99 100 100 100 100
100 100 100 100 100 100 100 100 100 100 100 100 100 100 100 100 100 100 85 65 86 98 100 100 100 100 100 100 100 100 100 100 100 100 100 100 100 100 100 100 100 100 100
100 100 100 100 100 100 100 100 100 100 100 100 100 100 100 100 100 100 89 64 51 58 55 86 92 100 100 100 100 100 100 100 100 100 100 100 99 100 100 100 100 100 100

GFSGL_prec_cloud_111.txt.gz
Cloud_Cover
100 100 100 100 100 100 100 100 100 100 100 100 100 100 100 100 100 100 100 100 100 100 100 100 98 88 86 99 62 71 99 100 100 100 100 100 93 100 100 100 100 100 100
100 100 100 100 100 100 100 100 100 100 100 100 100 100 100 100 100 100 100 100 100 100 100 100 76 88 92 51 60 72 81 96 100 100 100 100 100 100 100 100 100 100 100
100 100 100 100 100 100 100 100 100 86 87 100 100 100 100 100 100 100 100 100 100 100 100 45 20 16 96 100 100 92 66 74 91 100 100 100 100 100 100 100 100 100 100
100 100 100 100 100 100 100 100 92 100 100 100 100 100 100 100 100 100 100 100 100 99 68 15 2 0 23 40 68 100 100 100 100 100 100 100 100 100 100 100 100 100 100
100 100 100 100 100 100 100 100 100 100 100 100 100 100 100 100 100 100 100 100 100 82 5 4 0 0 0 7 87 100 95 81 100 100 100 100 100 100 100 100 100 100 100
100 100 100 100 100 100 100 100 100 100 100 100 100 100 100 100 100 100 100 100 94 5 5 5 3 0 0 0 0 4 54 85 99 100 100 100 100 100 100 100 100 100 100
100 100 100 100 100 100 100 100 100 100 100 100 100 100 100 100 100 100 48 78 31 0 6 8 3 1 3 0 0 0 100 100 99 100 100 100 100 100 100 100 100 100 100
68 93 100 100 100 100 100 100 100 100 100 100 100 100 100 100 83 43 21 32 7 4 7 20 15 90 100 71 24 29 80 100 100 100 100 100 100 100 100 100 100 100 100
5 5 5 11 63 14 5 73 10 5 57 93 78 98 57 20 5 17 60 70 96 28 10 5 32 100 99 98 100 69 32 100 100 100 100 100 100 100 100 100 100 100 100
15 100 78 10 72 83 10 74 100 100 100 100 100 77 99 100 86 50 94 6 80 99 34 18 100 77 95 98 99 74 44 99 100 100 100 100 100 100 100 100 100 100 100
100 85 21 100 94 5 51 95 82 83 80 88 99 99 100 68 62 91 53 96 100 88 23 100 91 5 39 92 100 96 26 100 100 100 100 100 100 100 100 100 100 100 100
78 6 6 77 100 7 95 100 44 98 100 100 100 100 100 98 100 56 82 93 99 99 98 100 100 86 5 7 47 85 42 98 100 100 100 100 100 100 100 96 100 100 100
5 26 90 71 98 98 97 100 98 100 100 100 100 100 100 97 96 97 78 55 100 100 100 100 100 40 5 5 20 10 22 52 100 100 100 100 100 100 100 86 41 100 100
100 100 100 100 100 100 100 100 99 84 100 100 100 100 100 71 80 100 100 99 13 48 100 100 100 97 24 6 5 5 5 27 76 98 100 96 94 84 100 100 100 99 100
100 100 100 100 100 100 100 100 100 100 100 100 100 100 100 100 80 99 100 84 35 65 93 93 99 100 66 19 5 5 5 6 30 93 92 81 91 78 100 99 100 100 100
100 100 100 100 100 100 100 100 100 100 100 100 100 100 100 100 100 100 92 100 100 100 95 88 100 100 83 28 5 5 5 37 76 22 100 91 82 97 94 92 100 100 100
100 100 100 100 100 100 100 100 100 100 100 100 100 100 100 100 100 100 99 100 100 99 100 100 100 100 100 62 5 5 15 84 100 100 93 100 74 97 100 100 100 100 100
100 100 100 100 100 100 100 100 100 100 100 100 100 100 100 100 100 100 100 100 100 100 100 100 100 100 100 100 31 5 5 49 56 34 100 100 100 71 98 100 100 100 100
100 100 100 100 100 100 100 100 100 100 100 100 100 100 100 100 100 100 100 100 100 100 100 100 100 100 100 47 50 14 10 35 74 78 85 93 100 100 97 87 100 100 100
100 100 100 100 100 100 100 100 100 100 100 100 100 100 100 100 100 100 100 100 100 100 100 100 100 100 100 100 88 57 65 68 99 93 76 86 96 86 100 100 100 100 100
100 100 100 100 100 100 100 100 100 100 100 100 100 100 100 100 100 100 100 100 100 100 100 100 100 100 100 100 100 100 100 59 48 91 100 60 78 92 87 100 100 100 100
100 100 100 100 100 100 100 100 100 100 100 100 100 100 100 100 100 100 100 100 100 100 100 100 100 100 100 100 100 100 81 92 100 100 100 86 53 74 90 99 99 100 100
100 100 100 100 100 100 100 100 100 100 100 100 100 100 100 100 100 100 100 100 100 100 100 100 100 100 100 100 100 100 99 93 93 98 89 100 100 89 85 91 100 100 100
100 100 100 100 100 100 100 100 100 100 100 100 100 100 100 100 100 95 97 95 100 100 100 100 100 100 100 100 100 100 100 100 100 91 92 98 86 94 100 100 100 99 97
100 100 100 100 100 100 100 100 100 100 100 100 100 100 100 100 100 100 100 98 100 100 100 100 99 100 100 100 100 100 100 100 100 100 100 99 98 86 88 96 99 100 100
84 100 100 100 100 100 100 100 100 100 100 100 100 100 100 100 100 100 100 100 100 100 100 100 100 100 70 64 69 99 100 100 100 100 100 100 100 99 100 96 96 100 100

GFSGL_prec_cloud_114.txt.gz
Cloud_Cover
100 100 100 100 100 100 100 100 100 100 100 100 100 100 100 100 100 100 100 100 100 100 100 100 100 100 100 100 100 100 100 100 100 100 100 100 73 100 90 100 100 100 100
100 100 100 100 100 100 100 100 100 100 100 100 100 100 100 100 100 100 100 100 100 100 100 50 100 100 100 100 92 56 100 100 100 100 100 100 82 100 100 100 100 100 100
100 100 100 100 100 100 100 100 100 100 100 100 100 100 100 100 100 100 100 100 100 100 99 100 100 100 76 100 100 100 100 100 100 100 100 100 100 100 100 100 100 100 100
100 100 100 100 100 100 100 100 100 100 100 100 100 100 100 100 100 100 93 100 100 100 100 100 100 100 100 84 100 85 100 99 100 100 100 100 100 100 100 100 100 100 100
100 100 100 100 100 100 100 100 100 100 100 100 100 100 100 100 100 100 100 88 100 100 100 100 100 100 100 100 95 97 100 100 100 99 100 100 100 100 100 100 100 100 100
100 100 100 100 100 100 100 100 100 100 100 100 100 100 100 100 100 100 100 100 95 100 100 100 100 100 100 100 100 95 15 87 100 100 100 100 100 100 100 100 100 100 100
100 100 100 100 100 100 100 100 100 100 100 100 100 100 100 100 100 100 100 100 100 100 100 100 100 100 100 98 78 10 11 9 26 96 100 100 100 100 100 100 100 100 100
100 100 100 100 100 100 100 100 100 100 100 100 100 100 100 100 100 100 100 100 100 100 100 100 100 100 100 100 28 21 58 33 5 95 100 100 100 100 100 100 100 100 100
100 100 100 100 100 100 100 100 100 100 100 100 100 100 100 100 100 100 100 100 100 62 100 100 100 100 100 34 56 98 42 28 5 76 100 100 100 100 100 100 100 100 100
100 100 100 100 100 100 100 100 100 100 100 100 100 100 100 100 100 100 100 100 100 100 100 100 100 99 91 59 96 74 53 10 5 8 100 100 100 100 100 100 100 100 100
100 100 100 100 98 100 100 100 100 100 100 100 100 100 100 100 100 100 100 100 100 100 82 67 96 22 22 10 98 100 100 40 5 5 59 100 100 100 100 100 100 100 100
89 100 100 100 93 100 100 100 100 100 100 100 100 100 100 100 100 100 100 100 99 100 100 26 11 46 81 32 42 100 98 20 5 5 8 99 100 100 100 100 100 100 100
98 78 33 18 6 9 35 39 9 48 99 100 100 98 88 54 78 74 94 100 100 100 100 98 45 98 100 58 9 37 29 70 5 5 5 97 100 100 100 100 93 100 98
82 78 79 96 99 93 31 38 99 94 6 16 45 72 86 92 90 22 60 70 67 65 89 100 100 90 100 98 35 5 9 5 5 5 5 54 94 87 79 88 72 85 77
100 100 100 100 100 100 100 100 100 94 84 86 75 65 100 99 65 83 6 62 82 94 98 98 98 81 100 100 65 9 5 5 5 5 5 5 57 62 10 62 70 74 87
100 100 100 100 100 100 100 100 100 100 100 100 100 100 100 100 99 61 64 87 61 54 95 100 88 100 100 100 84 6 5 5 5 5 5 10 22 82 100 74 84 70 70
100 100 100 100 100 100 100 100 100 100 100 100 100 100 100 100 100 100 100 100 100 100 100 100 99 100 100 100 100 49 5 5 69 13 18 26 43 54 100 100 69 100 75
100 100 100 100 100 100 100 100 100 100 100 100 100 100 100 100 100 100 100 100 100 100 100 100 100 100 100 100 100 100 24 7 5 5 15 25 29 49 72 74 100 100 100
100 100 100 100 100 100 100 100 100 100 100 100 100 100 100 100 100 100 100 100 100 100 100 100 100 100 100 100 100 82 63 37 71 74 24 30 29 46 39 48 72 100 100
100 100 100 100 100 100 100 100 100 100 100 100 100 100 100 100 100 100 100 100 100 100 100 100 100 100 100 100 100 100 99 95 90 91 75 64 52 29 64 79 77 88 97
100 100 100 100 100 100 100 100 100 100 100 100 100 100 100 100 100 100 100 100 100 100 100 100 100 100 100 100 100 100 100 100 100 100 100 76 78 65 69 60 67 82 87
6 83 100 100 100 100 100 100 100 100 100 100 100 100 100 100 100 100 100 100 100 100 100 100 100 100 100 100 100 100 100 100 100 100 100 100 100 100 82 72 85 72 58
100 80 84 100 100 100 100 100 100 100 100 100 100 100 100 100 100 100 100 100 100 100 100 100 100 100 100 100 100 100 100 100 100 100 100 100 100 100 100 98 89 99 98
100 100 50 81 73 100 100 100 100 100 100 100 100 100 100 100 100 100 100 100 100 100 100 100 100 100 100 100 100 100 100 100 100 100 100 100 100 100 100 100 100 100 99
99 100 100 84 100 100 100 100 100 100 100 100 100 100 100 100 100 100 100 100 100 100 100 100 99 100 100 100 100 100 100 100 100 100 100 100 100 100 100 99 97 100 100
71 100 78 84 95 92 87 100 100 100 100 100 100 100 100 100 100 100 100 100 100 100 100 100 100 100 100 100 100 100 100 100 100 100 100 100 100 99 100 99 96 100 98

GFSGL_prec_cloud_117.txt.gz
Cloud_Cover
100 100 100 100 100 100 100 100 100 100 100 100 100 100 100 100 100 100 100 100 100 100 100 100 95 98 100 100 100 100 100 100 100 92 100 79 64 69 82 74 97 100 100
100 100 100 100 100 100 100 100 100 100 100 100 100 100 100 100 100 100 100 100 100 95 100 80 100 100 100 100 100 100 100 100 100 100 100 100 84 100 100 100 100 100 100
100 100 100 100 100 100 100 100 100 100 100 100 100 100 100 100 100 100 100 100 100 99 89 100 100 100 100 100 100 94 99 100 100 100 100 100 100 99 100 100 100 100 100
100 100 100 100 100 100 100 100 100 100 100 100 100 100 100 100 100 100 100 100 100 100 100 100 100 100 81 95 65 92 80 82 93 100 100 86 83 98 100 100 100 100 100
100 100 100 100 100 100 100 100 100 100 100 100 100 100 100 100 100 100 100 100 100 100 100 100 100 100 98 100 91 100 99 99 100 96 98 100 100 100 100 100 100 100 100
100 100 100 100 100 100 100 100 100 100 100 100 100 100 100 100 100 100 100 100 100 100 100 100 100 100 100 100 99 100 100 100 100 100 98 97 100 100 100 100 100 100 100
100 100 100 100 100 100 100 100 100 100 100 100 100 100 100 100 100 100 100 100 100 100 100 100 100 100 100 100 100 100 100 100 85 99 93 91 100 100 100 100 100 100 100
100 100 100 100 100 100 100 100 100 100 100 100 100 100 100 100 100 100 100 100 100 100 100 100 100 100 100 100 100 100 59 98 76 63 32 12 40 100 100 100 100 100 100
100 100 100 100 100 100 100 100 100 100 100 100 100 100 100 100 100 100 100 100 100 100 100 100 100 100 100 100 100 100 55 99 84 100 84 50 59 100 100 100 100 100 100
100 100 100 100 100 100 100 100 100 100 100 100 100 100 100 100 100 100 100 100 100 100 100 100 100 100 100 100 100 100 70 100 100 88 73 8 12 99 100 100 100 100 100
100 100 100 100 100 100 100 100 100 100 100 100 100 100 100 100 100 100 100 100 100 100 100 100 100 100 100 100 100 100 100 97 92 63 10 5 5 88 100 100 100 100 100
100 100 99 84 100 100 100 100 100 100 100 100 100 100 100 100 100 100 100 100 100 100 100 100 100 100 100 100 100 100 94 100 62 9 5 5 5 95 100 100 100 100 100
100 100 100 100 100 100 100 100 100 100 100 100 100 100 100 100 100 100 100 100 100 100 100 100 100 100 100 100 100 100 100 96 94 5 5 5 5 37 83 75 100 100 100
97 81 98 83 79 80 100 100 100 100 100 100 83 84 100 100 100 100 100 100 100 100 100 100 100 97 100 94 70 100 100 88 12 16 21 30 5 12 5 8 76 99 99
99 100 100 100 100 100 100 100 100 100 100 100 100 100 100 100 100 100 100 100 100 100 100 100 100 100 100 76 100 100 36 6 5 12 5 5 5 5 5 28 17 100 80
15 86 100 100 100 100 100 100 100 100 100 100 100 100 100 100 100 100 100 100 100 99 69 87 95 81 62 94 100 100 80 7 5 5 5 5 5 5 5 60 64 19 19
20 43 100 100 100 100 100 100 100 100 100 100 100 100 100 100 100 100 100 100 100 100 100 100 100 100 100 100 100 100 100 70 39 34 9 8 10 51 96 49 99 19 8
52 100 96 99 100 100 100 100 100 100 100 100 100 100 100 100 100 100 100 100 100 100 100 100 100 100 100 100 100 100 100 100 94 14 21 28 29 11 87 100 45 5 7
46 96 89 100 100 100 100 100 100 100 100 100 100 100 100 100 100 100 100 100 100 100 100 100 100 100 100 100 100 100 100 99 95 78 39 34 39 42 38 26 15 29 33
6 5 6 58 57 100 100 100 100 100 100 100 100 100 100 100 100 100 100 100 100 100 100 100 100 100 100 100 100 100 100 100 100 100 99 97 99 85 48 53 18 16 23
5 5 68 100 80 73 89 100 100 100 100 100 100 100 100 100 100 100 100 100 100 100 100 100 100 100 100 100 100 100 100 100 100 100 100 100 100 100 100 71 100 53 68
45 97 100 100 100 100 99 70 100 100 100 100 100 100 100 100 100 100 100 100 100 100 100 100 100 100 100 100 100 100 100 100 100 100 100 100 100 100 99 100 100 100 100
100 100 100 100 100 100 100 100 79 97 100 100 100 100 100 100 100 100 100 100 100 100 100 100 100 100 100 100 100 100 100 100 100 100 100 100 100 100 100 100 100 100 100
100 100 100 99 85 70 59 62 43 60 15 100 100 100 100 100 100 100 100 100 100 100 100 100 100 100 100 100 100 100 100 100 100 100 100 100 100 100 100 100 100 100 100
100 100 82 45 5 7 14 29 29 62 91 86 99 100 100 100 100 100 100 100 100 100 100 100 100 100 100 100 100 100 100 100 100 98 100 100 100 100 100 100 100 100 100
100 100 42 11 5 5 46 53 60 46 53 80 96 100 100 96 100 100 100 100 100 100 100 100 100 100 100 100 100 100 100 100 100 100 100 100 100 100 100 100 100 100 100

GFSGL_prec_cloud_120.txt.gz
Cloud_Cover
100 100 100 100 100 100 100 100 100 100 100 100 100 100 100 100 100 100 100 100 100 100 100 100 100 47 35 85 77 100 100 100 100 15 92 100 100 100 100 100 100 87 95
100 100 100 100 100 100 100 100 100 100 100 100 100 100 100 100 100 100 100 100 100 100 100 19 6 22 93 100 100 100 100 100 100 98 100 98 100 100 100 100 100 100 100
100 100 100 100 100 100 100 100 100 100 100 100 100 100 100 100 100 100 100 100 100 100 100 100 100 75 100 22 100 100 100 100 100 100 100 100 100 64 56 100 100 100 100
100 100 100 100 100 100 100 100 100 100 100 100 100 100 100 100 100 100 100 100 100 100 100 100 100 100 100 100 100 100 100 100 100 99 100 99 98 100 100 100 100 100 100
100 100 100 100 100 100 100 100 100 100 100 100 100 100 100 100 100 100 100 100 100 100 100 100 100 100 100 100 100 100 100 100 100 100 100 100 100 100 100 100 100 100 100
100 100 100 100 100 100 100 100 100 100 100 100 100 100 100 100 100 100 100 100 100 100 100 100 100 100 100 100 100 100 100 100 100 100 100 100 100 100 100 66 100 100 100
100 100 100 100 100 100 100 100 100 100 100 100 100 100 100 100 100 100 100 100 100 100 100 100 100 100 100 100 100 100 100 100 100 100 100 100 100 100 100 100 100 100 100
100 100 100 100 100 100 100 100 100 100 100 100 100 100 100 100 100 100 100 100 100 100 100 100 100 100 100 100 100 100 100 100 100 77 51 80 100 90 100 100 98 100 100
100 100 100 100 100 100 100 100 100 100 100 100 100 100 100 100 100 100 100 100 100 100 100 100 100 100 100 100 100 100 100 100 100 100 100 97 100 100 96 96 100 100 100
100 100 100 100 100 100 100 100 100 100 100 100 100 100 100 100 100 100 100 100 100 100 100 100 100 100 100 100 100 100 100 100 100 100 99 39 96 78 100 66 97 100 100
100 100 100 100 100 100 100 100 100 100 100 100 100 100 100 100 100 100 100 100 100 100 100 100 100 100 100 100 100 100 100 100 100 78 93 100 94 99 80 72 32 100 100
100 100 100 100 100 100 100 100 99 100 100 100 100 100 100 100 100 100 100 100 100 100 100 100 100 100 100 100 100 100 100 100 100 100 100 93 100 100 94 21 55 42 72
100 100 100 100 100 100 100 100 100 100 100 100 100 100 100 100 100 100 100 100 100 100 100 100 100 100 100 100 100 100 100 100 100 100 100 100 100 47 92 38 29 31 58
100 100 100 100 100 100 100 100 100 90 100 100 100 100 100 100 100 100 100 100 100 100 100 100 100 100 100 100 100 100 100 100 98 85 100 73 76 52 35 30 52 56 83
2 18 60 95 88 79 89 100 100 100 100 100 100 100 100 100 100 100 100 100 100 100 100 100 100 100 100 100 100 100 100 100 100 100 89 56 76 26 28 34 47 43 100
5 5 2 9 18 80 100 100 100 100 100 100 100 100 100 100 100 100 100 100 100 100 100 100 100 100 100 100 100 100 100 100 100 98 100 63 53 11 18 29 83 89 95
5 5 60 35 17 5 37 96 100 100 100 100 100 100 100 100 100 100 100 100 100 100 100 100 100 100 100 100 100 100 100 100 100 100 100 10 15 23 54 100 100 100 88
15 93 87 91 58 95 98 100 100 100 100 100 100 100 100 100 100 100 100 100 100 100 100 100 100 100 100 100 100 100 100 100 100 100 69 26 43 38 17 84 100 100 44
5 51 73 99 100 100 100 100 100 100 100 100 100 100 100 100 100 100 100 100 100 100 100 100 100 100 100 100 100 91 100 100 100 100 93 50 76 89 96 96 10 34 62
5 5 5 5 64 100 100 100 100 100 100 100 100 100 100 100 100 100 100 100 100 100 100 100 100 100 100 100 100 100 100 100 100 100 100 100 88 100 97 75 72 75 71
5 5 5 7 100 100 100 100 100 100 100 100 100 100 100 100 100 100 100 100 100 100 100 100 100 100 100 100 100 100 100 100 100 100 100 100 100 98 100 100 89 100 100
7 5 9 94 100 100 100 100 100 100 100 100 100 100 94 100 100 100 100 100 100 100 100 100 100 100 100 100 100 100 100 100 100 100 100 100 100 95 98 100 99 100 100
9 5 52 100 100 100 100 100 100 99 94 37 100 100 100 77 100 100 100 100 100 100 100 100 100 100 100 100 100 100 100 100 100 100 100 100 100 100 100 91 100 100 100
5 5 93 100 100 100 100 100 95 30 6 12 69 84 64 100 91 98 100 100 100 100 100 100 100 100 100 100 100 100 100 100 100 100 100 100 100 98 98 100 100 100 100
5 6 61 95 100 99 83 10 16 5 5 5 5 12 75 100 100 100 100 100 100 100 100 100 100 100 100 100 100 100 100 100 100 100 100 100 100 100 100 100 100 100 100
5 5 5 5 6 5 7 5 5 5 5 5 21 87 90 100 100 100 100 100 100 100 100 100 100 100 100 100 100 100 100 100 100 100 100 100 100 100 100 100 100 100 100